[[{"header":{"parameterUnit":"m.s-1","parameterCategory":1,"la1":30.6,"la2":29.2853,"lo1":-89.7004,"lo2":-87.6739,"dy":0.0162,"dx":0.0183,"nx":112,"ny":82,"refTime":"2023-03-08T18:00:00:Z","depth":0,"parameterNumber":2,"parameterNumberName":"U-component_of_WINDS"},"data":[0.0,0.0,0.0,0.0,0.0,0.0,0.0,0.0,0.0,0.0,0.0,0.0,0.0,0.0,0.0,0.0,0.0,0.0,0.0,0.0,0.0,0.0,0.0,0.0,0.0,0.0,0.0,0.0,0.0,0.0,0.0,0.0,0.0,0.0,0.0,0.0,0.0,0.0,0.0,0.0,0.0,0.0,0.0,0.0,0.0,0.0,0.0,0.0,0.0,0.0,0.0,0.0,0.0,0.0,0.0,0.0,0.0,0.0,0.0,0.0,0.0,0.0,0.0,0.0,0.0,0.0,0.0,0.0,0.0,0.0,0.0,0.0,0.0,0.0,0.0,0.0,0.0,0.0,0.0,0.0,0.0,0.0,0.0,0.0,0.0,0.0,0.0,0.0,0.0,0.0,3.9614,4.2994,5.0021,5.4754,5.5431,5.4021,5.0334,4.3901,0.0,0.0,0.0,0.0,0.0,0.0,0.0,0.0,0.0,0.0,0.0,0.0,0.0,0.0,0.0,0.0,0.0,0.0,0.0,0.0,0.0,0.0,0.0,0.0,0.0,0.0,0.0,0.0,0.0,0.0,0.0,0.0,0.0,0.0,0.0,0.0,0.0,0.0,0.0,0.0,0.0,0.0,0.0,0.0,0.0,0.0,0.0,0.0,0.0,0.0,0.0,0.0,0.0,0.0,0.0,0.0,0.0,0.0,0.0,0.0,0.0,0.0,0.0,0.0,0.0,0.0,0.0,0.0,0.0,0.0,0.0,0.0,0.0,0.0,0.0,0.0,0.0,0.0,0.0,0.0,0.0,0.0,0.0,0.0,0.0,0.0,0.0,0.0,0.0,0.0,0.0,0.0,0.0,0.0,0.0,0.0,0.0,0.0,0.0,0.0,0.0,0.0,0.0,0.0,4.1274,4.8589,5.2381,5.448,5.4612,5.3024,4.9853,4.4748,0.0,0.0,0.0,0.0,0.0,0.0,0.0,0.0,0.0,0.0,0.0,0.0,0.0,0.0,0.0,0.0,0.0,0.0,0.0,0.0,0.0,0.0,0.0,0.0,0.0,0.0,0.0,0.0,0.0,0.0,0.0,0.0,0.0,0.0,0.0,0.0,0.0,0.0,0.0,0.0,0.0,0.0,0.0,0.0,0.0,0.0,0.0,0.0,0.0,0.0,0.0,0.0,0.0,0.0,0.0,0.0,0.0,0.0,0.0,0.0,0.0,0.0,0.0,0.0,0.0,0.0,0.0,0.0,0.0,0.0,0.0,0.0,0.0,0.0,0.0,0.0,0.0,0.0,0.0,0.0,0.0,0.0,0.0,0.0,0.0,0.0,0.0,0.0,0.0,0.0,0.0,0.0,0.0,0.0,0.0,0.0,0.0,0.0,0.0,0.0,0.0,0.0,0.0,3.967,4.383,5.1106,5.335,5.4493,5.4817,5.2909,4.9599,4.4624,4.3221,0.0,0.0,0.0,0.0,0.0,0.0,0.0,0.0,0.0,0.0,0.0,0.0,0.0,0.0,0.0,0.0,0.0,0.0,0.0,0.0,0.0,0.0,0.0,0.0,0.0,0.0,0.0,0.0,0.0,0.0,0.0,0.0,0.0,0.0,0.0,0.0,0.0,0.0,0.0,0.0,0.0,0.0,0.0,0.0,0.0,0.0,0.0,0.0,0.0,0.0,0.0,0.0,0.0,0.0,0.0,0.0,0.0,0.0,0.0,0.0,0.0,0.0,0.0,0.0,0.0,0.0,0.0,0.0,0.0,0.0,0.0,0.0,0.0,0.0,0.0,0.0,0.0,0.0,0.0,0.0,0.0,0.0,0.0,0.0,0.0,0.0,0.0,0.0,0.0,0.0,0.0,0.0,0.0,0.0,0.0,0.0,0.0,0.0,0.0,0.0,0.0,0.0,4.2978,4.6688,5.2155,5.3607,5.4317,5.4801,5.2622,4.9157,4.4395,4.252,0.0,0.0,0.0,0.0,0.0,0.0,0.0,0.0,0.0,0.0,0.0,0.0,0.0,0.0,0.0,0.0,0.0,0.0,0.0,0.0,0.0,0.0,0.0,0.0,0.0,0.0,0.0,0.0,0.0,0.0,0.0,0.0,0.0,0.0,0.0,0.0,0.0,0.0,0.0,0.0,0.0,0.0,0.0,0.0,0.0,0.0,0.0,0.0,0.0,0.0,0.0,0.0,0.0,0.0,0.0,0.0,0.0,0.0,0.0,0.0,0.0,0.0,0.0,0.0,0.0,0.0,0.0,0.0,0.0,0.0,0.0,0.0,0.0,0.0,0.0,0.0,0.0,0.0,0.0,0.0,0.0,0.0,0.0,0.0,0.0,0.0,0.0,0.0,0.0,0.0,0.0,0.0,0.0,0.0,0.0,0.0,0.0,0.0,0.0,0.0,0.0,0.0,4.5624,4.9538,5.1987,5.3137,5.3734,5.3716,5.1472,4.8394,4.4358,4.1911,0.0,0.0,0.0,0.0,0.0,0.0,0.0,0.0,0.0,0.0,0.0,0.0,0.0,0.0,0.0,0.0,0.0,0.0,0.0,0.0,0.0,0.0,0.0,0.0,0.0,0.0,0.0,0.0,0.0,0.0,0.0,0.0,0.0,0.0,0.0,0.0,0.0,0.0,0.0,0.0,0.0,0.0,0.0,0.0,0.0,0.0,0.0,0.0,0.0,0.0,0.0,0.0,0.0,0.0,0.0,0.0,0.0,0.0,0.0,0.0,0.0,0.0,0.0,0.0,0.0,0.0,0.0,0.0,0.0,0.0,0.0,0.0,0.0,0.0,0.0,0.0,0.0,0.0,0.0,0.0,0.0,0.0,0.0,0.0,0.0,0.0,0.0,0.0,0.0,0.0,0.0,0.0,0.0,0.0,0.0,0.0,0.0,0.0,0.0,0.0,0.0,0.0,4.4985,4.8916,0.0,5.2726,5.3521,5.3258,5.159,4.8809,4.4727,0.0,0.0,0.0,0.0,0.0,0.0,0.0,0.0,0.0,0.0,0.0,0.0,0.0,0.0,0.0,0.0,0.0,0.0,0.0,0.0,0.0,0.0,0.0,0.0,0.0,0.0,0.0,0.0,0.0,0.0,0.0,0.0,0.0,0.0,0.0,0.0,0.0,0.0,0.0,0.0,0.0,0.0,0.0,0.0,0.0,0.0,0.0,0.0,0.0,0.0,0.0,0.0,0.0,0.0,0.0,0.0,0.0,0.0,0.0,0.0,0.0,0.0,0.0,0.0,0.0,0.0,0.0,0.0,0.0,0.0,0.0,0.0,0.0,0.0,0.0,0.0,0.0,0.0,0.0,0.0,0.0,0.0,0.0,0.0,0.0,0.0,0.0,0.0,0.0,0.0,0.0,0.0,0.0,0.0,0.0,0.0,0.0,0.0,0.0,0.0,0.0,0.0,4.0602,4.509,4.8842,0.0,5.2495,5.3138,5.285,5.1261,4.8671,4.4821,0.0,0.0,0.0,0.0,0.0,0.0,0.0,0.0,0.0,0.0,0.0,0.0,0.0,0.0,0.0,0.0,0.0,0.0,0.0,0.0,0.0,0.0,0.0,0.0,0.0,0.0,0.0,0.0,0.0,0.0,0.0,0.0,0.0,0.0,0.0,0.0,0.0,0.0,0.0,0.0,0.0,0.0,0.0,0.0,0.0,0.0,0.0,0.0,0.0,0.0,0.0,0.0,0.0,0.0,0.0,0.0,0.0,0.0,0.0,0.0,0.0,0.0,0.0,0.0,0.0,0.0,0.0,0.0,0.0,0.0,0.0,0.0,0.0,0.0,0.0,0.0,0.0,0.0,0.0,0.0,0.0,0.0,0.0,0.0,0.0,0.0,0.0,0.0,0.0,0.0,0.0,0.0,0.0,0.0,0.0,0.0,0.0,0.0,0.0,0.0,0.0,0.0,4.2372,4.6503,4.9919,5.2051,5.2472,5.2545,5.2408,5.0322,4.7666,0.0,0.0,0.0,0.0,0.0,0.0,0.0,0.0,0.0,0.0,0.0,0.0,0.0,0.0,0.0,0.0,0.0,0.0,0.0,0.0,0.0,0.0,0.0,0.0,0.0,0.0,0.0,0.0,0.0,0.0,0.0,0.0,0.0,0.0,0.0,0.0,0.0,0.0,0.0,0.0,0.0,0.0,0.0,0.0,0.0,0.0,0.0,0.0,0.0,0.0,0.0,0.0,0.0,0.0,0.0,0.0,0.0,0.0,0.0,0.0,0.0,0.0,0.0,0.0,0.0,0.0,0.0,0.0,0.0,0.0,0.0,0.0,0.0,0.0,0.0,0.0,0.0,0.0,0.0,0.0,0.0,0.0,0.0,0.0,0.0,0.0,0.0,0.0,0.0,0.0,0.0,0.0,0.0,0.0,0.0,0.0,0.0,0.0,0.0,0.0,0.0,0.0,0.0,4.1831,4.6481,5.0136,5.1318,5.2054,5.2333,5.2084,5.0579,4.8247,4.4989,0.0,0.0,0.0,0.0,0.0,0.0,0.0,0.0,0.0,0.0,0.0,0.0,0.0,0.0,0.0,0.0,0.0,0.0,0.0,0.0,0.0,0.0,0.0,0.0,0.0,0.0,0.0,0.0,0.0,0.0,0.0,0.0,0.0,0.0,0.0,0.0,0.0,0.0,0.0,0.0,0.0,0.0,0.0,0.0,0.0,0.0,0.0,0.0,0.0,0.0,0.0,0.0,0.0,0.0,0.0,0.0,0.0,0.0,0.0,0.0,0.0,0.0,0.0,0.0,0.0,0.0,0.0,0.0,0.0,0.0,0.0,0.0,0.0,0.0,0.0,0.0,0.0,0.0,0.0,0.0,0.0,0.0,0.0,0.0,0.0,0.0,0.0,0.0,0.0,0.0,0.0,0.0,0.0,0.0,0.0,0.0,0.0,0.0,0.0,0.0,0.0,0.0,4.2235,4.6654,5.0078,5.1209,5.1826,5.2066,5.1858,5.0468,4.8551,4.6,0.0,0.0,0.0,0.0,0.0,0.0,0.0,0.0,0.0,0.0,0.0,0.0,0.0,0.0,0.0,0.0,0.0,0.0,0.0,0.0,0.0,0.0,0.0,0.0,0.0,0.0,0.0,0.0,0.0,0.0,0.0,0.0,0.0,0.0,0.0,0.0,0.0,0.0,0.0,0.0,0.0,0.0,0.0,0.0,0.0,0.0,0.0,0.0,0.0,0.0,0.0,0.0,0.0,0.0,0.0,0.0,0.0,0.0,0.0,0.0,0.0,0.0,0.0,0.0,0.0,0.0,0.0,0.0,0.0,0.0,0.0,0.0,0.0,0.0,0.0,0.0,0.0,0.0,0.0,0.0,0.0,0.0,0.0,0.0,0.0,0.0,0.0,0.0,0.0,0.0,0.0,0.0,0.0,0.0,0.0,0.0,0.0,0.0,0.0,0.0,0.0,0.0,4.3215,4.6908,4.9924,5.153,5.169,5.169,5.169,5.0245,4.8639,4.7205,0.0,0.0,0.0,0.0,0.0,0.0,0.0,0.0,0.0,0.0,0.0,0.0,0.0,0.0,0.0,0.0,0.0,0.0,0.0,0.0,0.0,0.0,0.0,0.0,0.0,0.0,0.0,0.0,0.0,0.0,0.0,0.0,0.0,0.0,0.0,0.0,0.0,0.0,0.0,0.0,0.0,0.0,0.0,0.0,0.0,0.0,0.0,0.0,0.0,0.0,0.0,0.0,0.0,0.0,0.0,0.0,0.0,0.0,0.0,0.0,3.4506,0.0,0.0,0.0,0.0,0.0,0.0,0.0,0.0,0.0,0.0,0.0,0.0,0.0,0.0,0.0,0.0,0.0,0.0,0.0,0.0,0.0,0.0,0.0,0.0,0.0,0.0,0.0,0.0,0.0,0.0,0.0,0.0,0.0,0.0,0.0,0.0,0.0,0.0,0.0,0.0,0.0,4.3286,4.6908,4.9924,5.153,5.169,5.169,5.169,5.0245,4.8657,4.7132,4.5178,0.0,0.0,0.0,0.0,0.0,0.0,0.0,0.0,0.0,0.0,0.0,0.0,0.0,0.0,0.0,0.0,0.0,0.0,0.0,0.0,0.0,0.0,0.0,0.0,0.0,0.0,0.0,0.0,0.0,0.0,0.0,0.0,0.0,0.0,0.0,0.0,0.0,0.0,0.0,0.0,0.0,0.0,0.0,0.0,0.0,0.0,0.0,0.0,0.0,0.0,0.0,0.0,0.0,0.0,0.0,0.0,0.0,0.0,0.0,0.0,3.5538,0.0,0.0,0.0,0.0,0.0,0.0,0.0,0.0,0.0,0.0,0.0,0.0,0.0,0.0,0.0,0.0,0.0,0.0,0.0,0.0,0.0,0.0,0.0,0.0,0.0,0.0,0.0,0.0,0.0,0.0,0.0,0.0,0.0,0.0,0.0,0.0,0.0,0.0,0.0,0.0,4.3786,4.7461,5.0352,5.1565,5.169,5.169,5.169,5.0584,4.9549,4.8728,4.648,0.0,0.0,0.0,0.0,0.0,0.0,0.0,0.0,0.0,0.0,0.0,0.0,0.0,0.0,0.0,0.0,0.0,0.0,0.0,0.0,0.0,0.0,0.0,0.0,0.0,0.0,0.0,0.0,0.0,0.0,0.0,0.0,0.0,0.0,0.0,0.0,0.0,0.0,0.0,0.0,0.0,0.0,0.0,0.0,0.0,0.0,0.0,0.0,0.0,0.0,0.0,0.0,0.0,3.6456,3.7268,3.7215,3.803,3.9379,4.0895,3.9411,3.8048,3.6901,3.6284,0.0,0.0,0.0,0.0,0.0,0.0,0.0,0.0,0.0,0.0,0.0,0.0,0.0,0.0,0.0,0.0,0.0,0.0,0.0,0.0,0.0,0.0,0.0,0.0,4.1948,4.2608,4.1573,0.0,0.0,0.0,0.0,0.0,0.0,0.0,0.0,0.0,0.0,0.0,4.4732,4.8229,5.0816,5.1601,5.169,5.169,5.169,5.0959,5.0513,5.0513,4.7925,4.6302,0.0,0.0,0.0,0.0,0.0,0.0,0.0,0.0,0.0,0.0,0.0,0.0,0.0,0.0,0.0,0.0,0.0,0.0,0.0,0.0,0.0,0.0,0.0,0.0,0.0,0.0,0.0,0.0,0.0,0.0,0.0,0.0,3.3665,3.3061,0.0,0.0,0.0,0.0,0.0,0.0,0.0,0.0,0.0,0.0,0.0,0.0,0.0,3.4543,3.601,3.7867,3.8795,3.8811,4.0971,4.2027,4.1999,4.29,4.3152,4.296,4.3988,0.0,3.9594,3.8623,0.0,0.0,0.0,0.0,0.0,0.0,0.0,0.0,0.0,0.0,0.0,0.0,0.0,0.0,0.0,0.0,0.0,0.0,0.0,0.0,0.0,0.0,4.4053,4.4839,4.5178,4.5659,0.0,4.3857,4.0681,3.9771,4.0717,0.0,0.0,0.0,0.0,0.0,0.0,0.0,4.6373,4.8925,5.0816,5.1601,5.169,5.169,5.169,5.0959,5.0513,5.0513,4.946,4.8247,4.689,4.5784,0.0,0.0,0.0,0.0,0.0,0.0,0.0,0.0,0.0,0.0,0.0,0.0,0.0,0.0,0.0,0.0,0.0,0.0,0.0,0.0,0.0,0.0,0.0,0.0,0.0,0.0,0.0,0.0,0.0,3.2234,3.2707,3.1978,3.2024,3.1491,0.0,0.0,0.0,0.0,0.0,0.0,0.0,0.0,0.0,3.7485,3.7734,3.8642,4.0475,4.1821,4.268,4.3086,4.4107,4.4773,4.5179,4.5553,4.5815,4.5929,4.6207,4.5391,4.3758,4.1355,3.9142,3.7244,0.0,0.0,0.0,0.0,3.7078,3.7784,3.9406,4.0059,4.0151,3.9775,0.0,0.0,0.0,0.0,0.0,0.0,0.0,0.0,0.0,0.0,4.5035,4.673,4.7461,4.7961,4.8675,4.7194,4.5213,0.0,4.309,4.2216,3.9843,0.0,0.0,0.0,0.0,4.5998,4.7461,4.971,5.1315,5.1654,5.169,5.169,5.169,5.1369,5.1173,5.1173,5.0423,4.9674,4.8996,4.74,4.5908,0.0,0.0,0.0,0.0,0.0,0.0,0.0,0.0,0.0,0.0,0.0,0.0,0.0,0.0,0.0,0.0,0.0,0.0,0.0,0.0,0.0,0.0,0.0,0.0,0.0,0.0,0.0,0.0,3.2383,3.2902,3.1623,3.2595,3.2595,0.0,0.0,0.0,0.0,0.0,0.0,3.5671,3.5914,3.7566,4.0982,4.1776,4.2893,4.4512,4.5419,4.605,4.6374,4.6552,4.6909,4.7443,4.7621,4.7912,4.8252,4.788,4.7508,4.6945,4.3805,4.1598,4.008,3.9023,3.8587,3.8622,3.9122,3.965,4.0343,4.199,4.2653,4.2771,4.2358,4.2009,4.1576,4.0849,0.0,0.0,0.0,0.0,4.168,4.4089,4.5267,4.6266,4.805,4.9067,4.9674,4.9888,4.9442,4.8568,0.0,4.5784,4.4303,4.2091,0.0,0.0,0.0,0.0,4.7658,4.8639,5.0655,5.1993,5.1993,5.2172,5.2208,5.2011,5.1993,5.1904,5.1708,5.1137,5.0816,5.0816,4.8972,4.7786,4.7347,0.0,0.0,0.0,0.0,0.0,0.0,0.0,0.0,0.0,0.0,0.0,0.0,0.0,0.0,0.0,0.0,0.0,0.0,0.0,0.0,0.0,0.0,0.0,0.0,0.0,0.0,0.0,0.0,0.0,3.3307,3.538,0.0,0.0,0.0,0.0,3.3987,3.5914,3.8003,4.0059,4.082,4.252,4.5386,4.6196,4.6617,4.673,4.8107,4.8512,4.7912,4.8544,4.8884,4.8933,4.9629,4.958,4.9013,4.9661,4.9175,4.7783,4.57,4.3693,4.192,4.1263,4.0534,3.9969,4.1403,4.2596,4.3801,4.536,4.5946,4.5777,4.4613,4.2608,4.0976,4.2493,4.1511,0.0,0.0,4.3839,4.4928,4.7319,4.8514,4.9103,4.9246,4.987,5.0655,5.1405,4.9817,4.8425,0.0,4.9085,4.8514,4.6908,0.0,4.6783,4.6712,4.7497,4.8657,5.0191,5.1815,5.2814,5.2814,5.3474,5.3617,5.2886,5.2814,5.2493,5.1744,5.1654,5.1637,5.1637,5.0798,4.9668,4.8261,4.6561,0.0,0.0,0.0,0.0,0.0,0.0,0.0,0.0,0.0,0.0,0.0,0.0,0.0,0.0,0.0,0.0,0.0,0.0,0.0,0.0,0.0,0.0,0.0,0.0,0.0,0.0,0.0,0.0,3.5396,3.7647,0.0,3.6335,3.763,3.8683,3.8893,4.0464,4.2164,4.3816,4.4156,4.5192,4.7151,4.835,4.9175,4.9645,5.107,5.1669,5.1426,5.1669,5.1799,5.1782,5.1556,5.1313,5.1054,5.0876,5.0244,4.9305,4.8599,4.7163,4.5342,4.4861,4.4842,4.508,4.5369,4.6094,4.7073,4.7717,4.7682,4.7278,4.6769,4.6013,4.5533,4.6535,4.6365,4.6006,4.6952,4.78,4.8603,4.946,5.0637,5.1619,5.1619,5.2208,5.285,5.3135,5.2529,5.2011,5.2279,5.0298,4.8247,4.7176,4.8675,4.9495,4.7979,4.9727,5.1405,5.1958,5.2957,5.3617,5.3617,5.3849,5.3706,5.2939,5.2886,5.2547,5.1744,5.169,5.169,5.169,5.1422,5.0994,5.049,4.9371,4.7483,0.0,0.0,0.0,0.0,0.0,0.0,0.0,0.0,0.0,0.0,0.0,0.0,0.0,0.0,0.0,0.0,0.0,0.0,0.0,0.0,0.0,0.0,0.0,0.0,0.0,0.0,3.8683,3.7517,4.0286,4.163,3.9978,4.1533,4.2747,4.299,4.4771,4.6277,4.72,4.7702,4.8528,4.9758,5.094,5.1669,5.1896,5.3094,5.3563,5.3321,5.3321,5.3321,5.3304,5.2802,5.2576,5.256,5.2106,5.1491,5.0811,5.0811,4.9929,4.8497,4.7727,4.7816,4.8312,4.8068,4.8462,4.9107,4.9349,4.9051,4.8633,4.8672,4.8441,4.8392,4.9205,4.9427,4.9572,5.0254,5.0838,5.1369,5.1619,5.2475,5.326,5.326,5.3849,5.442,5.442,5.442,5.442,5.442,5.2118,4.9977,4.946,5.1083,5.1762,4.9674,5.1583,5.3064,5.2547,5.3617,5.442,5.442,5.442,5.4117,5.3332,5.2547,5.1851,5.1333,5.0798,5.062,5.0887,5.0637,5.0513,5.0513,4.9995,4.8514,4.5988,0.0,0.0,0.0,0.0,0.0,0.0,0.0,0.0,0.0,0.0,0.0,0.0,0.0,0.0,0.0,0.0,0.0,0.0,0.0,0.0,0.0,0.0,0.0,3.5542,3.8424,4.0464,3.9816,4.3427,4.516,4.3103,4.5386,4.6747,4.605,4.8592,5.0179,5.0212,5.1491,5.256,5.3304,5.4033,5.4065,5.3369,5.4065,5.4082,5.3385,5.3385,5.3385,5.3385,5.3369,5.3353,5.3353,5.3337,5.29,5.222,5.222,5.1831,5.107,4.9629,4.915,4.9398,4.9382,4.9594,5.003,5.0323,5.0192,4.9866,5.0215,4.9641,4.8971,5.0206,5.0364,5.0537,5.2182,5.28,5.3118,5.3867,5.4081,5.4099,5.4099,5.4688,5.5241,5.5241,5.5241,5.5241,5.5241,5.4616,5.4081,5.4028,5.4028,5.351,5.1993,5.3064,0.0,5.1993,5.3831,5.5223,5.5187,5.5169,5.4848,5.4028,5.1833,5.0513,5.0513,4.9067,4.8532,4.9281,4.8603,4.8211,4.8211,4.824,4.7921,4.7407,0.0,0.0,0.0,0.0,0.0,0.0,0.0,0.0,0.0,0.0,0.0,0.0,0.0,0.0,0.0,0.0,0.0,0.0,0.0,0.0,0.0,0.0,3.936,3.9088,4.2553,4.5257,4.5613,4.8058,4.9467,4.8884,4.9532,5.0131,5.0422,5.1167,5.1863,5.2398,5.2802,5.311,5.3321,5.4033,5.4308,5.4114,5.4794,5.5037,5.4843,5.4843,5.4843,5.4826,5.4325,5.4114,5.4082,5.3547,5.3207,5.3013,5.3013,5.2576,5.1782,5.0521,5.0367,5.0847,5.0455,5.073,5.1179,5.078,5.0608,5.0653,5.0426,5.0351,5.0493,5.1399,5.1842,5.2225,5.3085,5.3904,5.4616,5.483,5.5204,5.5595,5.574,5.581,5.597,5.6079,5.6062,5.6062,5.6062,5.5901,5.5384,5.4224,5.4028,5.3885,5.3439,5.4242,0.0,5.4295,5.5312,5.5633,5.4474,5.4349,5.3796,5.2457,5.1208,5.0513,5.0513,4.9549,4.9103,4.9317,4.9121,4.9014,4.9014,4.8536,4.7903,0.0,0.0,0.0,0.0,0.0,0.0,0.0,0.0,0.0,0.0,0.0,0.0,0.0,0.0,0.0,0.0,0.0,0.0,0.0,0.0,0.0,0.0,4.1139,4.3525,4.4804,4.6601,4.8398,5.0034,5.1329,5.2203,5.2495,5.2527,5.256,5.2657,5.3207,5.3612,5.3774,5.4049,5.4195,5.4195,5.4616,5.4826,5.4826,5.5215,5.5409,5.5409,5.5409,5.5409,5.5409,5.5005,5.4826,5.481,5.4389,5.4033,5.3758,5.345,5.3062,0.0,0.0,0.0,0.0,0.0,5.1288,5.1655,5.1303,5.1228,5.1306,5.1197,5.1193,5.1329,5.2465,5.2873,5.3164,5.4055,5.4836,5.5431,5.5596,5.5786,5.6067,5.6346,5.6179,5.6067,5.6346,5.6346,5.6346,5.6401,5.6401,0.0,5.5187,5.5027,5.4795,5.4117,5.4973,5.5473,5.4795,5.5687,5.6044,5.5116,5.442,5.3778,5.3207,5.1226,0.0,0.0,0.0,4.8835,4.8835,4.8835,0.0,0.0,0.0,4.884,4.9037,0.0,0.0,0.0,4.8071,4.8041,0.0,0.0,0.0,0.0,0.0,0.0,0.0,0.0,0.0,0.0,0.0,0.0,0.0,0.0,0.0,0.0,4.5266,4.8414,5.1054,5.0455,5.0665,5.3142,5.358,5.3904,5.447,5.4519,5.4244,5.3612,5.4713,5.515,5.4551,0.0,0.0,0.0,0.0,5.5409,5.5409,5.5409,5.5409,5.5409,5.5409,5.5409,5.5409,5.5409,5.5409,5.5409,5.5409,5.5069,5.447,5.3823,5.3515,5.3353,5.2527,5.1782,5.1183,5.1424,5.1441,5.1499,5.1631,0.0,0.0,5.2191,5.1943,5.186,5.3264,5.3536,5.3625,5.4809,5.5396,5.5764,5.6067,5.5897,5.5782,5.629,5.6049,5.5822,5.6273,5.629,5.6253,5.6401,5.6401,5.6401,5.6401,5.6401,5.5919,5.4509,5.5491,5.5883,5.4474,5.5526,5.6329,5.6151,0.0,0.0,5.4902,5.1565,5.0084,5.1601,4.9567,4.83,4.83,4.8389,4.871,4.9299,4.9495,5.0245,5.1565,5.1772,5.2144,5.2623,4.9252,4.9178,0.0,0.0,0.0,0.0,0.0,0.0,0.0,0.0,0.0,0.0,0.0,0.0,0.0,0.0,0.0,4.3517,4.7846,5.1359,5.2504,5.3549,5.4179,5.4195,5.5199,5.5701,5.5264,5.5215,5.5166,5.5021,5.5264,5.5361,5.5231,5.5345,5.5409,5.5409,5.5409,5.5409,5.5409,5.5409,5.5409,5.5409,0.0,0.0,5.5409,5.5409,5.5409,5.5409,5.5409,5.5345,5.5215,5.5069,5.4697,5.4049,5.2721,5.1782,5.1183,5.1258,5.1258,5.1258,5.1333,5.1408,5.1671,5.2284,5.2212,5.2219,5.3469,5.3822,0.0,5.4596,5.5139,5.559,5.5764,5.5666,5.5683,5.6141,5.6049,5.5975,5.6328,5.6401,5.6346,5.6383,5.6401,5.6401,5.6401,5.6401,5.6294,5.599,5.6204,5.6294,5.5972,5.6204,5.5901,5.4616,5.4206,5.3831,5.3367,5.1458,5.0691,5.1637,5.0066,4.9103,4.9103,4.971,4.9834,4.9335,5.0584,5.1066,5.0727,5.1437,5.2048,5.2599,5.2121,5.2484,0.0,0.0,0.0,0.0,0.0,0.0,0.0,0.0,0.0,0.0,0.0,3.5202,0.0,0.0,4.3395,4.617,4.9566,5.2347,5.3681,5.4729,5.5484,5.549,5.5749,5.6089,5.6462,5.5847,5.5571,5.5928,5.562,5.5409,5.5409,5.5409,5.5409,5.5409,5.5409,5.5409,5.5409,5.5409,5.5409,5.5409,5.5409,5.5409,5.5409,5.5409,5.5409,5.5409,5.5409,5.5409,5.5409,5.5409,5.481,5.3823,5.345,5.2641,5.1653,5.1313,5.1183,5.1183,5.1183,5.1258,5.1398,5.1831,5.1941,5.1933,5.2754,5.3068,5.3315,5.3615,5.4235,5.4834,5.5104,5.5122,5.5294,5.5879,5.5804,5.5671,5.6032,5.6162,5.6162,5.629,5.6346,5.6401,5.6401,5.6401,5.6401,5.6401,5.6401,5.6401,5.6401,5.6401,5.6097,5.5294,5.4848,5.4616,5.4634,5.3546,5.2689,5.2315,5.1547,5.0923,5.053,5.0887,5.0905,5.0513,5.128,5.1494,5.1101,5.1494,5.192,5.2333,5.2572,5.3036,0.0,0.0,0.0,0.0,0.0,0.0,0.0,0.0,3.29,3.525,3.6484,3.788,4.0266,4.2758,4.5461,4.8708,5.1006,5.2894,5.4235,5.5027,5.5541,5.5882,5.5631,5.6055,5.745,5.6268,5.5782,5.664,5.5911,5.5474,5.562,5.549,5.5409,5.5409,5.5409,5.5474,5.562,5.549,5.549,5.562,5.5474,5.5409,5.5409,5.5409,5.5409,5.5409,5.5409,5.5409,5.5409,5.5409,5.4745,5.3774,5.4227,5.3596,5.2333,5.1637,5.1378,5.1361,5.1232,5.1183,5.1291,5.1571,5.1538,5.1589,5.1982,5.2451,5.2827,5.28,5.3534,5.4356,5.4632,5.4862,5.5171,5.5819,5.5725,5.5606,5.6016,5.5967,5.6007,5.6532,5.6573,5.6558,5.6718,5.6791,5.6702,5.6436,5.6401,5.6401,5.6401,5.6401,5.6401,5.6401,5.583,5.5633,5.6133,5.558,5.4598,5.3189,5.2957,5.26,5.1958,5.1779,5.169,5.169,5.169,5.169,5.169,5.169,5.184,5.2084,5.2144,5.2617,2.6409,2.6291,2.7954,3.0057,3.1073,3.2665,0.0,0.0,3.7938,4.0084,4.1564,4.2842,4.3807,4.6342,4.8672,5.0064,5.2513,5.402,5.3257,5.4411,5.4887,5.3756,5.4899,5.6268,5.7498,5.6268,5.5992,5.7352,5.6187,5.5701,5.6332,5.5766,5.5409,5.5409,5.5409,5.5717,5.6365,5.5733,5.5733,5.6365,5.5717,5.5409,5.5409,5.5409,5.5409,5.5409,5.5409,5.5409,5.5409,5.5409,5.5328,5.5134,5.46,5.3904,5.311,5.2365,5.209,5.1993,5.1394,5.1183,5.128,5.1879,5.1837,5.1613,5.2424,5.3139,5.3511,5.3001,5.4104,5.5381,5.5272,5.573,5.6222,5.6344,5.637,5.6508,5.6746,5.6299,5.6343,5.7759,5.7517,5.7251,5.7977,5.8201,5.7836,5.6615,5.6401,5.6401,5.6401,5.6401,5.6401,5.6401,5.6311,5.6008,5.5401,5.5259,5.483,5.3956,5.326,5.2832,5.2761,5.2065,5.169,5.169,5.169,5.169,5.169,5.169,5.184,5.2102,5.2084,5.2444,3.0675,3.0323,3.0969,0.0,3.4589,3.606,3.8694,3.937,4.0106,4.2379,4.4044,4.5221,4.5972,4.7778,4.9522,0.0,5.1949,5.3152,5.311,5.359,5.3837,5.3539,5.3845,5.4505,5.5827,5.5623,5.5782,5.6477,5.6602,5.6524,5.6311,5.612,5.5958,5.5776,5.5958,5.5992,5.5863,5.6413,5.6397,5.5863,5.5992,5.583,5.5409,5.5409,5.5409,5.5409,5.5409,5.5409,5.5409,5.5409,5.5409,5.5377,5.5102,5.481,5.4341,5.277,5.1944,5.1572,5.128,5.1442,5.1815,5.2106,5.2377,5.2649,5.3002,5.3389,5.3534,5.3255,5.403,5.4996,5.5069,5.5517,5.6099,5.6599,5.6767,5.6875,5.7158,5.7216,5.7299,5.7952,5.8319,5.8574,5.9029,5.9142,5.9046,5.8485,5.7667,5.6918,5.6454,5.6401,5.6401,5.6401,5.6401,5.6258,5.5937,5.5901,5.5562,5.4759,5.442,5.4028,5.3564,5.2796,5.2386,5.2386,5.1922,5.169,5.169,5.169,5.174,5.1889,5.1889,5.2084,3.2496,0.0,0.0,3.5922,3.7872,3.9572,4.0768,4.1624,4.2709,4.4792,4.6164,4.7011,4.7424,4.8708,4.9816,5.0287,5.1165,5.2033,5.2748,5.2417,5.2299,5.2643,5.2047,5.2181,5.3501,5.4442,5.5398,5.6262,5.6782,5.6884,5.6638,5.6631,5.6618,5.6518,5.6702,5.664,5.6316,5.7142,5.7045,5.6008,5.6332,5.6106,5.5409,5.5409,5.5409,5.5409,5.5409,5.5409,5.5409,5.5409,5.5409,5.5409,5.5409,5.5296,5.4956,5.3385,5.2365,5.1718,5.1313,5.1637,5.2203,5.2203,5.2705,5.3321,5.3321,5.3607,5.3799,5.3448,5.4142,5.4998,5.5122,5.5571,5.6119,5.6679,5.6946,5.7144,5.7421,5.7901,5.8352,5.8774,5.9444,6.0044,6.044,6.0537,6.0569,6.0475,5.9416,5.8185,5.7168,5.6865,5.6722,5.6722,5.6525,5.6401,5.6401,5.6401,5.6151,5.558,5.533,5.4955,5.4384,5.3403,5.2975,5.3189,5.2208,5.1797,5.2029,5.1797,5.1797,5.2029,5.2029,5.2237,0.0,0.0,3.4263,3.7492,4.0575,4.3236,4.4791,4.59,4.6916,4.8077,4.8457,4.8559,4.8258,4.9194,5.0072,5.0086,5.0628,5.1234,5.1765,5.1091,5.0425,5.0269,4.9521,4.9463,0.0,5.2533,5.4822,5.7338,5.6272,5.6201,5.7788,5.7403,5.7291,5.7547,5.7547,5.7871,5.8534,5.7903,5.7563,5.7498,5.6818,5.6106,5.5409,5.5409,5.5409,5.5409,5.5409,5.5409,5.5409,5.5409,5.5409,5.5409,5.5409,5.5005,5.4422,5.4357,5.3887,5.3062,5.1669,5.1637,5.2203,5.2203,5.2705,5.3321,5.3321,5.3964,5.4528,5.3812,5.4783,5.6014,5.566,5.6312,5.6888,5.6505,5.6981,5.7569,5.7569,5.8189,5.9114,6.06,6.1064,6.1524,6.2458,6.2758,6.2602,6.1982,6.1384,6.0415,5.8845,5.8006,5.7543,5.7543,5.6865,5.6401,5.6401,5.6401,5.6383,5.6365,5.5633,5.5205,5.5169,5.3706,5.3225,5.3974,5.2475,5.2065,5.2832,5.2065,5.2083,5.2832,5.2832,5.3242,0.0,0.0,3.9405,4.2208,4.4455,4.6211,4.7,4.7848,4.8296,4.8292,4.7201,4.5996,4.5476,4.5798,4.6366,4.7226,4.9406,5.1136,5.1234,5.1523,5.1031,4.9271,4.9212,0.0,0.0,0.0,0.0,5.4255,5.5626,5.6325,5.6038,5.6889,5.7299,5.7121,5.7756,5.792,5.7678,5.8561,5.8275,5.685,5.6122,5.5652,5.5409,5.5409,5.5409,5.5409,5.5409,5.5409,5.5409,5.5409,5.5409,5.5409,5.5409,5.528,5.5021,5.4567,5.4244,5.3904,5.2932,5.2754,5.3029,5.3499,5.4146,5.4713,5.4713,5.4875,5.5085,5.4858,5.5311,5.5878,5.5932,5.6645,5.7304,5.7386,5.8472,5.9447,5.953,6.0284,6.1125,6.1631,6.2308,6.2965,6.3375,6.3493,6.3182,6.2142,6.1027,5.9933,5.8863,5.8488,5.8345,5.8345,5.765,5.7186,5.7186,5.6704,5.6401,5.6401,5.6151,5.599,5.599,5.4991,5.4545,5.4795,5.3778,5.3367,5.3635,5.3367,5.3385,5.3635,5.3635,5.3778,0.0,3.951,4.3025,4.5947,4.753,4.8517,4.877,4.8975,4.8916,4.8302,4.625,4.4298,4.3612,4.3382,4.35,4.4081,4.6559,4.8609,4.953,4.9729,4.961,4.8953,4.884,4.8801,0.0,0.0,0.0,5.2547,5.4698,5.5921,5.5703,5.6987,5.7745,5.7579,5.8405,5.8549,5.7995,5.9072,5.8761,5.6867,5.6154,5.5668,5.5409,5.5409,5.5409,5.5409,5.5409,5.5409,5.5409,5.5409,5.5409,5.5409,5.5409,5.5409,5.5361,5.4924,5.4616,5.4292,5.358,5.3483,5.379,5.426,5.4859,5.5409,5.5409,5.5409,5.5409,5.5409,5.5507,5.575,5.6156,5.6546,5.7044,5.742,5.8623,5.9655,5.9504,6.0982,6.223,6.2055,6.3063,6.4054,6.4221,6.4305,6.3948,6.2786,6.1991,6.1052,5.9755,5.9327,5.9148,5.9148,5.8452,5.7882,5.7596,5.7114,5.6704,5.6418,5.6401,5.6401,5.6401,5.5633,5.5348,5.5633,5.4581,5.4152,5.4456,5.4152,5.417,5.4456,5.4456,5.4598,3.9,4.2295,4.5156,4.8521,4.9706,5.013,5.0101,4.9545,4.8828,4.8082,4.5652,4.3309,0.0,0.0,4.1671,4.1091,4.249,4.4557,4.7029,4.6356,4.6592,0.0,0.0,0.0,0.0,0.0,0.0,5.2215,0.0,5.4961,5.6665,5.7632,5.8411,5.8898,5.9347,5.9524,5.9225,5.9492,5.8955,5.7563,5.6834,5.6106,5.5409,5.5409,5.5409,5.5409,5.5409,5.5409,5.5409,5.5409,5.5409,5.5409,5.5409,5.5409,5.5409,5.5409,5.5005,5.4357,5.3677,5.3855,5.4405,5.4438,5.4891,5.5409,5.5409,5.5409,5.5409,5.5409,5.5409,5.5571,5.6268,5.614,5.5994,5.6645,5.7665,5.8327,5.7833,6.0374,6.2612,6.2057,6.3432,6.4706,6.4876,6.5078,6.4862,6.3833,6.399,6.3511,6.139,6.0504,6.0023,5.9987,5.9255,5.8488,5.7774,5.7632,5.7257,5.6508,5.6418,5.6401,5.6401,5.5669,5.5633,5.6383,5.492,5.4509,5.5259,5.4509,5.4527,5.5277,5.5277,5.5669,4.2803,4.6258,4.9277,5.0668,5.1037,5.0949,5.0464,4.9493,4.8024,4.5344,4.1763,3.8318,0.0,0.0,0.0,3.9567,4.453,0.0,4.9621,5.0092,0.0,5.0344,0.0,4.9359,4.9616,4.9727,0.0,0.0,5.2792,5.3829,5.4648,5.6244,5.737,5.7871,5.8503,5.8701,5.8243,5.8371,5.8107,5.7563,5.6834,5.6106,5.5409,5.5409,5.5409,5.5409,5.5409,5.5409,5.5409,5.5409,5.5409,5.5409,5.5409,5.5409,5.5409,5.5409,5.5296,5.5134,5.494,5.4665,5.4486,5.4988,5.528,5.5409,5.5409,5.5409,5.5409,5.5409,5.5409,5.5458,5.5636,5.614,5.6711,5.7149,5.8424,5.9651,5.975,6.1486,6.3004,6.2906,6.3761,6.4306,6.3832,6.3813,6.3425,6.2252,6.2041,6.1941,6.1795,6.1729,6.145,6.0861,6.0076,5.9523,5.9327,5.8256,5.7489,5.7293,5.6722,5.6401,5.6401,5.6204,5.6186,5.6401,5.599,5.5901,5.6097,5.5901,5.5901,5.6097,5.6097,5.6204,4.6911,4.964,5.1831,5.2747,5.2149,5.0822,4.9325,4.7639,4.5314,4.1689,3.812,0.0,3.3056,3.4787,3.6693,0.0,0.0,0.0,4.8769,4.9718,5.0515,0.0,5.0757,0.0,5.0525,5.0639,5.0982,0.0,5.2295,5.3211,5.4162,5.5649,5.67,5.71,5.784,5.8227,5.8243,5.8319,5.8149,5.7579,5.7158,5.6429,5.5409,5.5409,5.5409,5.5409,0.0,5.5409,5.5409,5.5409,5.5409,5.5409,5.5409,5.5409,5.5409,5.5409,5.5409,5.5409,5.5409,5.5166,5.4907,5.5296,5.5409,5.5409,5.5409,5.5409,5.5409,5.5409,5.5409,5.549,5.5798,5.6285,5.684,5.7364,5.8626,5.9696,5.9657,6.1189,6.2719,6.2861,6.3392,6.3642,6.3136,6.2805,6.256,6.2051,6.1835,6.1634,6.1559,6.1539,6.1412,6.0907,6.0642,6.029,5.9933,5.9113,5.831,5.7632,5.7168,5.6757,5.6401,5.6401,5.6401,5.6401,5.6401,5.6401,5.6401,5.6401,5.6401,5.6401,5.6401,5.6401,5.0757,5.2397,5.33,5.4545,5.2924,5.0437,4.7673,4.5082,4.2019,3.7887,0.0,3.2751,3.1565,3.3383,3.5252,3.5834,0.0,4.4414,4.7071,4.805,4.9382,5.1686,5.1802,5.1788,5.186,5.1788,5.1773,5.186,5.2193,5.307,5.4413,5.5554,5.6311,5.67,5.7259,5.7917,5.8503,5.8792,5.8494,5.7709,5.7628,5.6867,5.5555,5.5458,5.5409,5.5409,5.5409,5.5409,5.5409,5.5409,5.5409,5.5409,5.5409,5.5409,5.5409,5.5409,5.5409,5.5409,5.5409,5.5409,5.5409,5.5409,5.5409,5.5409,5.5409,5.5409,5.5409,5.5409,5.5474,5.5701,5.6332,5.6559,5.6818,5.7547,5.8518,5.9149,5.8774,6.0353,6.2032,6.2449,6.2781,6.2978,6.2714,6.2301,6.211,6.2386,6.2196,6.1652,6.0883,6.0744,6.0733,6.0627,6.0914,6.0826,6.013,5.9969,5.9327,5.7971,5.7792,5.7382,5.6579,5.6561,5.6508,5.6401,5.6401,5.6401,5.6401,5.6401,5.6401,5.6401,5.6401,5.6401,5.2688,5.4023,5.485,5.4575,5.3156,5.0876,4.7219,4.4057,0.0,0.0,3.2752,3.0864,2.9607,3.1387,3.4278,3.8046,4.1986,4.6026,5.0206,5.0888,5.1613,0.0,5.3041,5.2924,5.342,5.3026,0.0,0.0,5.2806,5.3126,5.4398,5.509,5.575,5.67,5.6634,5.7195,5.8303,5.8319,5.8271,5.821,5.7785,5.7126,5.6284,5.5685,5.5409,5.5409,5.5409,0.0,5.5409,5.5409,5.5409,5.5409,5.5409,5.5409,5.5409,5.5409,5.5409,5.5409,5.5409,5.5409,5.5409,5.5409,5.5409,5.5409,5.5409,5.5409,5.5409,5.5409,5.5847,5.6332,5.6462,5.6931,5.7563,5.8275,5.8534,5.8847,5.9404,6.0638,6.1975,6.286,6.3285,6.3332,6.2764,6.261,6.2213,6.1223,6.0894,6.0461,5.9681,6.0739,6.1335,6.068,6.0914,6.104,6.0897,6.029,5.9809,5.9523,5.8899,5.8185,5.74,5.7382,5.7061,5.6401,5.6401,5.6401,5.6401,5.6401,5.6401,5.6401,5.6401,5.6401,5.4067,5.506,5.5488,5.4662,5.2501,4.9311,4.4588,0.0,0.0,0.0,3.0148,2.8924,2.8071,3.0454,0.0,3.5933,4.0342,4.4661,4.8145,4.9785,5.1308,5.3025,5.3258,5.339,5.3681,5.3448,5.33,5.35,5.3225,5.3347,5.4122,5.4783,5.5481,5.6145,5.6259,5.6827,5.7808,5.8103,5.8335,5.8458,5.8206,5.7547,5.6478,5.6138,5.5766,5.5409,5.5409,5.5409,5.5409,5.5409,5.5409,5.5409,5.5409,5.5409,5.5409,5.5409,5.5409,5.5409,5.5409,5.5409,5.5474,5.5847,5.5717,5.5409,5.5409,5.5685,5.5976,5.5976,5.6494,5.7061,5.7061,5.7595,5.8211,5.8551,5.8923,5.9383,5.9984,6.0668,6.1428,6.2021,6.2501,6.2768,6.2695,6.2385,6.2004,6.1797,6.1294,6.0653,6.0029,6.0823,6.1206,6.0431,6.0793,6.1093,6.1093,6.0754,6.0362,5.9933,5.9559,5.8988,5.8203,5.7792,5.74,5.7025,5.6597,5.6401,5.6401,5.6401,5.6401,5.6401,5.6401,5.6401,5.485,5.5736,5.5786,5.4705,5.1801,4.7683,4.2349,3.8088,0.0,0.0,2.8181,2.7515,2.7442,2.961,3.2019,0.0,3.7768,4.1874,4.5401,4.784,5.009,0.0,5.3227,0.0,5.362,5.362,0.0,5.362,5.3605,5.3815,5.4008,5.4758,5.5295,5.5496,5.6077,5.6618,5.7338,5.7917,5.8398,5.8772,5.8626,5.8049,5.6948,5.664,5.6187,5.5636,5.5474,5.5409,5.5409,5.5409,5.5409,5.5409,5.5409,5.5409,5.5409,5.5409,5.5409,5.5409,5.5409,5.5409,5.5507,5.6089,5.5879,5.5442,5.5604,5.6041,5.6494,5.6494,5.7126,5.7806,5.7806,5.8324,5.8874,5.8874,5.9295,5.9804,6.0222,6.0616,6.1003,6.1256,6.1834,6.2358,6.2724,6.2383,6.2141,6.2556,6.2053,6.1413,6.0826,6.1023,6.0984,6.0469,6.0821,6.1093,6.1093,6.1093,6.0826,6.0201,6.0165,5.9809,5.9006,5.8399,5.8006,5.7828,5.7204,5.69,5.69,5.6722,5.665,5.665,5.6472,5.6401,5.4734,5.5852,5.6026,5.4821,5.1599,4.739,4.2266,0.0,3.3565,2.9537,2.7831,2.7413,2.8495,0.0,0.0,0.0,0.0,3.8304,4.4951,4.7085,4.9213,5.253,0.0,0.0,5.3904,5.3904,5.3904,5.3904,5.4097,5.42,5.4304,5.486,5.5194,5.5194,5.578,5.6342,5.7084,5.784,5.8546,5.9218,5.8765,5.8567,5.8389,5.7093,5.6462,5.6365,5.5701,5.5409,0.0,5.5409,5.5409,5.5409,5.5409,5.5409,5.5409,5.5409,5.5409,5.5409,5.5409,5.5409,5.5426,5.549,5.5474,5.5539,5.6203,5.6446,5.6494,5.6494,5.7482,5.8534,5.8534,5.9069,5.9619,5.9619,5.9668,5.9804,6.0066,6.0463,6.0936,6.1545,6.2184,6.2745,6.3199,6.3353,6.3242,6.2637,6.2519,6.2316,6.1571,6.132,6.126,6.1383,6.1201,6.1093,6.1093,6.1093,6.1075,6.0986,6.0986,6.0629,5.9826,5.9737,5.9362,5.8631,5.8542,5.8506,5.8506,5.781,5.7471,5.7453,5.674,5.6401,5.3268,5.5147,5.5736,5.4226,5.0246,4.5566,4.1026,0.0,3.1398,2.8652,2.7457,2.7161,2.8035,2.7897,0.0,0.0,0.0,0.0,3.8942,4.1976,4.5185,4.8792,5.0898,0.0,0.0,0.0,5.3605,5.3605,5.4112,5.42,5.4112,5.4656,5.4991,5.4991,5.5681,5.6439,5.7244,5.7917,5.8669,5.9508,5.8885,5.8405,5.7968,5.6948,5.6268,5.583,5.5539,5.5409,0.0,5.5409,5.5409,5.5409,5.5409,5.5409,5.5409,5.5409,5.5409,5.5409,5.5409,5.5701,5.6057,5.6057,5.6057,5.6122,5.6413,5.6802,5.7239,5.766,5.8502,5.9279,5.9279,5.9506,5.9716,5.9716,5.9716,5.9804,6.0066,6.0239,6.0649,6.1547,6.203,6.2503,6.336,6.3526,6.357,6.3349,6.3297,6.3058,6.2492,6.249,6.2283,6.174,6.1237,6.0956,6.1093,6.1093,6.1093,6.1093,6.1093,6.0968,6.0647,6.0165,5.9755,5.9452,5.897,5.872,5.872,5.8417,5.8024,5.7578,5.7257,5.6847,5.0931,5.3521,5.4647,5.3329,4.88,4.3697,0.0,0.0,3.0089,2.8361,2.736,2.6968,2.7607,2.7668,0.0,0.0,0.0,3.2266,3.5296,3.8379,4.1599,4.5256,0.0,4.9596,5.1875,5.3053,5.362,5.3515,5.3904,5.4097,5.3815,5.4245,5.4583,5.4803,5.5481,5.625,5.7137,5.7526,5.8276,5.9393,5.8874,5.8373,5.7871,5.7142,5.6413,5.5717,5.5507,5.5409,0.0,5.5409,5.5409,5.5409,5.5409,5.5409,5.5409,5.5409,5.5409,5.5442,5.5668,5.6073,5.6527,5.6737,5.6672,5.6543,5.6753,5.7174,5.7676,5.8178,5.9004,5.9716,5.9716,5.9716,5.9716,5.9716,5.9716,5.9716,5.9979,6.0066,6.0394,6.1219,6.1692,6.2234,6.3134,6.3452,6.36,6.3764,6.3747,6.3629,6.329,6.3311,6.2939,6.2,6.1388,6.1085,6.1111,6.1093,6.1093,6.1093,6.1093,6.1093,6.1093,6.0558,6.0255,6.0255,5.9719,5.9434,5.9434,5.9184,5.8792,5.8256,5.8024,5.7489,4.7817,5.0825,5.272,5.1802,4.7288,4.2339,0.0,0.0,3.0219,2.8927,2.7665,2.6968,2.7607,2.7668,2.8199,2.9666,0.0,0.0,3.6058,3.7565,3.9421,0.0,0.0,4.53,4.8478,5.183,5.3815,5.3515,5.371,0.0,5.3515,5.3815,5.4126,5.4803,5.5295,5.5826,5.6373,5.6651,5.7381,5.8648,5.8632,5.8632,5.8599,5.7887,5.7174,5.6446,5.5733,5.5409,0.0,5.5409,5.5409,5.5409,5.5409,5.5409,5.5409,5.5409,5.5409,5.5523,5.6235,5.6494,5.6608,5.7336,5.7077,5.664,5.7352,5.7563,5.7579,5.7595,5.8615,5.9716,5.9716,5.9716,5.9716,5.9716,5.9716,5.9716,5.9716,5.9892,6.0222,6.0633,6.1219,6.1887,6.2615,6.3017,6.3377,6.36,6.3764,6.391,6.391,6.3501,6.2995,6.2191,6.19,6.1583,6.1165,6.1093,6.1093,6.1093,6.1093,6.1093,6.1093,6.1093,6.1093,6.1093,6.1075,6.1075,6.1075,6.029,5.9898,5.9862,5.9077,5.8292,4.1375,4.3862,4.5331,4.4589,4.1395,3.7868,3.5764,3.2164,2.8913,2.7636,2.707,2.6968,2.7607,2.7668,2.8289,3.006,3.0497,0.0,0.0,0.0,0.0,4.2658,4.7433,5.0888,0.0,0.0,5.3815,5.3515,5.371,5.3815,5.3515,5.371,5.3921,5.3816,5.4854,5.5546,5.5889,5.6825,5.7711,5.862,5.8438,5.813,5.763,5.7074,5.6446,5.5749,5.5507,5.5409,5.5409,5.5409,5.5409,5.5409,5.5409,5.5409,5.5409,5.5409,5.5409,5.5442,5.5685,5.6089,5.6462,5.6187,5.6608,5.7093,5.6332,5.6786,5.7773,5.8761,5.936,5.9716,5.9716,5.9716,5.9716,5.9716,5.9716,5.9716,5.9716,5.9804,5.9963,6.0548,6.0936,6.1513,6.2381,6.2847,6.3152,6.3377,6.3526,6.3747,6.391,6.3774,6.3536,6.2961,6.3053,6.2481,6.0892,6.0974,6.1093,6.1093,6.1093,6.1093,6.1093,6.1093,6.1093,6.1093,6.1093,6.1093,6.1093,6.0843,6.0451,5.9898,5.9095,5.8595,0.0,3.9062,4.0683,4.0118,3.7607,0.0,0.0,3.0626,2.81,2.7302,2.7142,2.7186,2.7345,2.7955,2.8753,2.9813,3.0308,3.134,0.0,0.0,0.0,4.2977,0.0,0.0,0.0,5.2893,5.371,5.3515,5.3605,5.371,5.3515,5.3605,5.3641,5.3216,5.4446,5.5249,5.5494,5.659,5.7463,5.8303,5.8422,5.8017,5.7308,5.7025,5.6365,5.5409,5.5409,5.5409,0.0,5.5409,5.5409,5.5409,5.5409,5.5409,5.5409,5.5409,5.5409,5.5458,5.5733,5.6122,5.6462,5.6284,5.6834,5.7401,5.651,5.6867,5.7822,5.8988,5.9312,5.9376,5.9636,5.9506,5.9376,5.9652,5.9716,5.9716,5.9716,5.9716,5.9875,6.0394,6.0769,6.1251,6.2047,6.2598,6.3076,6.3227,6.3452,6.3673,6.3764,6.3837,6.3687,6.3048,6.3497,6.3005,6.1023,6.128,6.1414,6.1111,6.1093,6.1093,6.1093,6.1093,6.1093,6.1093,6.1093,6.1093,6.1093,6.1093,6.0843,6.0344,5.9844,5.9452,0.0,0.0,0.0,0.0,0.0,0.0,0.0,0.0,0.0,2.7665,2.7665,2.7505,2.6953,2.8332,2.945,2.9095,2.9944,3.1835,0.0,3.6983,0.0,0.0,4.71,0.0,4.8812,5.1657,5.3515,5.3515,5.3515,5.3515,5.3515,5.3515,5.3358,5.3085,5.417,5.485,5.511,5.592,5.6898,5.7908,5.8365,5.8222,5.7579,5.7579,5.6786,0.0,5.5409,5.5409,5.5409,5.5409,5.5409,5.5409,5.5409,5.5409,5.5409,5.5409,5.5409,5.5507,5.6187,5.6413,5.6543,5.7255,5.7466,5.7433,5.7482,5.7531,5.7725,5.8437,5.8599,5.8729,5.9457,5.9134,5.8826,5.9538,5.9716,5.9716,5.9716,5.9716,5.9804,6.0066,6.0616,6.1169,6.1628,6.2425,6.3059,6.3227,6.3452,6.36,6.36,6.3747,6.356,6.2634,6.3327,6.3102,6.1511,6.1956,6.195,6.1147,6.1093,6.1093,6.1093,6.1093,6.1093,6.1093,6.1093,6.1093,6.1093,6.1093,6.1093,6.1093,6.1093,6.0701,0.0,0.0,0.0,0.0,3.0001,2.9639,0.0,0.0,0.0,0.0,0.0,2.7113,2.7447,2.8274,2.9174,3.0046,3.0846,3.2411,3.5703,4.1004,0.0,4.6708,5.0148,5.1614,4.964,5.1918,5.3515,5.3515,5.3515,5.3515,5.3515,5.3515,5.3547,5.3699,5.4142,5.4416,5.4389,5.5725,5.6741,5.762,5.8264,5.8165,5.7324,5.7494,5.6786,5.5409,5.5409,5.5409,5.5409,5.5409,5.5409,5.5409,5.5409,5.5409,5.5409,5.5409,5.5409,5.5442,5.562,5.5668,5.5782,5.651,5.6381,5.6025,5.6591,5.7142,5.7725,5.8437,5.8243,5.7984,5.8696,5.8761,5.8826,5.9538,5.9716,5.9716,5.9716,5.9716,5.9804,6.0222,6.0685,6.1169,6.1628,6.2425,6.3,6.3059,6.336,6.36,6.36,6.3673,6.3604,6.3358,6.3485,6.3372,6.3003,6.2559,6.195,6.1147,6.1093,6.1093,6.1093,6.0956,6.0938,6.1111,6.1093,6.1093,6.1093,6.1093,6.1093,6.1093,6.1093,6.1004,2.6206,2.7055,2.7723,2.7389,2.7563,2.7723,0.0,0.0,0.0,0.0,0.0,2.7665,2.7723,2.9218,3.0379,3.0161,3.1903,3.4569,0.0,0.0,4.6301,4.8501,5.0581,5.1672,0.0,5.2688,5.3515,5.3515,5.3515,5.3515,5.3515,5.3515,5.362,5.371,5.4112,5.4463,5.467,5.5447,5.6238,5.6996,5.7405,5.7492,5.7222,5.7494,5.6964,5.5911,5.5911,5.5717,5.5409,5.5409,5.5409,5.5409,5.5409,5.5409,5.5409,5.5409,5.5409,5.5409,5.5409,5.5409,5.5474,5.5879,5.596,5.5992,5.6381,5.677,5.7158,5.7547,5.7385,5.7255,5.7968,5.8146,5.8324,5.9053,5.9474,5.9716,5.9716,5.9716,5.9804,6.0049,6.0532,6.0936,6.135,6.2172,6.2923,6.3,6.336,6.36,6.36,6.36,6.36,6.36,6.3379,6.3168,6.2936,6.2386,6.1971,6.1664,6.1307,6.1093,6.1093,6.1016,6.1016,6.1093,6.1093,6.1093,6.1093,6.1093,6.1093,6.1093,6.1093,6.1093,2.5865,2.6686,2.7195,2.6852,2.6779,2.6779,2.6779,0.0,0.0,0.0,0.0,0.0,0.0,3.0393,0.0,0.0,0.0,0.0,4.1405,4.3687,4.6189,4.9333,5.0013,0.0,5.276,5.3283,5.3471,5.3384,5.3457,5.3471,5.3384,5.3457,5.3515,5.3515,5.4008,5.4479,5.4943,5.5122,5.5543,5.6093,5.6305,5.6591,5.7045,5.7316,5.7012,5.6332,0.0,0.0,5.5409,5.5409,5.5409,5.5409,5.5409,5.5409,5.5409,5.5409,5.5409,5.5409,5.5409,5.5409,5.5409,5.5409,5.583,5.6332,5.6332,5.6332,5.6332,5.6332,5.6332,5.6494,5.7223,5.7401,5.7628,5.8437,5.9101,5.9571,5.9684,5.9716,5.9716,5.9716,6.0292,6.0785,6.1003,6.1934,6.2787,6.3,6.336,6.36,6.36,6.36,6.36,6.36,6.3254,6.2875,6.2515,6.2188,6.2044,6.2289,6.1539,6.1093,6.1034,6.1093,6.1093,6.1034,6.1093,6.1093,6.1093,6.1093,6.1093,6.1093,6.1093,6.1093,2.6968,2.8385,2.9007,2.7239,2.6779,2.6779,2.6779,0.0,0.0,0.0,0.0,0.0,0.0,3.0539,3.1308,0.0,0.0,4.0525,0.0,0.0,4.9248,4.8297,0.0,5.2223,5.0438,5.2238,5.3297,5.276,5.321,5.3283,5.2746,5.3225,5.3605,5.3815,5.3904,5.3965,5.4027,5.4434,5.477,5.4931,5.5618,5.5986,5.605,5.6489,5.6268,5.5587,0.0,5.5523,5.5409,5.5409,5.5409,5.5409,5.5409,5.5409,5.5409,5.5409,5.5409,5.5409,5.5409,5.5409,5.5409,5.5409,5.549,5.5587,5.5587,5.5587,5.5587,5.5587,5.5587,5.5749,5.6478,5.6656,5.6996,5.8324,5.8729,5.8972,5.9587,5.9716,5.9804,5.9979,6.0394,6.0886,6.1284,6.2127,6.2787,6.3,6.336,6.36,6.36,6.36,6.36,6.36,6.3271,6.3101,6.3287,6.2982,6.2612,6.2324,6.1539,6.1016,6.0861,6.1016,6.1016,6.0861,6.1016,6.1093,6.1093,6.1093,6.1093,6.1093,6.1093,6.1093,2.5952,2.7166,2.828,2.8426,2.9258,2.9886,2.9421,0.0,0.0,0.0,0.0,0.0,0.0,0.0,3.52,3.9229,0.0,4.2723,4.5259,4.6756,4.7832,0.0,0.0,5.0772,5.1657,5.2514,5.3022,5.308,5.3341,5.3384,5.3094,5.3036,5.3096,5.3392,5.3158,5.2977,5.2738,5.3114,5.3431,5.3758,5.4034,5.4596,5.5446,5.589,5.6066,5.5992,0.0,5.5782,5.5409,5.5409,5.5409,5.5409,5.5409,5.5409,5.5409,5.5409,5.5409,5.5409,5.5409,5.5409,5.5409,5.5409,5.5409,5.5409,5.5409,5.5409,5.5409,5.5409,5.5409,5.549,5.583,5.6203,5.6753,5.7806,5.8356,5.8826,5.9555,5.9716,5.9716,5.9892,6.0136,6.0463,6.0969,6.1773,6.2425,6.277,6.3302,6.36,6.36,6.36,6.36,6.36,6.3073,6.2717,6.2594,6.2196,6.2068,6.2307,6.1539,6.1034,6.0956,6.1034,6.1034,6.0956,6.1034,6.1093,6.1093,6.1093,6.1093,6.1093,6.1093,6.1093,2.5212,2.6323,2.7715,2.9432,0.0,3.1477,3.1907,0.0,0.0,0.0,0.0,0.0,0.0,3.501,0.0,4.3957,4.4398,4.4953,4.7109,4.7017,4.7512,4.9601,4.9432,5.0278,5.3225,5.2934,5.2717,5.3051,5.3065,5.3007,5.2862,5.2528,5.2442,5.2632,5.2367,5.2008,5.1736,5.1914,5.2207,5.2607,5.2642,5.3272,5.4584,5.5207,5.5649,5.5986,5.6152,5.5928,5.5409,5.5409,5.5409,5.5409,5.5409,5.5409,5.5409,5.5409,5.5409,5.5409,5.5409,5.5409,5.5409,5.5409,5.5523,5.5668,5.5668,5.5782,5.5928,5.5928,5.5928,5.5847,5.5507,5.583,5.6462,5.7352,5.7984,5.8632,5.9522,5.9716,5.9716,5.9716,5.9892,6.0239,6.0633,6.135,6.2093,6.2632,6.3152,6.3526,6.3582,6.36,6.36,6.36,6.3082,6.2643,6.2248,6.1642,6.1616,6.2289,6.1539,6.1093,6.1093,6.1093,6.1093,6.1093,6.1093,6.1093,6.1093,6.1289,6.1379,6.1379,6.1557,6.1539,2.6155,2.774,2.8949,2.9508,0.0,0.0,3.2557,3.3019,0.0,0.0,0.0,0.0,0.0,3.6851,3.9189,4.2571,4.5053,4.7651,5.0772,0.0,5.2093,5.2281,5.2775,5.321,5.3486,5.2934,5.2339,5.1802,5.1759,5.1497,5.0917,5.1396,5.1686,5.1686,5.1643,5.1595,5.1414,5.1414,5.1491,5.174,5.2139,5.2503,5.2908,5.4033,5.4476,5.456,5.5244,5.5458,5.5409,5.5409,5.5409,5.5409,5.5409,5.5409,5.5409,5.5409,5.5409,5.5409,5.5409,5.5409,5.5409,5.5409,5.5863,5.6413,5.6413,5.6883,5.7417,5.7417,5.7417,5.711,5.5766,5.5458,5.5847,5.7239,5.7611,5.8032,5.9425,5.9716,5.9716,5.9716,5.9892,6.0239,6.0633,6.1301,6.1951,6.2632,6.3076,6.3377,6.36,6.36,6.36,6.36,6.3548,6.3477,6.3359,6.2335,6.1822,6.2271,6.1539,6.1093,6.1093,6.1093,6.1093,6.1093,6.1093,6.1093,6.1093,6.1843,6.2199,6.2217,6.2913,6.286,2.5299,2.7272,2.9224,3.0148,0.0,0.0,0.0,0.0,0.0,0.0,0.0,0.0,0.0,0.0,4.3025,4.4237,4.7182,4.982,5.0859,5.1236,5.1396,5.1396,5.1599,5.1904,5.2296,5.2122,5.1875,5.1643,5.1614,5.1512,5.128,5.112,5.1119,5.1218,5.0825,5.0701,5.0854,5.1002,5.106,5.109,5.1665,5.2033,5.2487,5.3521,5.4125,5.4396,5.5081,5.5409,5.5409,5.5409,5.5409,5.5409,5.5409,5.5409,5.5409,5.5409,5.5409,5.5409,5.5409,5.5409,5.5409,5.5409,5.5604,5.583,5.583,5.6008,5.6332,5.6786,5.6899,5.6883,5.6786,5.6753,5.6996,5.8,5.8227,5.8502,5.9506,5.9716,5.9716,5.9716,5.9804,5.9963,6.0308,6.0869,6.1513,6.2172,6.2753,6.3227,6.36,6.36,6.36,6.36,6.3186,6.2799,6.2474,6.1779,6.1358,6.1272,6.1134,6.1093,6.1093,6.1093,6.1093,6.1093,6.1575,6.1843,6.1843,6.2592,6.2967,6.2985,6.3252,6.3234,2.5299,2.7015,2.9022,0.0,0.0,0.0,0.0,0.0,0.0,0.0,0.0,0.0,0.0,0.0,0.0,0.0,4.8559,5.0927,5.0946,5.0975,5.0975,5.0975,5.0975,5.1149,5.1585,5.1439,5.1323,5.1323,5.112,5.0917,5.0714,5.0293,5.0144,5.0242,4.9902,4.9882,5.0501,5.0662,5.0822,5.0917,5.1308,5.1665,5.1941,5.2905,5.3521,5.3884,5.4733,5.5164,5.5246,5.5344,5.5409,5.5409,5.5409,5.5409,5.5409,5.5409,5.5409,5.5409,5.5409,5.5409,5.5409,5.5409,5.5571,5.5749,5.5749,5.5911,5.6235,5.6964,5.7174,5.7336,5.815,5.8004,5.7757,5.847,5.8632,5.8826,5.9555,5.9716,5.9716,5.9716,5.9716,5.9804,6.0066,6.0532,6.1169,6.19,6.2503,6.3059,6.3526,6.36,6.36,6.36,6.3134,6.2658,6.2214,6.1704,6.1265,6.0954,6.1087,6.1163,6.1034,6.1016,6.1016,6.1016,6.1818,6.2228,6.2289,6.3288,6.377,6.377,6.4037,6.4019,2.6591,2.7244,0.0,0.0,0.0,0.0,0.0,0.0,0.0,0.0,0.0,4.2063,4.2844,0.0,0.0,4.5474,4.8566,5.0888,5.1512,5.1599,5.1599,5.1599,5.1614,5.1614,5.1599,5.1048,5.067,5.0656,5.0046,4.9393,4.8754,4.8711,4.8711,4.8711,4.8711,4.9222,5.0471,5.0486,5.0742,5.1199,5.1199,5.1214,5.1214,5.1926,5.2472,5.2742,5.3868,5.4565,5.4832,5.5246,5.5409,5.5409,5.5409,5.5409,5.5409,5.5409,5.5409,5.5409,5.5409,5.5409,5.5409,5.5409,5.5895,5.6478,5.6478,5.698,5.7709,5.8405,5.8615,5.8777,5.987,5.882,5.7773,5.847,5.8648,5.8842,5.9555,5.9716,5.9716,5.9716,5.9716,5.9804,6.0066,6.0479,6.1036,6.1837,6.2408,6.2906,6.3509,6.36,6.36,6.36,6.36,6.3435,6.3031,6.2249,6.1789,6.1687,6.157,6.1325,6.0836,6.0818,6.0818,6.0818,6.1618,6.2106,6.2307,6.3859,6.4626,6.4644,6.5429,6.5375,2.5241,2.7292,0.0,3.1362,0.0,0.0,0.0,0.0,0.0,0.0,4.4296,4.2854,4.3529,0.0,0.0,4.5285,4.7883,5.0032,5.022,5.0249,5.0249,5.0249,5.067,5.0772,5.0307,5.0511,5.0293,4.9364,4.9117,4.8725,4.8101,4.8058,4.8058,4.8058,4.8058,4.8254,4.8646,4.8914,4.9193,4.9286,4.9655,5.0331,5.1199,5.1606,5.1929,5.2296,5.3381,5.4079,5.4323,5.5134,5.5409,5.5409,5.5409,5.5409,5.5409,5.5409,5.5409,5.5409,5.5409,5.5409,5.5409,5.5409,5.5555,5.5733,5.5733,5.5879,5.6203,5.7082,5.7734,5.8304,5.9137,5.9451,5.9549,5.9605,5.9654,5.9632,5.9668,5.9716,5.9716,5.9716,5.9716,5.9716,5.9804,6.0292,6.0953,6.1676,6.2347,6.2923,6.3509,6.36,6.36,6.36,6.36,6.3363,6.2692,6.2612,6.2405,6.1824,6.2234,6.2301,6.1889,6.2248,6.2533,6.2638,6.344,6.385,6.393,6.4947,6.5447,6.5447,6.5697,6.5679,2.6736,2.8808,0.0,3.3448,3.6029,3.8691,4.1609,0.0,0.0,0.0,0.0,4.5055,4.5871,4.6799,0.0,4.6519,4.8246,4.9669,4.9669,4.9669,4.9669,4.9669,5.0032,5.0119,4.9712,4.9814,4.9567,4.8783,4.8493,4.8072,4.7433,4.7404,4.7404,4.7404,4.7404,4.7614,4.8048,4.8341,4.8617,4.88,4.9179,4.9673,5.0421,5.0712,5.0973,5.1426,5.257,5.3518,5.418,5.4762,5.5166,5.5409,5.5409,5.5409,5.5409,5.5409,5.5409,5.5426,5.5507,5.5588,5.5588,5.5588,5.5588,5.5507,5.5409,5.5409,5.5571,5.6515,5.7118,5.7722,5.864,5.9428,6.0034,5.9984,6.0066,6.0066,5.9804,5.9716,5.9716,5.9716,5.9716,5.9716,5.9804,6.0308,6.0886,6.1611,6.2442,6.2973,6.3039,6.341,6.36,6.36,6.36,6.341,6.2962,6.2868,6.2491,6.1831,6.2188,6.244,6.2551,6.287,6.3101,6.3209,6.4009,6.4419,6.45,6.5347,6.5804,6.5804,6.5804,6.5804,2.9668,0.0,0.0,3.643,3.8177,0.0,4.2655,4.6167,4.9023,4.9911,0.0,4.8021,4.8945,4.8042,4.7462,4.8624,4.9291,4.9669,4.9669,4.9669,4.9669,4.9669,4.9625,4.9596,4.9596,4.9016,4.8609,4.8551,4.8014,4.7419,4.678,4.6751,4.6751,4.6751,4.6751,4.7211,4.8242,4.8242,4.8531,4.9,4.9075,4.909,4.909,4.9403,4.9862,5.0457,5.171,5.286,5.4035,5.4212,5.4665,5.5312,5.5377,5.5393,5.541,5.5475,5.5409,5.5507,5.5782,5.5782,5.5782,5.5782,5.5782,5.5782,5.5507,5.5426,5.5555,5.645,5.6759,5.7119,5.8215,5.9004,5.9546,5.9616,5.993,6.0066,5.9804,5.9716,5.97,5.9619,5.9619,5.9691,5.987,6.0161,6.0652,6.1628,6.2608,6.2976,6.2358,6.3095,6.36,6.36,6.36,6.36,6.36,6.2979,6.2416,6.1971,6.1849,6.2177,6.3023,6.297,6.3034,6.3105,6.3831,6.4285,6.4479,6.5383,6.575,6.5697,6.5697,6.5697,0.0,3.082,0.0,0.0,4.0407,4.3657,4.5244,4.6815,4.77,4.7026,4.775,4.8646,4.9417,4.9344,4.9161,4.9422,4.9582,4.9669,4.9669,4.9669,4.9669,4.9669,4.9233,4.8928,4.8928,4.8362,4.7782,4.7274,4.7114,4.6751,4.6127,4.6084,4.6084,4.6084,4.6084,4.6247,4.6468,4.6634,4.6709,4.6903,4.7259,4.7435,4.745,4.8747,4.9936,5.0853,5.1357,5.2237,5.3515,5.3515,5.3769,5.4293,5.4848,5.5061,5.5142,5.5714,5.5846,5.5766,5.5927,5.5943,5.5863,5.6006,5.5943,5.5782,5.5702,5.5604,5.5458,5.588,5.658,5.72,5.7396,5.823,5.9151,5.9362,5.9883,6.0222,5.9804,5.9716,5.9555,5.9177,5.9166,5.9056,5.8638,5.9432,6.0587,6.2043,6.2336,6.2581,6.301,6.3348,6.36,6.36,6.36,6.36,6.36,6.3444,6.3345,6.3245,6.3427,6.3694,6.4042,6.3685,6.3935,6.493,6.4994,6.5101,6.5279,6.5439,6.5337,6.4876,6.4876,6.4876,0.0,0.0,0.0,3.8444,0.0,4.4162,4.5391,4.5931,4.6342,4.6363,4.7468,4.8581,4.8902,4.8864,4.8769,4.8769,4.8769,4.8769,4.8769,4.8769,4.8769,4.8769,4.8478,4.8275,4.8275,4.7695,4.7187,4.6853,4.6548,4.6229,4.5909,4.588,4.588,4.588,4.588,4.597,4.6046,4.6135,4.621,4.6403,4.6668,4.7004,4.7422,4.8468,4.9325,5.0081,5.0564,5.1501,5.2614,5.2754,5.3213,5.3913,5.435,5.4481,5.4579,5.53,5.542,5.531,5.5892,5.5943,5.5782,5.5943,5.5863,5.5782,5.5685,5.5507,5.5426,5.5685,5.614,5.6579,5.669,5.7489,5.8228,5.8429,5.9004,5.9643,5.9816,5.9616,5.9388,5.9356,5.9166,5.8978,5.8738,5.9202,5.9801,6.0388,6.1274,6.1964,6.2073,6.3004,6.36,6.36,6.36,6.36,6.36,6.36,6.3444,6.3082,6.3266,6.3447,6.3729,6.3433,6.3934,6.5247,6.5198,6.5198,6.5265,6.5445,6.5184,6.45,6.4545,6.4608,0.0,0.0,3.4109,4.0003,4.2202,0.0,4.4298,4.4647,4.5068,4.6243,4.7284,4.7946,4.8155,4.7969,4.7782,4.7782,4.7782,4.7782,4.7782,4.7782,4.7782,4.7782,4.768,4.7622,4.7622,4.7042,4.6664,4.6664,4.6185,4.588,4.588,4.5779,4.5706,4.5706,4.5619,4.568,4.5945,4.5843,4.6035,4.6329,4.6402,4.6849,4.7654,4.8208,4.8692,4.9159,4.9868,5.0737,5.1655,5.1932,5.2612,5.358,5.3711,5.376,5.3918,5.4755,5.4927,5.4946,5.5903,5.6086,5.5863,5.5943,5.5863,5.5782,5.5588,5.5491,5.5426,5.5685,5.5782,5.5863,5.6244,5.683,5.7324,5.7456,5.7932,5.8527,5.9553,5.932,5.8958,5.9242,5.904,5.8918,5.9184,5.91,5.9014,5.8936,6.0359,6.1323,6.1115,6.2586,6.36,6.36,6.3479,6.3444,6.3582,6.3479,6.3186,6.2703,6.2668,6.2813,6.3135,6.3135,6.3712,6.4911,6.4929,6.4997,6.4997,6.5331,6.5137,6.4372,6.4563,6.4608,0.0,0.0,3.6084,0.0,4.1544,4.2573,0.0,0.0,4.4313,0.0,4.6113,4.7129,4.7774,4.7782,4.7782,4.7782,4.7782,4.7782,4.7782,4.7782,4.7782,4.7782,4.7288,4.6954,4.6954,4.6388,4.6011,4.6011,4.5938,4.588,4.588,4.5329,4.5024,4.5024,4.4516,4.4487,4.5098,4.4589,4.4676,4.5376,4.545,4.5838,4.6478,4.7546,4.8553,4.9533,4.9836,5.02,5.0746,5.1113,5.1571,5.2138,5.2984,5.3362,5.3585,5.4787,5.5205,5.532,5.6277,5.6385,5.6086,5.6463,5.6244,5.5863,5.5927,5.575,5.5409,5.5426,5.5604,5.5782,5.5863,5.6231,5.6698,5.7341,5.7235,5.7235,5.8215,5.8378,5.8248,5.7854,5.7915,5.8207,5.8852,5.8578,5.8852,6.0765,6.0823,6.1102,6.2251,6.3107,6.36,6.36,6.3013,6.2893,6.3548,6.2996,6.2875,6.341,6.3444,6.3518,6.3754,6.3754,6.3987,6.4463,6.4637,6.4861,6.4997,6.5198,6.5007,6.4372,6.4563,6.4608,2.7968,3.1494,3.519,0.0,4.0344,4.1492,4.2335,4.3062,4.3787,4.4255,4.4835,4.5547,4.6534,4.6722,4.6722,4.6722,4.6722,4.6722,4.6722,4.6403,4.6301,4.6679,4.5851,4.5372,4.5706,4.5488,4.5184,4.485,4.5229,4.5272,4.485,4.4618,4.4545,4.4385,4.4124,4.4124,4.4385,4.4124,4.4282,4.4875,4.5272,4.5897,4.6834,4.7305,4.7964,4.8873,4.9584,5.0152,5.0509,5.0968,5.1359,5.1884,5.2505,5.2765,5.2953,5.3923,5.4154,5.4178,5.4903,5.5275,5.548,5.5401,5.56,5.5782,5.5766,5.5588,5.5409,5.5409,5.5507,5.5604,5.5782,5.5943,5.6168,5.6718,5.6694,5.6707,5.7209,5.759,5.7706,5.7538,5.7569,5.7747,5.822,5.8084,5.849,6.0111,6.0644,6.1206,6.2148,6.3045,6.36,6.36,6.3307,6.3065,6.2979,6.2668,6.2444,6.2324,6.272,6.3052,6.3124,6.3612,6.4037,6.4305,6.4428,6.4637,6.4861,6.5149,6.4941,6.4244,6.45,6.4689,0.0,0.0,3.2838,3.6383,3.8413,3.9876,0.0,0.0,4.2952,0.0,4.3802,4.4268,4.5198,4.5401,4.5401,4.5401,4.5401,4.5401,4.5401,4.498,4.485,4.5343,4.4574,4.4168,4.4618,4.4661,4.4472,4.4109,4.4661,4.4719,4.4094,4.4077,4.3974,4.3732,4.3673,4.3658,4.3732,4.3833,4.4071,4.43,4.4944,4.5783,4.6754,4.6952,4.7387,4.8074,4.9094,4.9723,5.0099,5.0634,5.1122,5.1688,5.2013,5.223,5.2473,5.3096,5.3271,5.3148,5.3797,5.4251,5.4587,5.4563,5.5002,5.5458,5.5458,5.5409,5.5409,5.5409,5.5409,5.5426,5.5685,5.5782,5.5863,5.6244,5.6385,5.6463,5.6697,5.7049,5.7288,5.7288,5.7437,5.7632,5.779,5.7955,5.8478,5.9526,6.055,6.1358,6.1995,6.2959,6.344,6.3341,6.3307,6.2996,6.2255,6.2186,6.1927,6.1341,6.1858,6.2272,6.2479,6.3176,6.3719,6.4126,6.4305,6.4498,6.4792,6.5131,6.5047,6.4528,6.4912,6.5099,0.0,2.6953,0.0,3.2824,3.5263,3.7301,0.0,0.0,4.1675,4.2222,4.3128,4.3789,4.4051,4.4095,4.4095,4.4095,4.4095,4.4095,4.4095,4.4066,4.4052,4.4081,4.4037,4.4008,4.4037,4.4037,4.4094,4.4308,4.4337,4.4337,4.4308,4.3723,4.3219,4.305,4.2636,4.2704,4.3036,4.3485,4.3589,4.3354,4.4063,4.471,4.5332,4.6135,4.6866,4.7476,4.8179,4.864,4.9013,4.985,5.0536,5.1194,5.1408,5.1868,5.2473,5.304,5.3124,5.319,5.3931,5.3924,5.3779,5.4698,5.4724,5.4664,5.549,5.5604,5.5409,5.5409,5.5409,5.5409,5.5426,5.5604,5.5863,5.6086,5.6228,5.6463,5.6697,5.6713,5.6746,5.6746,5.7309,5.779,5.779,5.8369,5.9162,6.0118,6.065,6.1329,6.2479,6.3059,6.3119,6.2617,6.2548,6.222,6.1427,6.1358,6.1341,6.1306,6.1341,6.1703,6.2461,6.253,6.3038,6.391,6.4126,6.4463,6.4997,6.5313,6.5575,6.5732,6.6048,6.6233,0.0,0.0,0.0,3.0742,3.3244,3.5136,3.6531,3.8573,4.0227,4.0319,4.0952,4.1638,4.1711,4.3029,4.4151,4.3993,4.3993,4.3993,4.3993,4.3616,4.3515,4.3935,4.3268,4.2919,4.3311,4.3355,4.3181,4.2873,4.3558,4.3686,4.3094,4.3078,4.3027,4.2796,4.2806,4.2953,4.319,4.3528,4.3648,4.3738,4.4281,4.4955,4.5843,4.588,4.6244,4.7008,4.7309,4.7886,4.8604,4.9183,4.9807,5.0513,5.0855,5.1602,5.2407,5.26,5.2682,5.2627,5.2671,5.2901,5.3236,5.3193,5.3926,5.4819,5.5001,5.5328,5.5685,5.583,5.5766,5.5685,5.583,5.5927,5.6006,5.6228,5.6463,5.6619,5.668,5.668,5.668,5.668,5.6895,5.7227,5.7707,5.8005,5.8515,5.9485,6.0444,6.1238,6.1697,6.2768,6.3176,6.2363,6.2406,6.1961,6.0703,6.0582,6.0375,5.9875,6.0306,6.072,6.0996,6.1961,6.2744,6.329,6.3973,6.4411,6.4619,6.5114,6.5462,6.5593,6.5958,6.6207,2.4438,0.0,0.0,0.0,3.0862,3.265,3.468,3.6733,3.8384,3.8891,3.9594,4.0246,4.031,4.1755,4.3094,4.323,4.3274,4.3347,4.3566,4.3025,4.285,4.3507,4.2646,4.2237,4.2865,4.2923,4.2748,4.2421,4.3034,4.3242,4.2637,4.2835,4.2915,4.2835,4.2915,4.3076,4.3329,4.3551,4.3879,4.4143,4.4587,4.5197,4.5934,4.5719,4.5971,4.6627,4.6651,4.7132,4.7946,4.8586,4.915,4.9726,5.0438,5.1207,5.1955,5.2291,5.2302,5.2158,5.1851,5.2073,5.2408,5.2275,5.3083,5.4069,5.4251,5.4596,5.5035,5.5502,5.5567,5.5553,5.5861,5.6086,5.6228,5.6385,5.6525,5.668,5.668,5.668,5.668,5.668,5.668,5.6846,5.7342,5.7624,5.8034,5.8769,5.9829,6.0688,6.0952,6.1981,6.2312,6.159,6.1872,6.1461,5.9926,6.003,5.9858,5.9064,5.9581,5.9996,6.0238,6.1551,6.2489,6.2997,6.4026,6.4481,6.4481,6.518,6.564,6.5832,6.6146,6.6409,0.0,0.0,0.0,0.0,0.0,0.0,3.363,3.5131,3.6131,3.7989,3.906,3.9797,3.995,4.0202,4.07,4.146,4.1671,4.1907,4.2541,4.2084,4.1922,4.2555,4.2084,4.1951,4.26,4.2659,4.2739,4.2981,4.2981,4.2981,4.2981,4.2996,4.2981,4.2951,4.3061,4.3155,4.3329,4.3771,4.4097,4.4358,4.4949,4.5336,4.5515,4.5735,4.5992,4.6285,4.6285,4.647,4.6845,4.8015,4.8578,4.8844,5.0138,5.0807,5.1152,5.2004,5.2142,5.1778,5.1794,5.1557,5.1297,5.1944,5.2187,5.241,5.3278,5.3445,5.3545,5.4463,5.4675,5.4838,5.5571,5.607,5.6385,5.6385,5.6541,5.668,5.668,5.668,5.668,5.668,5.668,5.668,5.668,5.7276,5.7835,5.8069,5.8859,5.9715,6.0306,6.0546,6.0583,6.0201,6.084,6.0651,5.9133,5.972,5.984,5.9064,5.9166,5.9648,6.0393,6.1397,6.2231,6.2979,6.4113,6.4706,6.4688,6.5539,6.6128,6.6512,6.6727,6.6804,2.4033,0.0,0.0,0.0,0.0,0.0,0.0,3.2507,3.4471,3.4811,3.6728,3.8193,3.7638,3.8487,3.9326,3.9578,4.0235,4.0847,4.1195,4.1062,4.1018,4.1195,4.1062,4.1195,4.1922,4.1995,4.2187,0.0,4.2915,4.2981,4.2981,4.3155,4.3105,4.2782,4.3389,4.4035,4.4632,4.4783,4.5008,4.5395,4.5687,4.592,4.592,4.6064,4.6152,4.6152,4.6388,4.6358,4.6149,4.6834,4.7967,4.9339,4.9045,5.0232,5.1955,5.1569,5.1641,5.1957,5.1647,5.1499,5.1457,5.1485,5.1907,5.253,5.2954,5.3362,5.388,5.4382,5.4448,5.4536,5.543,5.6145,5.6619,5.6619,5.6697,5.668,5.668,5.668,5.668,5.668,5.668,5.668,5.668,5.6862,5.7072,5.7287,5.821,5.906,5.9319,6.0296,6.0655,6.0078,6.0322,6.0168,5.932,5.9442,5.9544,5.9403,5.947,5.9867,6.0597,6.1465,6.23,6.3188,6.4182,6.4629,6.4445,6.5355,6.5958,6.6128,6.6608,6.6804,0.0,0.0,0.0,0.0,0.0,0.0,2.9664,3.1218,3.2625,3.4039,3.5707,3.6716,3.6543,3.7433,3.8106,3.7886,3.8634,3.9601,4.0577,4.0536,4.0462,4.0728,4.0521,4.0625,4.1258,4.1317,4.1479,4.1863,4.2036,4.2376,4.2959,4.3208,4.3456,4.3579,4.4205,4.4723,4.5173,4.5336,4.563,4.592,4.612,4.6191,4.6207,4.6262,4.6278,4.6152,4.6349,4.6262,4.6136,4.6349,4.7168,4.8318,4.8307,4.9571,5.1305,5.0961,5.1316,5.1941,5.1573,5.1424,5.135,5.135,5.1717,5.2209,5.2507,5.2786,5.3147,5.3758,5.4072,5.4326,5.4982,5.5703,5.6249,5.6249,5.6481,5.668,5.668,5.668,5.668,5.668,5.668,5.668,5.668,5.668,5.6757,5.6987,5.7716,5.8376,5.8615,5.957,6.0028,5.9702,5.9858,5.9821,5.9438,5.947,5.947,5.9603,5.9652,6.0049,6.0799,6.1652,6.2505,6.3412,6.3986,6.4389,6.4446,6.533,6.5913,6.619,6.6608,6.6804,0.0,0.0,0.0,0.0,0.0,0.0,3.0455,3.0602,3.0777,3.3981,3.4811,3.5136,3.5488,3.6228,3.6634,3.6105,3.6789,3.8048,4.0079,3.9829,3.9696,4.0271,3.9887,3.9843,4.0569,4.0687,4.0761,4.0834,4.0908,4.1575,4.2834,4.3363,4.3938,4.4688,4.5036,4.5247,4.5305,4.5646,4.5936,4.612,4.6262,4.6333,4.6333,4.6333,4.6333,4.6333,4.6223,4.6349,4.6582,4.6223,4.6342,4.6829,4.7777,4.8842,4.9908,5.0408,5.1024,5.1606,5.154,5.135,5.1258,5.1499,5.1499,5.1573,5.1957,5.1957,5.1999,5.277,5.3535,5.4187,5.432,5.4957,5.5504,5.5504,5.5984,5.6465,5.6547,5.6564,5.6597,5.6663,5.668,5.668,5.668,5.668,5.6757,5.7063,5.7364,5.7735,5.8188,5.8667,5.903,5.9234,5.947,5.9554,5.9621,5.9603,5.9603,5.9669,5.9766,6.0211,6.1033,6.1919,6.2775,6.3565,6.3749,6.4061,6.4527,6.5304,6.5967,6.6512,6.6727,6.6804,0.0,0.0,0.0,0.0,0.0,0.0,2.7491,2.8882,2.9906,2.8803,3.0778,3.2317,3.109,3.2309,3.3238,3.2634,3.4365,3.6251,3.75,3.7514,3.7485,3.7689,3.8001,3.8575,3.9358,3.9891,4.0425,4.0973,4.1724,4.2222,4.2496,4.3548,4.4096,4.4095,4.4654,4.5305,4.6088,4.592,4.5936,4.6262,4.6458,4.6528,4.6528,4.6738,4.6668,4.6528,4.6528,4.6528,4.6582,4.6223,4.6772,4.7702,4.7489,4.8246,4.9458,4.9709,5.0216,5.0741,5.1303,5.1499,5.1499,5.1721,5.1704,5.1794,5.203,5.2102,5.2119,5.2467,5.3013,5.3559,5.3632,5.4179,5.4742,5.4742,5.4841,5.5106,5.5703,5.5835,5.6001,5.6581,5.668,5.668,5.668,5.668,5.6911,5.7439,5.7588,5.7881,5.8561,5.8771,5.8909,5.9012,5.9234,5.9386,5.9621,5.97,5.9814,5.9961,6.0025,6.0376,6.12,6.2003,6.2775,6.3565,6.37,6.3948,6.4226,6.4769,6.5597,6.6512,6.6727,6.6804,0.0,0.0,0.0,2.7003,0.0,0.0,0.0,2.8009,2.8423,2.8799,2.9708,3.0236,2.9682,3.0684,3.1337,3.0684,3.273,3.4316,3.3791,3.5663,3.7082,3.7082,3.7082,3.7285,3.7665,3.8061,3.8678,3.9565,4.0276,4.1261,4.2558,4.3519,4.4299,4.495,4.5295,4.5602,4.5929,4.5539,4.5435,4.5584,4.5922,4.6083,4.6099,4.6662,4.6807,4.6738,4.6652,4.6582,4.6582,4.6223,4.6573,4.7238,4.6899,4.7626,4.8779,4.8812,4.9479,5.0424,5.0815,5.1189,5.1573,5.1868,5.1941,5.2013,5.2175,5.2247,5.2247,5.2373,5.2622,5.2904,5.2904,5.3434,5.3964,5.3964,5.4527,5.5173,5.5554,5.5901,5.6266,5.6614,5.668,5.6757,5.6834,5.6834,5.7063,5.7662,5.7865,5.8226,5.8823,5.9166,5.9351,5.9401,5.9551,5.97,5.9849,5.9896,6.0008,6.0089,6.0089,6.0458,6.1265,6.1652,6.2196,6.2986,6.3053,6.3234,6.3495,6.3921,6.4918,6.6391,6.659,6.651,0.0,0.0,0.0,0.0,0.0,2.6344,0.0,0.0,0.0,2.9381,2.9019,2.8411,2.8839,2.9464,2.9697,2.9,3.1107,3.2261,3.0571,3.374,3.627,3.6199,3.6227,3.6268,3.6254,3.6667,3.739,3.865,3.8962,4.0178,4.272,4.3521,4.4471,4.5857,4.5818,4.5738,4.5693,4.5144,4.4793,4.4798,4.5166,4.544,4.56,4.6286,4.6763,4.6876,4.6738,4.6652,4.6668,4.6294,4.6349,4.6582,4.6388,4.7039,4.8009,4.8015,4.893,5.018,5.0399,5.0953,5.1647,5.203,5.2175,5.2175,5.2373,5.2373,5.2373,5.2373,5.2373,5.2373,5.2373,5.2788,5.3218,5.3218,5.4129,5.504,5.5173,5.5653,5.615,5.6432,5.6481,5.6608,5.6954,5.7063,5.7273,5.7954,5.828,5.8632,5.9081,5.9485,5.9748,5.9748,5.9943,6.0025,6.0025,6.0089,6.0089,6.0089,6.0089,6.0388,6.1037,6.1213,6.1652,6.2371,6.2455,6.2652,6.2956,6.3253,6.4312,6.6053,6.6295,6.613,0.0,0.0,0.0,0.0,2.7436,0.0,0.0,0.0,2.6828,2.6145,0.0,0.0,0.0,0.0,0.0,0.0,0.0,0.0,2.9369,3.1175,3.2507,3.2179,3.4376,3.6011,3.6185,3.7128,3.8667,4.0944,4.0017,4.037,4.272,4.3763,4.4599,4.5126,4.4985,4.5294,4.6173,4.4957,4.4416,4.4732,4.4673,4.4889,4.5362,4.558,4.6173,4.6876,4.6876,4.6961,4.7115,4.6474,4.6388,4.6582,4.6582,4.6786,4.7156,4.7911,4.8589,4.9313,5.0324,5.1172,5.1851,5.223,5.239,5.2373,5.2373,5.2373,5.2373,5.2373,5.2373,5.2373,5.2373,5.244,5.2489,5.2489,5.2622,5.292,5.3533,5.3732,5.4179,5.5487,5.5736,5.6011,5.7097,5.7289,5.7571,5.8492,5.865,5.8875,5.947,5.9603,5.9603,5.9603,5.9766,5.9861,5.9861,6.0025,6.0089,6.0089,6.0089,6.0142,6.023,6.0914,6.1652,6.2371,6.2556,6.2817,6.32,6.3307,6.4044,6.5226,6.566,6.5854,0.0,0.0,0.0,0.0,0.0,0.0,2.6945,0.0,2.6021,0.0,0.0,0.0,0.0,0.0,0.0,0.0,2.8012,0.0,2.8352,2.9826,3.122,3.1792,0.0,0.0,3.5368,3.6732,3.8356,4.0504,4.0353,4.0876,4.262,4.3342,4.3965,4.4516,4.4272,4.4347,4.4763,4.3799,4.3365,4.3472,4.3549,4.3757,4.4262,4.5198,4.5814,4.6173,4.6714,4.6876,4.6807,4.6474,4.6388,4.6582,4.6458,4.6528,4.6839,4.7509,4.8201,4.8849,4.9883,5.0692,5.1454,5.217,5.2373,5.2373,5.2373,5.2373,5.2373,5.2373,5.2373,5.2373,5.2373,5.2373,5.2373,5.2373,5.2688,5.3069,5.3351,5.3821,5.4509,5.5572,5.5996,5.6509,5.7617,5.7662,5.7735,5.8456,5.8875,5.9166,5.9537,5.9801,5.9914,5.9914,5.9961,5.9943,5.9943,6.0025,6.0089,6.0089,6.0089,6.0089,6.0089,6.0879,6.1441,6.1757,6.1953,6.2192,6.2594,6.2838,6.3374,6.414,6.4685,6.4875,2.8082,0.0,0.0,0.0,0.0,0.0,0.0,0.0,0.0,0.0,0.0,0.0,0.0,0.0,0.0,0.0,0.0,2.8502,0.0,2.8621,0.0,0.0,0.0,0.0,0.0,3.6261,3.7748,3.9487,3.9992,4.0849,4.2232,4.2957,4.3554,4.3933,4.3763,4.3738,4.3815,4.3085,4.2733,4.2782,4.2783,4.2957,4.3297,4.4506,4.5282,4.5685,4.6306,4.656,4.6668,4.6349,4.6349,4.6474,4.6317,4.6388,4.6668,4.7251,4.7912,4.8584,4.9332,5.0225,5.1272,5.2142,5.2373,5.2373,5.2373,5.2373,5.2373,5.2373,5.2373,5.2373,5.2373,5.2373,5.2373,5.2373,5.2771,5.3135,5.3135,5.3695,5.4439,5.5172,5.5599,5.628,5.7569,5.7836,5.8044,5.8614,5.9115,5.9453,5.9652,5.9914,6.0089,6.0089,6.0089,6.0089,6.0089,6.0089,6.0089,6.0089,6.0089,6.0089,6.0089,6.0651,6.1072,6.13,6.1376,6.1654,6.226,6.2458,6.2783,6.3202,6.3912,6.4075,0.0,0.0,0.0,2.754,0.0,0.0,0.0,0.0,2.6901,0.0,0.0,0.0,0.0,0.0,0.0,0.0,0.0,0.0,0.0,0.0,0.0,0.0,0.0,0.0,0.0,3.6156,3.7116,3.8253,3.893,3.993,4.1472,4.2878,4.3541,4.3261,4.3573,4.3863,4.4189,4.3122,4.2799,4.3181,4.2783,4.2735,4.2967,4.3492,4.4544,4.5872,4.5737,4.6124,4.6823,4.6294,4.6112,4.6096,4.6246,4.6442,4.6652,4.703,4.776,4.8502,4.8756,4.9918,5.1396,5.2142,5.2373,5.2373,5.2373,5.2373,5.2373,5.2373,5.2373,5.2373,5.2373,5.2373,5.2373,5.2373,5.2407,5.2407,5.2407,5.2566,5.2907,5.364,5.4075,5.4915,5.6596,5.7729,5.8614,5.9166,5.9453,5.9652,5.9814,5.9943,6.0089,6.0089,6.0089,6.0089,6.0089,6.0089,6.0089,6.0089,6.0089,6.0089,6.0089,6.0107,6.0493,6.1283,6.1104,6.1492,6.2361,6.2257,6.2328,6.2658,6.3429,6.3795,0.0,0.0,3.3179,3.0221,0.0,0.0,0.0,0.0,0.0,0.0,0.0,0.0,0.0,0.0,0.0,0.0,0.0,0.0,0.0,0.0,0.0,0.0,0.0,0.0,0.0,3.5466,3.7279,3.8327,3.9617,4.0707,4.1638,4.2264,4.2737,4.31,4.2799,4.2896,4.3457,4.2654,4.2478,4.2783,4.2652,4.2652,4.2719,4.346,4.4074,4.4659,4.5701,4.6037,4.6023,4.6282,4.6207,4.5952,4.6317,4.6512,4.6652,4.715,4.7585,4.8148,4.934,5.04,5.1396,5.2142,5.2373,5.2373,5.2373,5.2373,5.2373,5.2373,5.2373,5.2373,5.2373,5.2373,5.2373,5.2373,5.2445,5.2499,5.2499,5.2781,5.326,5.4155,5.4549,5.5213,5.6372,5.7449,5.8324,5.9012,5.9485,5.9748,5.9796,5.9961,6.0089,6.0089,6.0089,6.0089,6.0089,6.0089,6.0089,6.0089,6.0089,6.0089,6.0089,6.0089,6.0294,6.072,6.0733,6.1063,6.1825,6.1893,6.2096,6.2467,6.2741,6.2921,3.3835,3.4616,0.0,3.2382,3.2385,0.0,2.944,0.0,0.0,0.0,0.0,0.0,0.0,0.0,0.0,0.0,0.0,0.0,0.0,2.7363,0.0,0.0,0.0,0.0,0.0,3.439,3.6082,3.7378,3.8946,4.0246,4.1187,4.1812,4.2479,4.308,4.2805,4.2743,4.2912,4.2601,4.2476,4.2585,4.2585,4.2585,4.2618,4.3214,4.3634,4.4054,4.5277,4.5797,4.5805,4.6431,4.6474,4.6207,4.6598,4.6738,4.6876,4.7354,4.7638,4.8018,4.9325,5.0121,5.0667,5.1661,5.1993,5.2042,5.2307,5.2373,5.2373,5.2373,5.2373,5.2373,5.2445,5.2445,5.2516,5.2587,5.264,5.2694,5.2694,5.3041,5.345,5.4093,5.4498,5.5069,5.599,5.6788,5.7593,5.8546,5.9311,5.9748,5.9796,5.9961,6.0089,6.0089,6.0089,6.0089,6.0089,6.0089,6.0089,6.0089,6.0089,6.0089,6.0089,6.0089,6.0294,6.0783,6.0733,6.1141,6.1879,6.1911,6.206,6.231,6.2362,6.2415]},{"header":{"parameterUnit":"m.s-1","parameterCategory":1,"la1":30.6,"la2":29.2853,"lo1":-89.7004,"lo2":-87.6739,"dy":0.0162,"dx":0.0183,"nx":112,"ny":82,"refTime":"2023-03-08T18:00:00:Z","depth":0,"parameterNumber":3,"parameterNumberName":"V-component_of_WINDS"},"data":[0.0,0.0,0.0,0.0,0.0,0.0,0.0,0.0,0.0,0.0,0.0,0.0,0.0,0.0,0.0,0.0,0.0,0.0,0.0,0.0,0.0,0.0,0.0,0.0,0.0,0.0,0.0,0.0,0.0,0.0,0.0,0.0,0.0,0.0,0.0,0.0,0.0,0.0,0.0,0.0,0.0,0.0,0.0,0.0,0.0,0.0,0.0,0.0,0.0,0.0,0.0,0.0,0.0,0.0,0.0,0.0,0.0,0.0,0.0,0.0,0.0,0.0,0.0,0.0,0.0,0.0,0.0,0.0,0.0,0.0,0.0,0.0,0.0,0.0,0.0,0.0,0.0,0.0,0.0,0.0,0.0,0.0,0.0,0.0,0.0,0.0,0.0,0.0,0.0,0.0,1.1359,1.2328,1.4107,1.5313,1.5503,1.5108,1.4077,1.2278,0.0,0.0,0.0,0.0,0.0,0.0,0.0,0.0,0.0,0.0,0.0,0.0,0.0,0.0,0.0,0.0,0.0,0.0,0.0,0.0,0.0,0.0,0.0,0.0,0.0,0.0,0.0,0.0,0.0,0.0,0.0,0.0,0.0,0.0,0.0,0.0,0.0,0.0,0.0,0.0,0.0,0.0,0.0,0.0,0.0,0.0,0.0,0.0,0.0,0.0,0.0,0.0,0.0,0.0,0.0,0.0,0.0,0.0,0.0,0.0,0.0,0.0,0.0,0.0,0.0,0.0,0.0,0.0,0.0,0.0,0.0,0.0,0.0,0.0,0.0,0.0,0.0,0.0,0.0,0.0,0.0,0.0,0.0,0.0,0.0,0.0,0.0,0.0,0.0,0.0,0.0,0.0,0.0,0.0,0.0,0.0,0.0,0.0,0.0,0.0,0.0,0.0,0.0,0.0,1.1446,1.3933,1.502,1.5493,1.5531,1.533,1.4413,1.2515,0.0,0.0,0.0,0.0,0.0,0.0,0.0,0.0,0.0,0.0,0.0,0.0,0.0,0.0,0.0,0.0,0.0,0.0,0.0,0.0,0.0,0.0,0.0,0.0,0.0,0.0,0.0,0.0,0.0,0.0,0.0,0.0,0.0,0.0,0.0,0.0,0.0,0.0,0.0,0.0,0.0,0.0,0.0,0.0,0.0,0.0,0.0,0.0,0.0,0.0,0.0,0.0,0.0,0.0,0.0,0.0,0.0,0.0,0.0,0.0,0.0,0.0,0.0,0.0,0.0,0.0,0.0,0.0,0.0,0.0,0.0,0.0,0.0,0.0,0.0,0.0,0.0,0.0,0.0,0.0,0.0,0.0,0.0,0.0,0.0,0.0,0.0,0.0,0.0,0.0,0.0,0.0,0.0,0.0,0.0,0.0,0.0,0.0,0.0,0.0,0.0,0.0,0.0,1.1657,1.2672,1.5138,1.5676,1.6012,1.6498,1.5924,1.4928,1.343,1.2598,0.0,0.0,0.0,0.0,0.0,0.0,0.0,0.0,0.0,0.0,0.0,0.0,0.0,0.0,0.0,0.0,0.0,0.0,0.0,0.0,0.0,0.0,0.0,0.0,0.0,0.0,0.0,0.0,0.0,0.0,0.0,0.0,0.0,0.0,0.0,0.0,0.0,0.0,0.0,0.0,0.0,0.0,0.0,0.0,0.0,0.0,0.0,0.0,0.0,0.0,0.0,0.0,0.0,0.0,0.0,0.0,0.0,0.0,0.0,0.0,0.0,0.0,0.0,0.0,0.0,0.0,0.0,0.0,0.0,0.0,0.0,0.0,0.0,0.0,0.0,0.0,0.0,0.0,0.0,0.0,0.0,0.0,0.0,0.0,0.0,0.0,0.0,0.0,0.0,0.0,0.0,0.0,0.0,0.0,0.0,0.0,0.0,0.0,0.0,0.0,0.0,0.0,1.314,1.4163,1.6319,1.6517,1.6866,1.741,1.6592,1.5499,1.4104,1.3101,0.0,0.0,0.0,0.0,0.0,0.0,0.0,0.0,0.0,0.0,0.0,0.0,0.0,0.0,0.0,0.0,0.0,0.0,0.0,0.0,0.0,0.0,0.0,0.0,0.0,0.0,0.0,0.0,0.0,0.0,0.0,0.0,0.0,0.0,0.0,0.0,0.0,0.0,0.0,0.0,0.0,0.0,0.0,0.0,0.0,0.0,0.0,0.0,0.0,0.0,0.0,0.0,0.0,0.0,0.0,0.0,0.0,0.0,0.0,0.0,0.0,0.0,0.0,0.0,0.0,0.0,0.0,0.0,0.0,0.0,0.0,0.0,0.0,0.0,0.0,0.0,0.0,0.0,0.0,0.0,0.0,0.0,0.0,0.0,0.0,0.0,0.0,0.0,0.0,0.0,0.0,0.0,0.0,0.0,0.0,0.0,0.0,0.0,0.0,0.0,0.0,0.0,1.4495,1.5977,1.7774,1.7909,1.7849,1.7843,1.7222,1.5958,1.4093,1.3215,0.0,0.0,0.0,0.0,0.0,0.0,0.0,0.0,0.0,0.0,0.0,0.0,0.0,0.0,0.0,0.0,0.0,0.0,0.0,0.0,0.0,0.0,0.0,0.0,0.0,0.0,0.0,0.0,0.0,0.0,0.0,0.0,0.0,0.0,0.0,0.0,0.0,0.0,0.0,0.0,0.0,0.0,0.0,0.0,0.0,0.0,0.0,0.0,0.0,0.0,0.0,0.0,0.0,0.0,0.0,0.0,0.0,0.0,0.0,0.0,0.0,0.0,0.0,0.0,0.0,0.0,0.0,0.0,0.0,0.0,0.0,0.0,0.0,0.0,0.0,0.0,0.0,0.0,0.0,0.0,0.0,0.0,0.0,0.0,0.0,0.0,0.0,0.0,0.0,0.0,0.0,0.0,0.0,0.0,0.0,0.0,0.0,0.0,0.0,0.0,0.0,0.0,1.4943,1.6367,0.0,1.8026,1.8298,1.8991,1.8143,1.6925,1.5401,0.0,0.0,0.0,0.0,0.0,0.0,0.0,0.0,0.0,0.0,0.0,0.0,0.0,0.0,0.0,0.0,0.0,0.0,0.0,0.0,0.0,0.0,0.0,0.0,0.0,0.0,0.0,0.0,0.0,0.0,0.0,0.0,0.0,0.0,0.0,0.0,0.0,0.0,0.0,0.0,0.0,0.0,0.0,0.0,0.0,0.0,0.0,0.0,0.0,0.0,0.0,0.0,0.0,0.0,0.0,0.0,0.0,0.0,0.0,0.0,0.0,0.0,0.0,0.0,0.0,0.0,0.0,0.0,0.0,0.0,0.0,0.0,0.0,0.0,0.0,0.0,0.0,0.0,0.0,0.0,0.0,0.0,0.0,0.0,0.0,0.0,0.0,0.0,0.0,0.0,0.0,0.0,0.0,0.0,0.0,0.0,0.0,0.0,0.0,0.0,0.0,0.0,1.4878,1.6078,1.7536,0.0,1.8977,1.921,2.0155,1.9166,1.7835,1.6535,0.0,0.0,0.0,0.0,0.0,0.0,0.0,0.0,0.0,0.0,0.0,0.0,0.0,0.0,0.0,0.0,0.0,0.0,0.0,0.0,0.0,0.0,0.0,0.0,0.0,0.0,0.0,0.0,0.0,0.0,0.0,0.0,0.0,0.0,0.0,0.0,0.0,0.0,0.0,0.0,0.0,0.0,0.0,0.0,0.0,0.0,0.0,0.0,0.0,0.0,0.0,0.0,0.0,0.0,0.0,0.0,0.0,0.0,0.0,0.0,0.0,0.0,0.0,0.0,0.0,0.0,0.0,0.0,0.0,0.0,0.0,0.0,0.0,0.0,0.0,0.0,0.0,0.0,0.0,0.0,0.0,0.0,0.0,0.0,0.0,0.0,0.0,0.0,0.0,0.0,0.0,0.0,0.0,0.0,0.0,0.0,0.0,0.0,0.0,0.0,0.0,0.0,1.7335,1.8318,1.9664,2.1427,2.1067,2.0831,2.1174,2.0077,1.8776,0.0,0.0,0.0,0.0,0.0,0.0,0.0,0.0,0.0,0.0,0.0,0.0,0.0,0.0,0.0,0.0,0.0,0.0,0.0,0.0,0.0,0.0,0.0,0.0,0.0,0.0,0.0,0.0,0.0,0.0,0.0,0.0,0.0,0.0,0.0,0.0,0.0,0.0,0.0,0.0,0.0,0.0,0.0,0.0,0.0,0.0,0.0,0.0,0.0,0.0,0.0,0.0,0.0,0.0,0.0,0.0,0.0,0.0,0.0,0.0,0.0,0.0,0.0,0.0,0.0,0.0,0.0,0.0,0.0,0.0,0.0,0.0,0.0,0.0,0.0,0.0,0.0,0.0,0.0,0.0,0.0,0.0,0.0,0.0,0.0,0.0,0.0,0.0,0.0,0.0,0.0,0.0,0.0,0.0,0.0,0.0,0.0,0.0,0.0,0.0,0.0,0.0,0.0,1.7007,1.8898,2.0383,2.1257,2.1163,2.141,2.2108,2.095,1.9738,1.852,0.0,0.0,0.0,0.0,0.0,0.0,0.0,0.0,0.0,0.0,0.0,0.0,0.0,0.0,0.0,0.0,0.0,0.0,0.0,0.0,0.0,0.0,0.0,0.0,0.0,0.0,0.0,0.0,0.0,0.0,0.0,0.0,0.0,0.0,0.0,0.0,0.0,0.0,0.0,0.0,0.0,0.0,0.0,0.0,0.0,0.0,0.0,0.0,0.0,0.0,0.0,0.0,0.0,0.0,0.0,0.0,0.0,0.0,0.0,0.0,0.0,0.0,0.0,0.0,0.0,0.0,0.0,0.0,0.0,0.0,0.0,0.0,0.0,0.0,0.0,0.0,0.0,0.0,0.0,0.0,0.0,0.0,0.0,0.0,0.0,0.0,0.0,0.0,0.0,0.0,0.0,0.0,0.0,0.0,0.0,0.0,0.0,0.0,0.0,0.0,0.0,0.0,1.7819,1.9804,2.1386,2.1869,2.1866,2.2101,2.2683,2.1813,2.0734,1.9645,0.0,0.0,0.0,0.0,0.0,0.0,0.0,0.0,0.0,0.0,0.0,0.0,0.0,0.0,0.0,0.0,0.0,0.0,0.0,0.0,0.0,0.0,0.0,0.0,0.0,0.0,0.0,0.0,0.0,0.0,0.0,0.0,0.0,0.0,0.0,0.0,0.0,0.0,0.0,0.0,0.0,0.0,0.0,0.0,0.0,0.0,0.0,0.0,0.0,0.0,0.0,0.0,0.0,0.0,0.0,0.0,0.0,0.0,0.0,0.0,0.0,0.0,0.0,0.0,0.0,0.0,0.0,0.0,0.0,0.0,0.0,0.0,0.0,0.0,0.0,0.0,0.0,0.0,0.0,0.0,0.0,0.0,0.0,0.0,0.0,0.0,0.0,0.0,0.0,0.0,0.0,0.0,0.0,0.0,0.0,0.0,0.0,0.0,0.0,0.0,0.0,0.0,1.9241,2.0885,2.2227,2.2942,2.3014,2.3014,2.3014,2.237,2.1655,2.0648,0.0,0.0,0.0,0.0,0.0,0.0,0.0,0.0,0.0,0.0,0.0,0.0,0.0,0.0,0.0,0.0,0.0,0.0,0.0,0.0,0.0,0.0,0.0,0.0,0.0,0.0,0.0,0.0,0.0,0.0,0.0,0.0,0.0,0.0,0.0,0.0,0.0,0.0,0.0,0.0,0.0,0.0,0.0,0.0,0.0,0.0,0.0,0.0,0.0,0.0,0.0,0.0,0.0,0.0,0.0,0.0,0.0,0.0,0.0,0.0,1.8058,0.0,0.0,0.0,0.0,0.0,0.0,0.0,0.0,0.0,0.0,0.0,0.0,0.0,0.0,0.0,0.0,0.0,0.0,0.0,0.0,0.0,0.0,0.0,0.0,0.0,0.0,0.0,0.0,0.0,0.0,0.0,0.0,0.0,0.0,0.0,0.0,0.0,0.0,0.0,0.0,0.0,1.9272,2.0885,2.2227,2.2942,2.3014,2.3014,2.3014,2.237,2.1663,2.0862,2.0114,0.0,0.0,0.0,0.0,0.0,0.0,0.0,0.0,0.0,0.0,0.0,0.0,0.0,0.0,0.0,0.0,0.0,0.0,0.0,0.0,0.0,0.0,0.0,0.0,0.0,0.0,0.0,0.0,0.0,0.0,0.0,0.0,0.0,0.0,0.0,0.0,0.0,0.0,0.0,0.0,0.0,0.0,0.0,0.0,0.0,0.0,0.0,0.0,0.0,0.0,0.0,0.0,0.0,0.0,0.0,0.0,0.0,0.0,0.0,0.0,1.8697,0.0,0.0,0.0,0.0,0.0,0.0,0.0,0.0,0.0,0.0,0.0,0.0,0.0,0.0,0.0,0.0,0.0,0.0,0.0,0.0,0.0,0.0,0.0,0.0,0.0,0.0,0.0,0.0,0.0,0.0,0.0,0.0,0.0,0.0,0.0,0.0,0.0,0.0,0.0,0.0,1.9495,2.1131,2.2418,2.2958,2.3014,2.3014,2.3014,2.2521,2.2061,2.1695,2.0694,0.0,0.0,0.0,0.0,0.0,0.0,0.0,0.0,0.0,0.0,0.0,0.0,0.0,0.0,0.0,0.0,0.0,0.0,0.0,0.0,0.0,0.0,0.0,0.0,0.0,0.0,0.0,0.0,0.0,0.0,0.0,0.0,0.0,0.0,0.0,0.0,0.0,0.0,0.0,0.0,0.0,0.0,0.0,0.0,0.0,0.0,0.0,0.0,0.0,0.0,0.0,0.0,0.0,2.2891,2.3287,2.3481,2.3764,2.4368,2.5183,2.2754,2.1199,2.0245,1.9292,0.0,0.0,0.0,0.0,0.0,0.0,0.0,0.0,0.0,0.0,0.0,0.0,0.0,0.0,0.0,0.0,0.0,0.0,0.0,0.0,0.0,0.0,0.0,0.0,1.8676,1.897,1.851,0.0,0.0,0.0,0.0,0.0,0.0,0.0,0.0,0.0,0.0,0.0,1.9916,2.1473,2.2625,2.2974,2.3014,2.3014,2.3014,2.2688,2.249,2.249,2.1338,2.0615,0.0,0.0,0.0,0.0,0.0,0.0,0.0,0.0,0.0,0.0,0.0,0.0,0.0,0.0,0.0,0.0,0.0,0.0,0.0,0.0,0.0,0.0,0.0,0.0,0.0,0.0,0.0,0.0,0.0,0.0,0.0,0.0,2.2282,2.1779,0.0,0.0,0.0,0.0,0.0,0.0,0.0,0.0,0.0,0.0,0.0,0.0,0.0,2.2972,2.3835,2.5063,2.5678,2.5689,2.699,2.7554,2.7667,2.7859,2.7757,2.7369,2.7754,0.0,2.4502,2.2978,0.0,0.0,0.0,0.0,0.0,0.0,0.0,0.0,0.0,0.0,0.0,0.0,0.0,0.0,0.0,0.0,0.0,0.0,0.0,0.0,0.0,0.0,1.9614,1.9963,2.0114,2.0329,0.0,1.9526,1.8112,1.7707,1.8128,0.0,0.0,0.0,0.0,0.0,0.0,0.0,2.0647,2.1783,2.2625,2.2974,2.3014,2.3014,2.3014,2.2688,2.249,2.249,2.2021,2.1481,2.0877,2.0384,0.0,0.0,0.0,0.0,0.0,0.0,0.0,0.0,0.0,0.0,0.0,0.0,0.0,0.0,0.0,0.0,0.0,0.0,0.0,0.0,0.0,0.0,0.0,0.0,0.0,0.0,0.0,0.0,0.0,2.1436,2.1958,2.1468,2.1398,2.1141,0.0,0.0,0.0,0.0,0.0,0.0,0.0,0.0,0.0,2.5284,2.5333,2.5942,2.7172,2.8076,2.8653,2.8925,2.9471,2.9916,3.0187,3.0294,3.0324,3.04,3.0439,2.9902,2.8689,2.5591,2.3519,2.2048,0.0,0.0,0.0,0.0,1.8994,1.8941,1.954,1.9538,1.9259,1.9185,0.0,0.0,0.0,0.0,0.0,0.0,0.0,0.0,0.0,0.0,2.0051,2.0805,2.1131,2.1354,2.1671,2.1012,2.013,0.0,1.9185,1.8796,1.7739,0.0,0.0,0.0,0.0,2.048,2.1131,2.2132,2.2847,2.2998,2.3014,2.3014,2.3014,2.2871,2.2784,2.2784,2.245,2.2116,2.1814,2.098,2.02,0.0,0.0,0.0,0.0,0.0,0.0,0.0,0.0,0.0,0.0,0.0,0.0,0.0,0.0,0.0,0.0,0.0,0.0,0.0,0.0,0.0,0.0,0.0,0.0,0.0,0.0,0.0,0.0,2.174,2.2193,2.133,2.1985,2.1985,0.0,0.0,0.0,0.0,0.0,0.0,2.4061,2.4224,2.5338,2.7643,2.8178,2.8932,3.0024,3.0635,3.1061,3.128,3.14,3.164,3.2001,3.2121,3.2317,3.2547,3.2295,3.2044,3.1516,2.8041,2.5867,2.4682,2.3564,2.2616,2.1851,2.1798,2.1528,2.1225,2.1742,2.1733,2.1325,2.1235,2.0263,1.9167,1.8831,0.0,0.0,0.0,0.0,1.8557,1.963,2.0154,2.0599,2.1393,2.1846,2.2116,2.2212,2.2013,2.1624,0.0,2.0384,1.9725,1.874,0.0,0.0,0.0,0.0,2.1219,2.1655,2.2553,2.3149,2.3149,2.3228,2.3244,2.3157,2.3149,2.3109,2.3022,2.2768,2.2625,2.2625,2.1676,2.1026,2.0956,0.0,0.0,0.0,0.0,0.0,0.0,0.0,0.0,0.0,0.0,0.0,0.0,0.0,0.0,0.0,0.0,0.0,0.0,0.0,0.0,0.0,0.0,0.0,0.0,0.0,0.0,0.0,0.0,0.0,2.2466,2.3864,0.0,0.0,0.0,0.0,2.2925,2.4224,2.5633,2.702,2.7534,2.868,3.0614,3.116,3.1444,3.152,3.2448,3.2721,3.2317,3.2743,3.2973,3.3005,3.3475,3.3442,3.306,3.3497,3.3169,3.223,3.0392,2.8646,2.6964,2.6288,2.4839,2.3309,2.4146,2.4346,2.4154,2.4885,2.5077,2.4855,2.3596,2.1476,1.9435,1.9928,1.9027,0.0,0.0,1.9519,2.0003,2.1068,2.16,2.1862,2.1926,2.2204,2.2553,2.2887,2.218,2.156,0.0,2.1854,2.16,2.0885,0.0,2.0829,2.0798,2.1147,2.1663,2.2347,2.307,2.3514,2.3514,2.3808,2.3872,2.3546,2.3514,2.3371,2.3038,2.2998,2.299,2.299,2.2617,2.1984,2.111,2.0609,0.0,0.0,0.0,0.0,0.0,0.0,0.0,0.0,0.0,0.0,0.0,0.0,0.0,0.0,0.0,0.0,0.0,0.0,0.0,0.0,0.0,0.0,0.0,0.0,0.0,0.0,0.0,0.0,2.3875,2.5393,0.0,2.4508,2.5382,2.6092,2.6234,2.7293,2.844,2.9554,2.9784,3.0482,3.1804,3.2612,3.3169,3.3486,3.4447,3.4851,3.4687,3.4851,3.4939,3.4928,3.4775,3.4611,3.4436,3.4316,3.389,3.3257,3.2626,3.1365,2.9728,2.8855,2.8157,2.7625,2.7261,2.7151,2.7178,2.7272,2.6977,2.6342,2.4867,2.3698,2.2702,2.2071,2.1374,2.0845,2.1027,2.1282,2.164,2.2021,2.2545,2.2982,2.2982,2.3244,2.353,2.3657,2.3387,2.3157,2.3276,2.2394,2.1481,2.1004,2.1671,2.2037,2.1362,2.214,2.2887,2.3133,2.3578,2.3872,2.3872,2.3975,2.3912,2.357,2.3546,2.3395,2.3038,2.3014,2.3014,2.3014,2.2895,2.2704,2.2348,2.1981,2.0646,0.0,0.0,0.0,0.0,0.0,0.0,0.0,0.0,0.0,0.0,0.0,0.0,0.0,0.0,0.0,0.0,0.0,0.0,0.0,0.0,0.0,0.0,0.0,0.0,0.0,0.0,2.6092,2.5306,2.7173,2.808,2.6966,2.8014,2.8833,2.8997,3.0199,3.1214,3.1837,3.2175,3.2732,3.3562,3.436,3.4851,3.5004,3.5812,3.6129,3.5965,3.5965,3.5965,3.5954,3.5616,3.5463,3.5452,3.5146,3.4731,3.4272,3.4272,3.3519,3.2252,3.1291,3.0904,3.0927,3.0182,2.9843,2.9799,2.9359,2.8749,2.7796,2.6564,2.5757,2.4924,2.3999,2.3311,2.2722,2.2638,2.2767,2.2871,2.2982,2.3363,2.3713,2.3713,2.3975,2.4229,2.4229,2.4229,2.4229,2.4229,2.3205,2.2251,2.2021,2.2744,2.3046,2.2116,2.2966,2.3626,2.3395,2.3872,2.4229,2.4229,2.4229,2.4094,2.3745,2.3395,2.3085,2.2855,2.2617,2.2537,2.2656,2.2545,2.249,2.249,2.2259,2.0969,1.8814,0.0,0.0,0.0,0.0,0.0,0.0,0.0,0.0,0.0,0.0,0.0,0.0,0.0,0.0,0.0,0.0,0.0,0.0,0.0,0.0,0.0,0.0,0.0,2.3973,2.5917,2.7293,2.6856,2.9292,3.0461,2.9074,3.0614,3.1531,3.1061,3.2776,3.3846,3.3868,3.4731,3.5452,3.5954,3.6446,3.6468,3.5998,3.6468,3.6479,3.6009,3.6009,3.6009,3.6009,3.5998,3.5987,3.5987,3.5976,3.5681,3.5223,3.5223,3.496,3.4447,3.3475,3.2997,3.2696,3.2685,3.2361,3.172,3.1141,3.0308,2.952,2.8846,2.7517,2.6175,2.5581,2.4564,2.3566,2.3918,2.3785,2.3649,2.3983,2.4078,2.4086,2.4086,2.4349,2.4595,2.4595,2.4595,2.4595,2.4595,2.4317,2.4078,2.4055,2.4055,2.3824,2.3149,2.3626,0.0,2.3149,2.3967,2.4587,2.4571,2.4563,2.442,2.4055,2.3077,2.249,2.249,2.1846,2.1608,2.1941,2.164,2.1465,2.1465,2.1352,2.0961,1.9879,0.0,0.0,0.0,0.0,0.0,0.0,0.0,0.0,0.0,0.0,0.0,0.0,0.0,0.0,0.0,0.0,0.0,0.0,0.0,0.0,0.0,0.0,2.6799,2.6365,2.8702,3.0526,3.0766,3.2416,3.3366,3.2973,3.341,3.3814,3.401,3.4513,3.4982,3.5343,3.5616,3.5823,3.5965,3.6446,3.6631,3.65,3.6959,3.7123,3.6992,3.6992,3.6992,3.6981,3.6642,3.65,3.6479,3.6118,3.5889,3.5758,3.5758,3.5463,3.4928,3.3757,3.3496,3.3655,3.308,3.2944,3.3077,3.2506,3.2086,3.1498,3.0599,2.9659,2.8713,2.7474,2.6415,2.5472,2.4895,2.4566,2.4317,2.4412,2.4868,2.519,2.4817,2.514,2.5213,2.4968,2.496,2.496,2.496,2.4889,2.4658,2.4142,2.4055,2.3991,2.3792,2.415,0.0,2.4174,2.4627,2.477,2.4253,2.4198,2.3951,2.3356,2.2799,2.249,2.249,2.2061,2.1862,2.1957,2.187,2.1822,2.1822,2.1357,2.0953,0.0,0.0,0.0,0.0,0.0,0.0,0.0,0.0,0.0,0.0,0.0,0.0,0.0,0.0,0.0,0.0,0.0,0.0,0.0,0.0,0.0,0.0,2.8142,2.9496,3.022,3.1433,3.2645,3.3748,3.4622,3.5212,3.5408,3.543,3.5452,3.5517,3.5889,3.6162,3.6271,3.6457,3.6555,3.6555,3.6839,3.6981,3.6981,3.7243,3.7374,3.7374,3.7374,3.7374,3.7374,3.7101,3.6981,3.697,3.6686,3.6446,3.626,3.6053,3.579,0.0,0.0,0.0,0.0,0.0,3.3626,3.3706,3.3317,3.3109,3.2843,3.1992,3.1218,3.0538,2.9231,2.8113,2.7089,2.6219,2.5716,2.5408,2.5044,2.557,2.5847,2.5234,2.5602,2.5847,2.5234,2.5234,2.5234,2.5111,2.5111,0.0,2.4571,2.4499,2.4396,2.4094,2.4476,2.4698,2.4396,2.4793,2.4952,2.4539,2.4229,2.3943,2.3689,2.2807,0.0,0.0,0.0,2.1743,2.1743,2.1743,0.0,0.0,0.0,2.149,2.1577,0.0,0.0,0.0,1.6905,1.5842,0.0,0.0,0.0,0.0,0.0,0.0,0.0,0.0,0.0,0.0,0.0,0.0,0.0,0.0,0.0,0.0,3.0965,3.2656,3.4436,3.4032,3.4174,3.5845,3.614,3.6358,3.6741,3.6773,3.6588,3.6162,3.6904,3.7199,3.6795,0.0,0.0,0.0,0.0,3.7374,3.7374,3.7374,3.7374,3.7374,3.7374,3.7374,3.7374,3.7374,3.7374,3.7374,3.7374,3.7145,3.6741,3.6304,3.6096,3.5987,3.543,3.4928,3.4524,3.4199,3.4209,3.4086,3.3851,0.0,0.0,3.309,3.2457,3.1625,3.0907,2.9676,2.8363,2.7776,2.7168,2.6449,2.5847,2.6214,2.6457,2.5357,2.5839,2.6327,2.5349,2.5357,2.5488,2.5111,2.5111,2.5111,2.5111,2.5111,2.4897,2.4269,2.4706,2.4881,2.4253,2.4722,2.5079,2.5,0.0,0.0,2.4444,2.2958,2.2299,2.2974,2.2069,2.1505,2.1505,2.1544,2.1687,2.1949,2.2037,2.237,2.2958,2.278,2.1866,2.02,1.8292,1.6933,0.0,0.0,0.0,0.0,0.0,0.0,0.0,0.0,0.0,0.0,0.0,0.0,0.0,0.0,0.0,3.0471,3.3038,3.5133,3.5916,3.629,3.6544,3.6555,3.7232,3.7571,3.7276,3.7243,3.721,3.7112,3.7276,3.7341,3.7254,3.733,3.7374,3.7374,3.7374,3.7374,3.7374,3.7374,3.7374,3.7374,0.0,0.0,3.7374,3.7374,3.7374,3.7374,3.7374,3.733,3.7243,3.7145,3.6894,3.6457,3.5561,3.4928,3.4524,3.4412,3.4412,3.4412,3.43,3.4188,3.4038,3.4279,3.3745,3.2789,3.2286,3.0918,0.0,2.8573,2.7642,2.6813,2.6449,2.67,2.6709,2.5733,2.5839,2.5953,2.5226,2.5111,2.5234,2.5103,2.5111,2.5111,2.5111,2.5111,2.5063,2.4928,2.5024,2.5063,2.4921,2.5024,2.4889,2.4317,2.4134,2.3967,2.3761,2.2911,2.2569,2.299,2.2291,2.1862,2.1862,2.2132,2.2188,2.1965,2.2521,2.2736,2.2585,2.2767,2.2093,2.0587,1.9487,1.8072,0.0,0.0,0.0,0.0,0.0,0.0,0.0,0.0,0.0,0.0,0.0,2.7876,0.0,0.0,3.27,3.4009,3.5683,3.7166,3.829,3.85,3.8133,3.7429,3.7603,3.7833,3.8084,3.7669,3.7483,3.7724,3.7516,3.7374,3.7374,3.7374,3.7374,3.7374,3.7374,3.7374,3.7374,3.7374,3.7374,3.7374,3.7374,3.7374,3.7374,3.7374,3.7374,3.7374,3.7374,3.7374,3.7374,3.7374,3.697,3.6304,3.6053,3.5506,3.484,3.4611,3.4524,3.4524,3.4524,3.4412,3.4343,3.4469,3.4054,3.3565,3.2965,3.2044,3.0937,3.0334,2.9294,2.8241,2.7624,2.7633,2.7418,2.6205,2.6319,2.6554,2.5831,2.5594,2.5594,2.5357,2.5234,2.5111,2.5111,2.5111,2.5111,2.5111,2.5111,2.5111,2.5111,2.5111,2.4976,2.4619,2.442,2.4317,2.4325,2.384,2.3459,2.3292,2.295,2.2672,2.2498,2.2656,2.2664,2.249,2.2831,2.2927,2.2752,2.2927,2.2441,2.141,2.0709,1.9435,0.0,0.0,0.0,0.0,0.0,0.0,0.0,0.0,2.7242,2.9578,3.0478,3.1365,3.3045,3.447,3.5999,3.7713,3.8436,3.914,4.0315,4.0163,3.9617,3.8587,3.8056,3.7988,3.875,3.7953,3.7625,3.8204,3.7713,3.7418,3.7516,3.7429,3.7374,3.7374,3.7374,3.7418,3.7516,3.7429,3.7429,3.7516,3.7418,3.7374,3.7374,3.7374,3.7374,3.7374,3.7374,3.7374,3.7374,3.7374,3.6926,3.6271,3.6577,3.6151,3.5299,3.4829,3.4655,3.4644,3.4556,3.4524,3.4434,3.4296,3.4274,3.3985,3.3597,3.2934,3.2214,3.1883,3.1064,3.013,2.9048,2.8864,2.8568,2.6924,2.7028,2.7271,2.6419,2.6247,2.6116,2.5912,2.5633,2.5477,2.555,2.5434,2.5394,2.5127,2.5111,2.5111,2.5111,2.5111,2.5111,2.5111,2.4857,2.477,2.4992,2.4746,2.4309,2.3681,2.3578,2.3419,2.3133,2.3054,2.3014,2.3014,2.3014,2.3014,2.3014,2.3014,2.2675,2.2108,2.1866,2.0594,2.3058,2.2955,2.4407,2.6244,2.713,2.8395,0.0,0.0,3.2117,3.3784,3.4876,3.5631,3.6273,3.7863,3.9239,3.9467,4.1028,4.1827,4.0865,4.1188,4.1173,4.0141,3.934,3.8853,3.8783,3.7953,3.7767,3.8685,3.7898,3.7571,3.7997,3.7614,3.7374,3.7374,3.7374,3.7582,3.8018,3.7593,3.7593,3.8018,3.7582,3.7374,3.7374,3.7374,3.7374,3.7374,3.7374,3.7374,3.7374,3.7374,3.7319,3.7188,3.6828,3.6358,3.5823,3.5321,3.5135,3.507,3.4666,3.4524,3.4589,3.4993,3.4636,3.4162,3.4208,3.3528,3.2631,3.2004,3.187,3.1653,3.0167,3.0102,3.0051,2.8246,2.7798,2.7561,2.7067,2.6552,2.6273,2.6934,2.6668,2.6545,2.6881,2.6677,2.6205,2.5206,2.5111,2.5111,2.5111,2.5111,2.5111,2.5111,2.5071,2.4936,2.4666,2.4603,2.4412,2.4023,2.3713,2.3522,2.3491,2.3181,2.3014,2.3014,2.3014,2.3014,2.3014,2.3014,2.2675,2.2116,2.2108,2.1189,2.6783,2.6593,2.7159,0.0,3.02,3.1485,3.3784,3.4375,3.5018,3.7165,3.8287,3.9137,3.9612,4.0806,4.1739,0.0,4.2823,4.3234,4.3008,4.2628,4.2062,4.1268,4.0575,4.0148,3.9821,3.9129,3.8697,3.8997,3.8539,3.8306,3.8341,3.8032,3.7922,3.8155,3.7922,3.7767,3.768,3.8051,3.804,3.768,3.7767,3.7658,3.7374,3.7374,3.7374,3.7374,3.7374,3.7374,3.7374,3.7374,3.7374,3.7352,3.7167,3.697,3.6653,3.5594,3.5037,3.4786,3.4589,3.4698,3.4949,3.5146,3.5163,3.5179,3.5248,3.4837,3.4434,3.4255,3.3762,3.3045,3.2116,3.1731,3.1096,2.9463,2.8924,2.8667,2.8187,2.7444,2.7177,2.7487,2.735,2.7313,2.7213,2.7108,2.6753,2.6192,2.5675,2.5342,2.5135,2.5111,2.5111,2.5111,2.5111,2.5048,2.4905,2.4889,2.4738,2.438,2.4229,2.4055,2.3848,2.3506,2.3324,2.3324,2.3117,2.3014,2.3014,2.3014,2.2901,2.2562,2.2562,2.2108,2.8499,0.0,0.0,3.1642,3.3359,3.4857,3.6069,3.6988,3.8119,3.9979,4.1023,4.1775,4.1957,4.2716,4.3496,4.3907,4.4087,4.4244,4.4457,4.3789,4.2921,4.2062,4.1586,4.1136,4.0868,4.0101,3.9515,3.9579,3.9208,3.9095,3.9108,3.8739,3.855,3.8662,3.8426,3.8204,3.7986,3.8543,3.8477,3.7778,3.7997,3.7844,3.7374,3.7374,3.7374,3.7374,3.7374,3.7374,3.7374,3.7374,3.7374,3.7374,3.7374,3.7298,3.7068,3.6009,3.5321,3.4884,3.4611,3.4829,3.5212,3.5212,3.555,3.5965,3.5965,3.5819,3.5778,3.5881,3.5328,3.4534,3.3779,3.3225,3.2564,3.1095,3.0438,3.0065,2.9574,2.8711,2.8146,2.8349,2.8353,2.8318,2.8023,2.7908,2.7603,2.7242,2.6454,2.5906,2.5453,2.5318,2.5254,2.5254,2.5167,2.5111,2.5111,2.5111,2.5,2.4746,2.4635,2.4468,2.4213,2.3777,2.3586,2.3681,2.3244,2.3062,2.3165,2.3062,2.3062,2.3165,2.3165,2.2985,0.0,0.0,3.0716,3.3463,3.6374,3.876,3.9628,4.0967,4.2058,4.2162,4.306,4.3531,4.2695,4.3523,4.43,4.4313,4.4791,4.4931,4.4407,4.4023,4.3449,4.2368,4.1922,4.1688,0.0,4.0493,4.0013,4.0899,4.0139,3.9903,4.0464,3.9822,3.9192,3.8816,3.8816,3.9034,3.9482,3.9056,3.8827,3.8783,3.8324,3.7844,3.7374,3.7374,3.7374,3.7374,3.7374,3.7374,3.7374,3.7374,3.7374,3.7374,3.7374,3.7101,3.6708,3.6664,3.6347,3.579,3.4851,3.4829,3.5212,3.5212,3.555,3.5965,3.5965,3.6058,3.6091,3.5617,3.5917,3.603,3.4949,3.4677,3.4521,3.345,3.2238,3.1258,3.1258,3.013,2.9473,3.0214,3.0114,2.9841,2.9791,2.9431,2.9026,2.8411,2.7651,2.6899,2.6199,2.5826,2.562,2.562,2.5318,2.5111,2.5111,2.5111,2.5103,2.5095,2.477,2.4579,2.4563,2.3912,2.3697,2.4031,2.3363,2.3181,2.3522,2.3181,2.3189,2.3522,2.3522,2.3705,0.0,0.0,3.5016,3.7507,3.933,4.0705,4.1582,4.2333,4.2917,4.2538,4.1944,4.1415,4.0767,4.0876,4.1383,4.2151,4.3903,4.5042,4.4931,4.4986,4.4361,4.2455,4.2404,0.0,0.0,0.0,0.0,4.107,4.1161,4.1299,4.1655,4.0954,4.0683,4.0933,4.0067,3.9622,3.9456,3.9686,3.9307,3.8346,3.7855,3.7538,3.7374,3.7374,3.7374,3.7374,3.7374,3.7374,3.7374,3.7374,3.7374,3.7374,3.7374,3.7287,3.7112,3.6806,3.6588,3.6358,3.5703,3.5583,3.5769,3.6085,3.6522,3.6904,3.6904,3.7014,3.6981,3.6829,3.6784,3.6635,3.5977,3.5913,3.5634,3.3803,3.3251,3.2952,3.1653,3.0882,3.0476,3.0728,3.0727,3.054,3.0228,3.0115,2.963,2.8484,2.7491,2.6684,2.6207,2.6041,2.5977,2.5977,2.5667,2.5461,2.5461,2.5246,2.5111,2.5111,2.5,2.4928,2.4928,2.4484,2.4285,2.4396,2.3943,2.3761,2.388,2.3761,2.3769,2.388,2.388,2.3943,0.0,3.4956,3.8233,4.065,4.1867,4.2548,4.3148,4.3329,4.3277,4.2734,4.1279,3.9886,3.8925,3.889,3.9168,3.969,4.1373,4.3005,4.3821,4.3803,4.3316,4.2554,4.2832,4.2609,0.0,0.0,0.0,4.1239,4.1971,4.2331,4.2166,4.1784,4.1571,4.1834,4.0706,4.0052,3.9859,4.0221,3.9635,3.8357,3.7876,3.7549,3.7374,3.7374,3.7374,3.7374,3.7374,3.7374,3.7374,3.7374,3.7374,3.7374,3.7374,3.7374,3.7341,3.7046,3.6839,3.662,3.614,3.6074,3.6282,3.6599,3.7003,3.7374,3.7374,3.7374,3.7374,3.7374,3.7264,3.7076,3.6993,3.6897,3.6341,3.5187,3.4704,3.4095,3.2645,3.1914,3.1537,3.1278,3.1271,3.1069,3.0632,3.05,3.016,2.9278,2.8251,2.7342,2.6605,2.6414,2.6335,2.6335,2.6025,2.5771,2.5643,2.5429,2.5246,2.5119,2.5111,2.5111,2.5111,2.477,2.4642,2.477,2.4301,2.411,2.4245,2.411,2.4118,2.4245,2.4245,2.4309,3.5116,3.8083,4.0481,4.2928,4.3976,4.4351,4.4326,4.3834,4.32,4.254,4.0746,3.8825,0.0,0.0,3.7521,3.6998,3.7924,3.9421,4.1608,4.1012,4.104,0.0,0.0,0.0,0.0,0.0,0.0,4.172,0.0,4.294,4.2121,4.2258,4.205,4.1433,4.0788,4.0528,4.0895,4.0506,3.9766,3.8827,3.8335,3.7844,3.7374,3.7374,3.7374,3.7374,3.7374,3.7374,3.7374,3.7374,3.7374,3.7374,3.7374,3.7374,3.7374,3.7374,3.7101,3.6664,3.6205,3.6326,3.6697,3.6719,3.7025,3.7374,3.7374,3.7374,3.7374,3.7374,3.7374,3.7483,3.7953,3.7512,3.7062,3.7493,3.6384,3.5047,3.4236,3.3294,3.242,3.1791,3.1626,3.1559,3.1118,3.0693,3.0418,3.0447,2.9839,2.8777,2.7493,2.6938,2.6724,2.6708,2.6382,2.6041,2.5723,2.5659,2.5492,2.5159,2.5119,2.5111,2.5111,2.4785,2.477,2.5103,2.4452,2.4269,2.4603,2.4269,2.4277,2.4611,2.4611,2.4785,3.854,4.1651,4.4369,4.5422,4.5154,4.4485,4.4061,4.3213,4.1747,3.9591,3.6949,3.4502,0.0,0.0,0.0,3.5626,3.9745,0.0,4.4483,4.4513,0.0,4.4934,0.0,4.4248,4.4284,4.4188,0.0,0.0,4.4102,4.398,4.3274,4.3549,4.3428,4.2822,4.1922,4.1678,4.2316,4.1062,3.9936,3.8827,3.8335,3.7844,3.7374,3.7374,3.7374,3.7374,3.7374,3.7374,3.7374,3.7374,3.7374,3.7374,3.7374,3.7374,3.7374,3.7374,3.7298,3.7188,3.7057,3.6872,3.6752,3.709,3.7287,3.7374,3.7374,3.7374,3.7374,3.7374,3.7374,3.7407,3.7527,3.7512,3.7358,3.6936,3.6863,3.6554,3.5902,3.4787,3.3853,3.3624,3.2663,3.1887,3.1478,3.1296,3.0934,2.986,2.9758,2.9378,2.8162,2.7645,2.7359,2.7097,2.6748,2.6501,2.6414,2.5937,2.5596,2.5508,2.5254,2.5111,2.5111,2.5024,2.5016,2.5111,2.4928,2.4889,2.4976,2.4889,2.4889,2.4976,2.4976,2.5024,4.2239,4.4696,4.6465,4.7286,4.6137,4.457,4.3257,4.1595,3.9565,3.656,3.3874,0.0,2.9634,3.1185,3.3038,0.0,0.0,0.0,4.3912,4.4375,4.4889,0.0,4.5702,0.0,4.5493,4.5396,4.5304,0.0,4.5259,4.4848,4.4252,4.4463,4.4299,4.3814,4.2799,4.2304,4.2316,4.1407,4.0151,3.8838,3.8554,3.8062,3.7374,3.7374,3.7374,3.7374,0.0,3.7374,3.7374,3.7374,3.7374,3.7374,3.7374,3.7374,3.7374,3.7374,3.7374,3.7374,3.7374,3.721,3.7036,3.7298,3.7374,3.7374,3.7374,3.7374,3.7374,3.7374,3.7374,3.7429,3.7636,3.7787,3.78,3.7609,3.771,3.7666,3.6917,3.6043,3.4945,3.3954,3.2824,3.2078,3.1996,3.1829,3.1362,3.0937,3.0494,3.0061,2.9362,2.8533,2.7825,2.7757,2.7158,2.6843,2.6684,2.6319,2.5961,2.5659,2.5453,2.527,2.5111,2.5111,2.5111,2.5111,2.5111,2.5111,2.5111,2.5111,2.5111,2.5111,2.5111,2.5111,4.5702,4.7179,4.7781,4.847,4.7029,4.4623,4.2177,3.9711,3.7012,3.3519,0.0,2.936,2.8049,2.9796,3.1602,3.2124,0.0,3.9641,4.2383,4.3075,4.4076,4.6334,4.6643,4.663,4.6695,4.663,4.6617,4.6695,4.6176,4.5526,4.5054,4.4986,4.4792,4.4299,4.3541,4.2661,4.1922,4.155,4.0579,3.8925,3.887,3.8357,3.7472,3.7407,3.7374,3.7374,3.7374,3.7374,3.7374,3.7374,3.7374,3.7374,3.7374,3.7374,3.7374,3.7374,3.7374,3.7374,3.7374,3.7374,3.7374,3.7374,3.7374,3.7374,3.7374,3.7374,3.7374,3.7374,3.7418,3.7571,3.7997,3.815,3.8324,3.8816,3.8733,3.8412,3.7805,3.7166,3.5995,3.3731,3.2856,3.2436,3.2647,3.2087,3.1817,3.2304,3.152,3.0906,3.0521,2.93,2.832,2.8271,2.76,2.7081,2.6771,2.67,2.6414,2.581,2.5731,2.5548,2.5191,2.5183,2.5159,2.5111,2.5111,2.5111,2.5111,2.5111,2.5111,2.5111,2.5111,2.5111,4.744,4.8643,4.9387,4.9139,4.7444,4.5011,4.1776,3.8807,0.0,0.0,2.8977,2.7426,2.6194,2.8014,3.0729,3.3957,3.7638,4.1442,4.5205,4.582,4.6269,0.0,4.7133,4.7029,4.7471,4.712,0.0,0.0,4.7338,4.6386,4.5042,4.5615,4.555,4.4299,4.4446,4.3689,4.2166,4.2177,4.1373,3.982,3.916,3.8532,3.7964,3.756,3.7374,3.7374,3.7374,0.0,3.7374,3.7374,3.7374,3.7374,3.7374,3.7374,3.7374,3.7374,3.7374,3.7374,3.7374,3.7374,3.7374,3.7374,3.7374,3.7374,3.7374,3.7374,3.7374,3.7374,3.7669,3.7997,3.8084,3.8401,3.8827,3.9307,3.9482,3.9507,3.9693,3.826,3.6324,3.4486,3.3826,3.332,3.2847,3.2593,3.2214,3.1363,3.1363,3.1307,3.0903,2.9624,2.8601,2.8296,2.76,2.7177,2.7113,2.6843,2.6628,2.6501,2.6223,2.5906,2.5556,2.5548,2.5405,2.5111,2.5111,2.5111,2.5111,2.5111,2.5111,2.5111,2.5111,2.5111,4.8682,4.9359,4.9525,4.9218,4.6859,4.3627,3.9797,0.0,0.0,0.0,2.6791,2.5816,2.4835,2.7181,0.0,3.2071,3.6165,4.0213,4.335,4.4826,4.5995,4.7327,4.7535,4.7652,4.7912,4.7704,4.7781,4.8172,4.7924,4.7406,4.6429,4.6377,4.5939,4.5061,4.4951,4.4199,4.2776,4.2408,4.1418,3.9803,3.9445,3.8816,3.8095,3.7866,3.7614,3.7374,3.7374,3.7374,3.7374,3.7374,3.7374,3.7374,3.7374,3.7374,3.7374,3.7374,3.7374,3.7374,3.7374,3.7374,3.7418,3.7669,3.7582,3.7374,3.7374,3.756,3.7756,3.7756,3.8106,3.8488,3.8488,3.8849,3.9264,3.9493,3.9744,3.9866,3.9703,3.865,3.7092,3.5269,3.4289,3.355,3.2811,3.2476,3.2277,3.1828,3.1907,3.1911,3.1249,3.016,2.9194,2.8824,2.7865,2.72,2.72,2.705,2.6875,2.6684,2.6517,2.6263,2.5914,2.5731,2.5556,2.5389,2.5199,2.5111,2.5111,2.5111,2.5111,2.5111,2.5111,2.5111,4.9387,4.9746,4.9572,4.9257,4.6234,4.2372,3.7964,3.4145,0.0,0.0,2.5153,2.4666,2.4279,2.6544,2.883,0.0,3.3858,3.7704,4.088,4.3075,4.5101,0.0,4.7716,0.0,4.8068,4.8068,0.0,4.8068,4.8055,4.7821,4.7573,4.6768,4.6193,4.5951,4.5208,4.4434,4.3404,4.2661,4.1463,3.9829,3.973,3.9154,3.8412,3.8204,3.7898,3.7527,3.7418,3.7374,3.7374,3.7374,3.7374,3.7374,3.7374,3.7374,3.7374,3.7374,3.7374,3.7374,3.7374,3.7374,3.744,3.7833,3.7691,3.7396,3.7505,3.78,3.8106,3.8106,3.8532,3.8991,3.8991,3.934,3.9711,3.9711,3.9995,4.0149,3.9483,3.8803,3.775,3.6083,3.4806,3.3858,3.3175,3.2648,3.2521,3.2738,3.2648,3.2311,3.1664,3.0591,2.9744,2.933,2.8039,2.72,2.72,2.72,2.7081,2.6803,2.6787,2.6628,2.6271,2.6001,2.5826,2.5747,2.5469,2.5334,2.5334,2.5254,2.5222,2.5222,2.5143,2.5111,4.9283,5.0289,5.0446,4.9361,4.646,4.267,3.8057,0.0,2.9826,2.6479,2.484,2.4253,2.5211,0.0,0.0,0.0,0.0,3.4489,4.0474,4.2396,4.4118,4.6679,0.0,0.0,4.769,4.769,4.769,4.769,4.7442,4.7324,4.7205,4.6648,4.6313,4.6313,4.5574,4.4816,4.3802,4.2799,4.1761,4.0699,4.0012,3.9504,3.9384,3.851,3.8084,3.8018,3.7571,3.7374,0.0,3.7374,3.7374,3.7374,3.7374,3.7374,3.7374,3.7374,3.7374,3.7374,3.7374,3.7374,3.7385,3.7429,3.7418,3.7461,3.7909,3.8073,3.8106,3.8106,3.8772,3.9482,3.9482,3.9842,4.0214,4.0214,4.0247,4.0149,3.9757,3.9078,3.8262,3.7163,3.6083,3.5139,3.4314,3.3863,3.3449,3.313,3.2893,3.244,3.2052,3.074,2.9713,2.9278,2.8052,2.72,2.72,2.72,2.7193,2.7153,2.7153,2.6994,2.6636,2.6597,2.643,2.6104,2.6064,2.6049,2.6049,2.5739,2.5588,2.558,2.5262,2.5111,4.7963,4.9437,4.9746,4.8826,4.5044,4.0491,3.6778,0.0,2.8147,2.5798,2.4614,2.4242,2.5023,2.5118,0.0,0.0,0.0,0.0,3.5064,3.7795,4.0507,4.374,4.5428,0.0,0.0,0.0,4.8055,4.8055,4.7455,4.7324,4.7455,4.6887,4.6554,4.6554,4.5696,4.4693,4.3529,4.2661,4.1655,4.0517,3.9905,3.9395,3.91,3.8412,3.7953,3.7658,3.7461,3.7374,0.0,3.7374,3.7374,3.7374,3.7374,3.7374,3.7374,3.7374,3.7374,3.7374,3.7374,3.7571,3.7811,3.7811,3.7811,3.7855,3.8051,3.8313,3.8608,3.8892,3.946,3.9984,3.9984,4.0137,4.0279,4.0279,4.0279,4.0149,3.9757,3.9494,3.8824,3.7348,3.6539,3.5724,3.4223,3.3955,3.3623,3.333,3.3302,3.3001,3.2185,3.1327,3.0378,2.9118,2.8069,2.7459,2.72,2.72,2.72,2.72,2.72,2.7145,2.7002,2.6787,2.6605,2.647,2.6255,2.6144,2.6144,2.6009,2.5834,2.5635,2.5492,2.531,4.5859,4.7769,4.856,4.7808,4.3555,3.883,0.0,0.0,2.7092,2.5537,2.4635,2.4282,2.4857,2.5022,0.0,0.0,0.0,2.9052,3.1641,3.4405,3.7456,4.0749,0.0,4.4657,4.6708,4.756,4.8068,4.8185,4.769,4.7442,4.7821,4.7362,4.7032,4.6806,4.5939,4.4743,4.3056,4.2567,4.1568,4.0061,3.9711,3.9373,3.9034,3.8543,3.8051,3.7582,3.744,3.7374,0.0,3.7374,3.7374,3.7374,3.7374,3.7374,3.7374,3.7374,3.7374,3.7396,3.7549,3.7822,3.8128,3.827,3.8226,3.8139,3.8281,3.8565,3.8903,3.9242,3.9799,4.0279,4.0279,4.0279,4.0279,4.0279,4.0279,4.0279,3.9888,3.9757,3.922,3.7883,3.7069,3.6112,3.4637,3.4094,3.3817,3.3548,3.3539,3.33,3.2597,3.1911,3.1038,2.9572,2.8626,2.7838,2.7208,2.72,2.72,2.72,2.72,2.72,2.72,2.6962,2.6827,2.6827,2.6589,2.6462,2.6462,2.635,2.6176,2.5937,2.5834,2.5596,4.2866,4.5363,4.6848,4.6643,4.2579,3.8122,0.0,0.0,2.721,2.6046,2.4909,2.4282,2.4857,2.5022,2.5279,2.6246,0.0,0.0,3.1901,3.3528,3.5495,0.0,0.0,4.0788,4.365,4.626,4.7821,4.8185,4.7938,0.0,4.8185,4.7821,4.7468,4.6806,4.6193,4.4805,4.2673,4.2303,4.1308,3.9558,3.9548,3.9548,3.9526,3.9045,3.8565,3.8073,3.7593,3.7374,0.0,3.7374,3.7374,3.7374,3.7374,3.7374,3.7374,3.7374,3.7374,3.7451,3.7931,3.8106,3.8182,3.8674,3.8499,3.8204,3.8685,3.8827,3.8838,3.8849,3.9537,4.0279,4.0279,4.0279,4.0279,4.0279,4.0279,4.0279,4.0279,4.0018,3.9483,3.8814,3.7883,3.6819,3.5606,3.4931,3.4232,3.3817,3.3548,3.3269,3.3269,3.2356,3.1408,3.1007,2.9691,2.839,2.7232,2.72,2.72,2.72,2.72,2.72,2.72,2.72,2.72,2.72,2.7193,2.7193,2.7193,2.6843,2.6668,2.6652,2.6303,2.5953,3.7091,3.932,4.0637,4.0148,3.7273,3.4097,3.2202,2.8961,2.6033,2.4883,2.4374,2.4282,2.4857,2.5022,2.5471,2.6948,2.7339,0.0,0.0,0.0,0.0,3.841,4.2709,4.582,0.0,0.0,4.7821,4.8185,4.7938,4.7821,4.8185,4.7938,4.7287,4.6576,4.6232,4.5182,4.3274,4.3015,4.2316,4.1046,4.0351,3.9765,3.9423,3.8678,3.8073,3.7603,3.744,3.7374,3.7374,3.7374,3.7374,3.7374,3.7374,3.7374,3.7374,3.7374,3.7374,3.7396,3.756,3.7833,3.8084,3.7898,3.8182,3.851,3.7997,3.8302,3.8969,3.9635,4.0039,4.0279,4.0279,4.0279,4.0279,4.0279,4.0279,4.0279,4.0279,4.0149,3.9877,3.8946,3.8262,3.7327,3.6016,3.5196,3.4646,3.4232,3.3955,3.3539,3.3269,3.3022,3.2373,3.1563,3.0583,2.9468,2.8071,2.7467,2.72,2.72,2.72,2.72,2.72,2.72,2.72,2.72,2.72,2.72,2.72,2.7089,2.6914,2.6668,2.6311,2.6088,0.0,3.5018,3.6311,3.6123,3.3862,0.0,0.0,2.7575,2.5301,2.4583,2.4439,2.4478,2.4622,2.5171,2.589,2.6609,2.717,2.8095,0.0,0.0,0.0,3.8697,0.0,0.0,0.0,4.7416,4.7938,4.8185,4.8055,4.7938,4.8185,4.8055,4.7457,4.6669,4.6501,4.5544,4.3748,4.3227,4.252,4.1395,4.034,3.9688,3.9203,3.8645,3.8018,3.7374,3.7374,3.7374,0.0,3.7374,3.7374,3.7374,3.7374,3.7374,3.7374,3.7374,3.7374,3.7407,3.7593,3.7855,3.8084,3.7964,3.8335,3.8717,3.8117,3.8357,3.9001,3.9788,4.0006,4.005,4.0225,4.0137,4.005,4.0236,4.0279,4.0279,4.0279,4.0279,4.0007,3.922,3.8528,3.7719,3.6549,3.5597,3.4784,3.4508,3.4094,3.3678,3.3548,3.3409,3.2977,3.2298,3.1141,3.0052,2.8943,2.7927,2.7343,2.7208,2.72,2.72,2.72,2.72,2.72,2.72,2.72,2.72,2.72,2.72,2.7089,2.6867,2.6644,2.647,0.0,0.0,0.0,0.0,0.0,0.0,0.0,0.0,0.0,2.4909,2.4909,2.4766,2.4269,2.5511,2.64,2.5741,2.6726,2.8538,0.0,3.3154,0.0,0.0,4.2409,0.0,4.3951,4.6512,4.8185,4.8185,4.8185,4.8185,4.8185,4.8185,4.7834,4.6966,4.6882,4.6024,4.423,4.3298,4.2102,4.0736,4.0113,3.9456,3.8838,3.8838,3.8302,0.0,3.7374,3.7374,3.7374,3.7374,3.7374,3.7374,3.7374,3.7374,3.7374,3.7374,3.7374,3.744,3.7898,3.8051,3.8139,3.8619,3.8761,3.8739,3.8772,3.8805,3.8936,3.9416,3.9526,3.9613,4.0105,3.9886,3.9679,4.0159,4.0279,4.0279,4.0279,4.0279,4.0149,3.9757,3.8803,3.7852,3.7213,3.586,3.4774,3.4508,3.4094,3.3817,3.3817,3.3539,3.3264,3.3303,3.1574,3.0437,3.0001,2.8562,2.7582,2.7224,2.72,2.72,2.72,2.72,2.72,2.72,2.72,2.72,2.72,2.72,2.72,2.72,2.72,2.7026,0.0,0.0,0.0,0.0,2.7013,2.6687,0.0,0.0,0.0,0.0,0.0,2.4413,2.4713,2.5458,2.6269,2.6935,2.7652,2.9183,3.2006,3.692,0.0,4.2056,4.5153,4.6473,4.4696,4.6748,4.8185,4.8185,4.8185,4.8185,4.8185,4.8185,4.8003,4.7509,4.7272,4.6476,4.5235,4.4524,4.3736,4.2637,4.1752,4.0539,3.9214,3.8963,3.8302,3.7374,3.7374,3.7374,3.7374,3.7374,3.7374,3.7374,3.7374,3.7374,3.7374,3.7374,3.7374,3.7396,3.7516,3.7549,3.7625,3.8117,3.8029,3.7789,3.8171,3.8543,3.8936,3.9416,3.9285,3.9111,3.9591,3.9635,3.9679,4.0159,4.0279,4.0279,4.0279,4.0279,4.0149,3.9483,3.866,3.7852,3.7213,3.586,3.4921,3.4774,3.4223,3.3817,3.3817,3.3678,3.3641,3.3688,3.1999,3.0909,3.0729,2.884,2.7582,2.7224,2.72,2.72,2.72,2.7459,2.7451,2.7208,2.72,2.72,2.72,2.72,2.72,2.72,2.72,2.7161,2.3493,2.436,2.4962,2.4661,2.4818,2.4962,0.0,0.0,0.0,0.0,0.0,2.4909,2.4962,2.6308,2.7353,2.7157,2.8726,3.0989,0.0,0.0,4.169,4.3479,4.5343,4.6525,0.0,4.744,4.8185,4.8185,4.8185,4.8185,4.8185,4.8185,4.8068,4.7938,4.7455,4.6722,4.5874,4.49,4.3938,4.295,4.1707,4.0444,3.9328,3.8963,3.8423,3.7713,3.7713,3.7582,3.7374,3.7374,3.7374,3.7374,3.7374,3.7374,3.7374,3.7374,3.7374,3.7374,3.7374,3.7374,3.7418,3.7691,3.7745,3.7767,3.8029,3.8292,3.8554,3.8816,3.8707,3.8619,3.91,3.922,3.934,3.9831,4.0115,4.0279,4.0279,4.0279,4.0149,3.9746,3.8935,3.8262,3.7595,3.6258,3.5059,3.4921,3.4223,3.3817,3.3817,3.3817,3.3817,3.3817,3.2467,3.1323,3.0866,2.9257,2.7916,2.7455,2.7296,2.72,2.72,2.7326,2.7326,2.72,2.72,2.72,2.72,2.72,2.72,2.72,2.72,2.72,2.3289,2.3923,2.438,2.4178,2.4112,2.4112,2.4112,0.0,0.0,0.0,0.0,0.0,0.0,2.7366,0.0,0.0,0.0,0.0,3.6793,3.9164,4.1406,4.3838,4.4835,0.0,4.7506,4.7976,4.8146,4.8068,4.8133,4.8146,4.8068,4.8133,4.8185,4.8185,4.7573,4.6942,4.6308,4.4836,4.359,4.2654,4.1096,3.9994,3.9206,3.8843,3.8455,3.7997,0.0,0.0,3.7374,3.7374,3.7374,3.7374,3.7374,3.7374,3.7374,3.7374,3.7374,3.7374,3.7374,3.7374,3.7374,3.7374,3.7658,3.7997,3.7997,3.7997,3.7997,3.7997,3.7997,3.8106,3.8597,3.8717,3.887,3.9416,3.9864,4.0181,4.0257,4.0279,4.0279,4.0279,3.9341,3.8538,3.8119,3.6664,3.5343,3.4921,3.4223,3.3817,3.3817,3.3817,3.3817,3.3817,3.2753,3.1691,3.066,2.9496,2.8603,2.7733,2.7399,2.72,2.7334,2.72,2.72,2.7334,2.72,2.72,2.72,2.72,2.72,2.72,2.72,2.72,2.4282,2.5335,2.5664,2.4419,2.4112,2.4112,2.4112,0.0,0.0,0.0,0.0,0.0,0.0,2.7497,2.819,0.0,0.0,3.6488,0.0,0.0,4.4343,4.3297,0.0,4.7022,4.5415,4.7035,4.7989,4.7506,4.7911,4.7976,4.7492,4.7924,4.8055,4.7821,4.769,4.7118,4.594,4.5273,4.4154,4.2724,4.1532,4.0304,3.9065,3.8462,3.7953,3.7494,0.0,3.7451,3.7374,3.7374,3.7374,3.7374,3.7374,3.7374,3.7374,3.7374,3.7374,3.7374,3.7374,3.7374,3.7374,3.7374,3.7429,3.7494,3.7494,3.7494,3.7494,3.7494,3.7494,3.7603,3.8095,3.8215,3.8444,3.934,3.9613,3.9777,4.0192,4.0279,4.0149,3.9888,3.922,3.8416,3.7739,3.6413,3.5343,3.4921,3.4223,3.3817,3.3817,3.3817,3.3817,3.3817,3.2762,3.1806,3.1038,2.9872,2.8865,2.7749,2.7399,2.7326,2.7576,2.7326,2.7326,2.7576,2.7326,2.72,2.72,2.72,2.72,2.72,2.72,2.72,2.3367,2.4354,2.513,2.526,2.5999,2.6674,2.6491,0.0,0.0,0.0,0.0,0.0,0.0,0.0,3.1279,3.486,0.0,3.8132,4.0395,4.1915,4.2879,0.0,0.0,4.5715,4.6512,4.7283,4.7741,4.7793,4.8028,4.8068,4.7806,4.7754,4.7599,4.7237,4.6824,4.6052,4.5043,4.4568,4.385,4.2761,4.1649,4.0583,3.9549,3.8953,3.8353,3.7767,0.0,3.7625,3.7374,3.7374,3.7374,3.7374,3.7374,3.7374,3.7374,3.7374,3.7374,3.7374,3.7374,3.7374,3.7374,3.7374,3.7374,3.7374,3.7374,3.7374,3.7374,3.7374,3.7374,3.7429,3.7658,3.7909,3.8281,3.8991,3.9362,3.9679,4.017,4.0279,4.0279,4.0018,3.9615,3.9078,3.8283,3.6934,3.586,3.5333,3.437,3.3817,3.3817,3.3817,3.3817,3.3817,3.3184,3.2301,3.1379,3.0335,2.9108,2.7741,2.7399,2.7334,2.7459,2.7334,2.7334,2.7459,2.7334,2.72,2.72,2.72,2.72,2.72,2.72,2.72,2.2701,2.3597,2.4736,2.6039,0.0,2.7971,2.8604,0.0,0.0,0.0,0.0,0.0,0.0,3.1111,0.0,3.889,3.9453,3.9946,4.2047,4.2149,4.2593,4.4271,4.4314,4.5271,4.7924,4.7662,4.7466,4.7767,4.778,4.7728,4.7597,4.7296,4.7012,4.677,4.6127,4.541,4.4382,4.4143,4.3613,4.2791,4.1686,4.0877,4.0206,3.9379,3.8785,3.8298,3.8054,3.7724,3.7374,3.7374,3.7374,3.7374,3.7374,3.7374,3.7374,3.7374,3.7374,3.7374,3.7374,3.7374,3.7374,3.7374,3.7451,3.7549,3.7549,3.7625,3.7724,3.7724,3.7724,3.7669,3.744,3.7658,3.8084,3.8685,3.9111,3.9548,4.0148,4.0279,4.0279,4.0279,4.0018,3.9494,3.8814,3.7595,3.6393,3.5616,3.4646,3.3955,3.3807,3.3817,3.3817,3.3817,3.3541,3.2784,3.1546,3.0399,2.906,2.7733,2.7399,2.72,2.72,2.72,2.72,2.72,2.72,2.72,2.72,2.7288,2.7328,2.7328,2.7407,2.7399,2.355,2.465,2.5612,2.6453,0.0,0.0,2.8931,2.947,0.0,0.0,0.0,0.0,0.0,3.2891,3.5286,3.8331,4.0566,4.2905,4.5715,0.0,4.6904,4.7074,4.7519,4.7911,4.8159,4.7662,4.7127,4.6643,4.6604,4.6369,4.5846,4.6277,4.6538,4.6538,4.6499,4.5849,4.4694,4.4694,4.3977,4.2462,4.1846,4.139,4.0966,3.9437,3.8857,3.8738,3.7791,3.7407,3.7374,3.7374,3.7374,3.7374,3.7374,3.7374,3.7374,3.7374,3.7374,3.7374,3.7374,3.7374,3.7374,3.7374,3.768,3.8051,3.8051,3.8368,3.8728,3.8728,3.8728,3.8521,3.7614,3.7407,3.7669,3.8608,3.8859,3.9143,4.0083,4.0279,4.0279,4.0279,4.0018,3.9494,3.8814,3.775,3.6674,3.5616,3.4784,3.4232,3.3817,3.3817,3.3817,3.3817,3.3789,3.3044,3.1245,2.9732,2.8664,2.7725,2.7399,2.72,2.72,2.72,2.72,2.72,2.72,2.72,2.72,2.7534,2.7693,2.7701,2.8011,2.7987,2.2779,2.4235,2.5742,2.6791,0.0,0.0,0.0,0.0,0.0,0.0,0.0,0.0,0.0,0.0,3.8233,3.931,4.2112,4.4466,4.5794,4.6133,4.6277,4.6277,4.646,4.6734,4.7087,4.6931,4.6708,4.6499,4.6473,4.6382,4.6173,4.6029,4.5826,4.5714,4.5363,4.4856,4.4207,4.3946,4.3609,4.306,4.24,4.1948,4.1378,3.9966,3.9144,3.88,3.7856,3.7374,3.7374,3.7374,3.7374,3.7374,3.7374,3.7374,3.7374,3.7374,3.7374,3.7374,3.7374,3.7374,3.7374,3.7374,3.7505,3.7658,3.7658,3.7778,3.7997,3.8302,3.8379,3.8368,3.8302,3.8281,3.8444,3.9122,3.9274,3.946,4.0137,4.0279,4.0279,4.0279,4.0149,3.9877,3.9352,3.8406,3.7327,3.6258,3.5323,3.4508,3.3817,3.3817,3.3817,3.3817,3.3596,3.2865,3.1489,3.0298,2.9102,2.8085,2.7539,2.72,2.72,2.72,2.72,2.72,2.7415,2.7534,2.7534,2.7868,2.8035,2.8043,2.8162,2.8154,2.2779,2.4112,2.5676,0.0,0.0,0.0,0.0,0.0,0.0,0.0,0.0,0.0,0.0,0.0,0.0,0.0,4.315,4.5454,4.5872,4.5898,4.5898,4.5898,4.5898,4.6055,4.6447,4.6316,4.6212,4.6212,4.6029,4.5846,4.5663,4.5284,4.4952,4.4843,4.4344,4.4131,4.3899,4.3653,4.3406,4.3295,4.2862,4.24,4.2061,4.0779,3.9966,3.9509,3.8324,3.7736,3.7616,3.7506,3.7374,3.7374,3.7374,3.7374,3.7374,3.7374,3.7374,3.7374,3.7374,3.7374,3.7374,3.7374,3.7483,3.7603,3.7603,3.7713,3.7931,3.8423,3.8565,3.8674,3.9038,3.8941,3.8958,3.9438,3.9548,3.9679,4.017,4.0279,4.0279,4.0279,4.0279,4.0149,3.9757,3.8935,3.7852,3.6644,3.5724,3.4774,3.3955,3.3817,3.3817,3.3817,3.3569,3.2966,3.1871,3.0933,2.9881,2.8585,2.8161,2.7713,2.7334,2.7326,2.7326,2.7326,2.7685,2.7869,2.7733,2.8178,2.8392,2.8392,2.8511,2.8503,2.3942,2.453,0.0,0.0,0.0,0.0,0.0,0.0,0.0,0.0,0.0,3.6726,3.8408,0.0,0.0,4.0945,4.3729,4.582,4.6382,4.646,4.646,4.646,4.6473,4.6473,4.646,4.5963,4.5624,4.5611,4.5062,4.4474,4.3899,4.3859,4.3859,4.3859,4.3859,4.3932,4.3874,4.3887,4.353,4.2961,4.2961,4.2974,4.2974,4.2049,4.1366,4.1021,3.9498,3.8563,3.8216,3.7616,3.7374,3.7374,3.7374,3.7374,3.7374,3.7374,3.7374,3.7374,3.7374,3.7374,3.7374,3.7374,3.7702,3.8095,3.8095,3.8434,3.8925,3.9395,3.9537,3.9646,3.9627,3.9302,3.8969,3.9438,3.9558,3.9689,4.017,4.0279,4.0279,4.0279,4.0279,4.0149,3.9757,3.9088,3.814,3.6789,3.585,3.5049,3.3946,3.3817,3.3817,3.3817,3.3817,3.3375,3.2289,3.1889,3.0807,2.9093,2.9203,2.876,2.7724,2.7716,2.7716,2.7716,2.8081,2.814,2.7741,2.8432,2.8773,2.8781,2.9131,2.9107,2.2727,2.4359,0.0,2.7747,0.0,0.0,0.0,0.0,0.0,0.0,3.9362,3.8249,3.9194,0.0,0.0,4.0775,4.3114,4.5049,4.5218,4.5245,4.5245,4.5245,4.5624,4.5715,4.5297,4.548,4.5284,4.4447,4.4225,4.3872,4.331,4.3271,4.3271,4.3271,4.3271,4.3258,4.3228,4.2896,4.2575,4.2468,4.2036,4.2233,4.2961,4.1418,4.0571,4.0128,3.8606,3.7691,3.751,3.7363,3.7374,3.7374,3.7374,3.7374,3.7374,3.7374,3.7374,3.7374,3.7374,3.7374,3.7374,3.7374,3.7472,3.7593,3.7593,3.7691,3.7909,3.8141,3.8395,3.8774,3.9142,3.9163,3.9228,3.9639,3.9671,3.9845,4.0247,4.0279,4.0279,4.0279,4.0279,4.0279,4.0149,3.9341,3.8273,3.7059,3.5996,3.5059,3.3946,3.3817,3.3817,3.3817,3.3817,3.3513,3.2984,3.242,3.1625,3.0824,2.9851,2.8886,2.7717,2.8204,2.8333,2.8052,2.8411,2.8595,2.8464,2.8916,2.9139,2.9139,2.925,2.9242,2.4073,2.5712,0.0,2.9723,3.1876,3.4231,3.6651,0.0,0.0,0.0,0.0,4.0037,4.0941,4.1954,0.0,4.1886,4.3441,4.4722,4.4722,4.4722,4.4722,4.4722,4.5049,4.5127,4.4761,4.4853,4.463,4.3925,4.3663,4.3284,4.2709,4.2683,4.2683,4.2683,4.2683,4.2684,4.2696,4.2394,4.2076,4.1864,4.1449,4.1681,4.2308,4.1066,4.0364,3.9818,3.8194,3.73,3.7063,3.7111,3.721,3.7374,3.7374,3.7374,3.7374,3.7374,3.7374,3.7385,3.7264,3.7143,3.7143,3.7143,3.7143,3.7264,3.7374,3.7374,3.7483,3.7584,3.7805,3.8025,3.8263,3.8593,3.8986,3.9703,3.9757,3.9757,4.0149,4.0279,4.0279,4.0279,4.0279,4.0279,4.0149,3.9352,3.8416,3.7203,3.587,3.4727,3.3872,3.3716,3.3817,3.3817,3.3817,3.3716,3.3477,3.2901,3.2357,3.1675,3.0837,2.9783,2.8341,2.8817,2.8923,2.864,2.9002,2.9188,2.9055,2.9266,2.9298,2.9298,2.9298,2.9298,2.6713,0.0,0.0,3.2658,3.4074,0.0,3.8238,4.031,4.2055,4.3387,0.0,4.1929,4.3303,4.2879,4.2735,4.3781,4.4382,4.4722,4.4722,4.4722,4.4722,4.4722,4.4683,4.4657,4.4657,4.4134,4.3768,4.3716,4.3232,4.2696,4.2121,4.2095,4.2095,4.2095,4.2095,4.2138,4.2121,4.2121,4.1817,4.1298,4.1178,4.1191,4.1191,4.0906,4.0377,3.9599,3.7915,3.7185,3.6964,3.6739,3.6872,3.7133,3.7177,3.7188,3.7199,3.7242,3.7374,3.7264,3.6921,3.6921,3.6921,3.6921,3.6921,3.6921,3.7264,3.7385,3.7472,3.7541,3.7568,3.7449,3.7266,3.759,3.8301,3.9834,3.9855,3.9757,4.0149,4.0279,4.0268,4.0214,4.0214,4.0073,3.9627,3.9256,3.8639,3.7213,3.5422,3.4193,3.3858,3.3725,3.3817,3.3817,3.3817,3.3817,3.3817,3.3486,3.2838,3.1917,3.2025,3.134,2.9556,2.9531,2.9393,2.9426,2.9765,2.9806,2.9385,2.9282,2.9274,2.925,2.925,2.925,0.0,2.7387,0.0,0.0,3.5592,3.8286,4.0029,4.0875,4.1465,4.1788,4.2619,4.361,4.4301,4.4235,4.4264,4.45,4.4643,4.4722,4.4722,4.4722,4.4722,4.4722,4.433,4.4055,4.4055,4.3546,4.3023,4.2565,4.2422,4.2095,4.1533,4.1494,4.1494,4.1494,4.1494,4.1458,4.1474,4.1258,4.1144,4.0952,4.0541,4.0335,4.0347,3.9828,3.8839,3.7629,3.6972,3.6577,3.6096,3.6096,3.5928,3.5596,3.596,3.6099,3.6153,3.6528,3.6789,3.6911,3.6667,3.6678,3.68,3.6545,3.6678,3.6921,3.7043,3.7154,3.7407,3.7162,3.7095,3.7146,3.7095,3.7097,3.7322,3.855,3.9074,3.9483,4.0149,4.0279,4.017,3.9541,3.9347,3.9088,3.8445,3.8045,3.7493,3.6364,3.491,3.3979,3.4212,3.4038,3.3817,3.3817,3.3817,3.3817,3.3817,3.3734,3.3504,3.3275,3.2842,3.2279,3.1582,3.089,3.0324,2.9761,3.0135,3.0184,2.9749,2.9822,2.9432,2.8885,2.8885,2.8885,0.0,0.0,0.0,3.3714,0.0,3.9071,4.0335,4.0815,4.1,4.1563,4.2554,4.336,4.3646,4.3805,4.3912,4.3912,4.3912,4.3912,4.3912,4.3912,4.3912,4.3912,4.365,4.3467,4.3467,4.2944,4.2487,4.2186,4.1912,4.1625,4.1337,4.1311,4.1311,4.1311,4.1311,4.1211,4.1097,4.0997,4.0883,4.0694,4.0389,3.9968,3.944,3.89,3.8192,3.7228,3.6569,3.6061,3.5824,3.5583,3.5388,3.5179,3.5295,3.538,3.5444,3.5912,3.6335,3.6609,3.647,3.6678,3.6921,3.6678,3.68,3.6921,3.7032,3.7264,3.7385,3.7032,3.6982,3.6918,3.6639,3.6624,3.6917,3.7403,3.7953,3.8548,3.9779,3.9834,3.9682,3.966,3.9347,3.8852,3.8327,3.7534,3.6646,3.5749,3.4844,3.4171,3.4054,3.3853,3.3817,3.3817,3.3817,3.3817,3.3817,3.3817,3.3734,3.3541,3.311,3.2677,3.2122,3.1799,3.1183,3.0425,3.0576,3.0576,3.0433,2.9997,2.9534,2.9055,2.8906,2.8765,0.0,0.0,2.9651,3.4928,3.7337,0.0,3.9886,4.02,4.0579,4.1638,4.2203,4.2605,4.2604,4.2814,4.3023,4.3023,4.3023,4.3023,4.3023,4.3023,4.3023,4.3023,4.2931,4.2879,4.2879,4.2356,4.2017,4.2017,4.1585,4.1311,4.1311,4.1219,4.1154,4.1154,4.1076,4.095,4.0828,4.0737,4.055,4.0451,4.0159,3.9486,3.8417,3.8004,3.7701,3.7382,3.6398,3.5857,3.5668,3.5194,3.4988,3.4795,3.488,3.4912,3.4848,3.5388,3.584,3.6024,3.6131,3.6423,3.68,3.6678,3.68,3.6921,3.7143,3.7253,3.7385,3.7032,3.6921,3.68,3.6178,3.6205,3.6519,3.6603,3.6729,3.7466,3.9044,3.9078,3.9024,3.9584,3.9077,3.8445,3.8251,3.7109,3.5987,3.5588,3.5024,3.4519,3.4051,3.3805,3.3817,3.3817,3.3752,3.3734,3.3807,3.3752,3.3596,3.334,3.3321,3.3048,3.2343,3.2343,3.1939,3.1135,3.1143,3.1002,3.1002,3.0291,2.9685,2.9336,2.8914,2.8765,0.0,0.0,3.1784,0.0,3.6755,3.7831,0.0,0.0,3.9899,0.0,4.152,4.2435,4.2827,4.3023,4.3023,4.3023,4.3023,4.3023,4.3023,4.3023,4.3023,4.3023,4.2579,4.2278,4.2278,4.1768,4.1428,4.1428,4.1363,4.1311,4.1311,4.0814,4.054,4.054,4.0082,4.0056,4.0428,3.9972,3.9875,4.0145,3.899,3.7954,3.7136,3.698,3.692,3.682,3.6375,3.5972,3.5368,3.4801,3.4296,3.3859,3.3917,3.3832,3.3809,3.4903,3.5339,3.5412,3.5508,3.5921,3.6423,3.5798,3.6178,3.68,3.6667,3.69,3.7374,3.7385,3.7154,3.6921,3.68,3.6343,3.6121,3.653,3.6113,3.6113,3.7806,3.8093,3.7827,3.7213,3.6719,3.6549,3.6954,3.6249,3.6065,3.7055,3.5471,3.4394,3.522,3.4443,3.3817,3.3817,3.3505,3.3441,3.3789,3.3496,3.3431,3.3716,3.3734,3.3596,3.3188,3.3188,3.2779,3.1965,3.17,3.1285,3.1002,3.0576,2.9968,2.9336,2.8914,2.8765,2.442,2.7864,3.1408,0.0,3.5693,3.6871,3.7951,3.8603,3.9081,3.9847,4.037,4.101,4.1899,4.2069,4.2069,4.2069,4.2069,4.2069,4.2069,4.1781,4.169,4.203,4.1285,4.0853,4.1154,4.0958,4.0684,4.0383,4.0546,4.0585,4.0383,3.9998,3.9758,3.9965,3.973,3.973,3.9965,3.973,3.9524,3.9355,3.8326,3.7667,3.7254,3.6462,3.6308,3.6495,3.6356,3.5938,3.5367,3.4703,3.4155,3.3533,3.3288,3.3132,3.3089,3.3859,3.4334,3.4515,3.4977,3.5554,3.6029,3.615,3.6453,3.6921,3.6911,3.7143,3.7374,3.7374,3.7264,3.7154,3.6921,3.6678,3.6476,3.6308,3.5945,3.5779,3.6446,3.6866,3.7118,3.6656,3.6499,3.6436,3.638,3.6119,3.6019,3.6476,3.5544,3.4805,3.4805,3.423,3.3817,3.3817,3.3661,3.3532,3.3486,3.3321,3.3202,3.3138,3.3349,3.3349,3.3211,3.3291,3.2981,3.2412,3.2123,3.17,3.1285,3.0726,3.011,2.9617,2.9055,2.8632,0.0,0.0,2.9438,3.233,3.3985,3.5279,0.0,0.0,3.8168,0.0,3.9094,3.9511,4.0697,4.088,4.088,4.088,4.088,4.088,4.088,4.0501,4.0383,4.0827,4.0135,3.9769,4.0174,4.0213,4.0043,3.9542,3.9686,3.9738,3.9529,3.9167,3.9077,3.9377,3.9151,3.9138,3.9377,3.9294,3.882,3.8171,3.738,3.691,3.6693,3.5703,3.5385,3.5573,3.5669,3.5631,3.5406,3.4637,3.4159,3.3727,3.3296,3.2955,3.2789,3.3339,3.3611,3.4022,3.4603,3.5231,3.5789,3.6286,3.6578,3.6881,3.7231,3.7374,3.7374,3.7374,3.7374,3.7385,3.7032,3.6921,3.68,3.6178,3.5921,3.5798,3.5428,3.5822,3.6321,3.6321,3.6415,3.6363,3.6111,3.6215,3.6187,3.6122,3.5666,3.5247,3.4719,3.4184,3.3909,3.3679,3.3661,3.3496,3.3101,3.3065,3.2927,3.2615,3.289,3.3111,3.3221,3.3239,3.317,3.285,3.2412,3.1982,3.1427,3.0718,3.0159,2.9748,2.89,2.8475,0.0,2.4269,0.0,2.9425,3.1473,3.3002,0.0,0.0,3.6871,3.752,3.7822,3.8402,3.949,3.9703,3.9703,3.9703,3.9703,3.9703,3.9703,3.9677,3.9664,3.969,3.9651,3.9625,3.9651,3.9651,3.9529,3.9201,3.9226,3.9226,3.9201,3.8683,3.8574,3.8762,3.8054,3.7948,3.8749,3.8303,3.7559,3.654,3.5682,3.4931,3.4315,3.445,3.405,3.3398,3.3892,3.4695,3.5447,3.4261,3.4087,3.4368,3.4188,3.3523,3.2789,3.3465,3.3844,3.3885,3.4358,3.5019,3.5596,3.5691,3.6221,3.6698,3.6902,3.7154,3.7374,3.7374,3.7374,3.7374,3.7385,3.7154,3.68,3.6423,3.6167,3.5798,3.5428,3.5438,3.5459,3.5459,3.5811,3.6111,3.6111,3.6473,3.6789,3.684,3.6262,3.5766,3.5529,3.4774,3.4093,3.3294,3.3257,3.3083,3.2661,3.2625,3.2615,3.2597,3.2615,3.2808,3.3211,3.3248,3.3166,3.3269,3.285,3.214,3.1002,3.0283,2.9712,2.9266,2.8547,2.8114,0.0,0.0,0.0,2.768,2.9541,3.1086,3.2605,3.4276,3.559,3.5986,3.6391,3.6677,3.7066,3.8405,3.9407,3.9612,3.9612,3.9612,3.9612,3.9272,3.9181,3.956,3.8958,3.8645,3.8998,3.9037,3.888,3.8434,3.8368,3.8312,3.8126,3.7612,3.7403,3.7697,3.7211,3.7011,3.7215,3.6849,3.6463,3.5895,3.5223,3.4808,3.4546,3.4105,3.3908,3.3686,3.2819,3.322,3.4509,3.3645,3.3595,3.3911,3.3501,3.3033,3.2747,3.3028,3.308,3.3205,3.3717,3.419,3.4572,3.5207,3.5693,3.6112,3.6404,3.6794,3.7032,3.6778,3.6911,3.7032,3.6778,3.6667,3.6545,3.6167,3.5798,3.5552,3.5418,3.5418,3.5418,3.5418,3.5552,3.5759,3.6059,3.6246,3.6387,3.6452,3.596,3.5534,3.5442,3.4614,3.3946,3.3684,3.3357,3.2945,3.2276,3.2212,3.2102,3.1836,3.2065,3.2285,3.2432,3.2945,3.3011,3.2597,3.242,3.2114,3.1692,3.071,3.0006,2.972,2.8851,2.8274,2.2101,0.0,0.0,0.0,2.7546,2.8886,3.0953,3.2642,3.3959,3.4712,3.5185,3.545,3.582,3.7105,3.8126,3.8415,3.8454,3.8519,3.8713,3.8233,3.8078,3.8661,3.7896,3.7533,3.8091,3.8143,3.7987,3.7531,3.7574,3.7424,3.7227,3.6909,3.6815,3.6909,3.6815,3.6628,3.6358,3.6061,3.5692,3.5428,3.4835,3.4525,3.4457,3.383,3.3554,3.3413,3.2363,3.2697,3.3885,3.2926,3.2997,3.3541,3.3069,3.278,3.2623,3.2675,3.2841,3.3069,3.3512,3.3816,3.4197,3.4929,3.5302,3.5618,3.5908,3.6308,3.66,3.6389,3.6431,3.6596,3.6624,3.6423,3.6167,3.5921,3.5665,3.5418,3.5418,3.5418,3.5418,3.5418,3.5418,3.5521,3.5832,3.6008,3.6088,3.6014,3.5771,3.5392,3.5014,3.418,3.3657,3.3267,3.3071,3.268,3.1863,3.1918,3.1827,3.1405,3.1513,3.1733,3.1861,3.2384,3.253,3.2098,3.1922,3.1973,3.1973,3.0567,2.9568,2.9138,2.8418,2.7848,0.0,0.0,0.0,0.0,0.0,0.0,2.9753,3.0945,3.1966,3.361,3.4255,3.4748,3.5813,3.5882,3.5851,3.6199,3.6224,3.6429,3.698,3.6583,3.6442,3.6993,3.6583,3.6468,3.7031,3.7083,3.6989,3.6709,3.6709,3.6709,3.6709,3.6722,3.6709,3.6684,3.6615,3.6534,3.6358,3.5763,3.5391,3.5126,3.4335,3.3854,3.3679,3.3381,3.2958,3.2409,3.2409,3.2994,3.3879,3.2235,3.2306,3.3413,3.3028,3.268,3.2431,3.2654,3.3058,3.3625,3.3636,3.3963,3.46,3.5037,3.5201,3.5185,3.5432,3.571,3.5947,3.6048,3.6188,3.6296,3.6781,3.6412,3.5921,3.5921,3.5675,3.5418,3.5418,3.5418,3.5418,3.5418,3.5418,3.5418,3.5418,3.579,3.5964,3.5585,3.5716,3.5351,3.4293,3.3908,3.3237,3.2178,3.2349,3.2249,3.1442,3.1753,3.1818,3.1405,3.1129,3.1051,3.1439,3.1452,3.1708,3.209,3.1791,3.1559,3.1551,2.9695,2.8411,2.755,2.7129,2.6991,2.2023,0.0,0.0,0.0,0.0,0.0,0.0,2.8634,3.0364,3.107,3.2352,3.3348,3.3446,3.3901,3.4337,3.4405,3.5285,3.598,3.5968,3.5852,3.5814,3.5968,3.5852,3.5968,3.6442,3.6506,3.6673,0.0,3.6815,3.6709,3.6709,3.6534,3.6169,3.5581,3.5767,3.55,3.4714,3.4519,3.4225,3.3744,3.3346,3.3058,3.3058,3.2857,3.2768,3.2768,3.2331,3.2611,3.3376,3.2339,3.2202,3.2502,3.2309,3.231,3.2623,3.2538,3.2899,3.342,3.3861,3.4086,3.422,3.4564,3.4847,3.4934,3.4718,3.4986,3.5157,3.4812,3.4854,3.5079,3.5313,3.5425,3.5552,3.5552,3.5428,3.5418,3.5418,3.5418,3.5418,3.5418,3.5418,3.5418,3.5418,3.5531,3.549,3.5105,3.4976,3.4616,3.4248,3.3595,3.3105,3.245,3.2243,3.1824,3.1045,3.1108,3.0997,3.0759,3.0629,3.0669,3.1043,3.1318,3.1572,3.1677,3.1651,3.1,2.988,2.944,2.8851,2.8411,2.742,2.6991,0.0,0.0,0.0,0.0,0.0,0.0,2.6129,2.7498,2.8737,3.0381,3.1591,3.2484,3.2473,3.3118,3.3566,3.3225,3.403,3.4882,3.5429,3.5237,3.5173,3.5404,3.5225,3.5314,3.5865,3.5917,3.6058,3.6391,3.622,3.6033,3.5887,3.5618,3.519,3.482,3.4848,3.4628,3.404,3.3854,3.3457,3.3058,3.2745,3.2645,3.2656,3.2544,3.2555,3.2768,3.2454,3.2544,3.2757,3.2454,3.2266,3.2133,3.1973,3.2038,3.2371,3.2622,3.3008,3.3409,3.3974,3.4199,3.4311,3.4311,3.4393,3.4393,3.3936,3.4116,3.4349,3.4083,3.4282,3.461,3.4523,3.4807,3.5148,3.5148,3.5293,3.5418,3.5418,3.5418,3.5418,3.5418,3.5418,3.5418,3.5418,3.5418,3.5294,3.4922,3.4508,3.4044,3.3671,3.285,3.2254,3.1911,3.1493,3.1141,3.0777,3.0629,3.0629,3.0369,3.023,3.0267,3.0645,3.0906,3.1164,3.1271,3.1208,3.0368,2.9031,2.9258,2.9002,2.8266,2.742,2.6991,0.0,0.0,0.0,0.0,0.0,0.0,2.6591,2.6837,2.7229,3.0064,3.107,3.1498,3.1954,3.262,3.2841,3.2084,3.2549,3.3514,3.484,3.4622,3.4507,3.5007,3.4674,3.4635,3.5111,3.5213,3.5277,3.5341,3.5405,3.5196,3.4841,3.4338,3.4174,3.429,3.4091,3.3941,3.3831,3.3469,3.3069,3.2745,3.2544,3.2443,3.2443,3.2443,3.2443,3.2443,3.2667,3.2454,3.2015,3.2667,3.26,3.2035,3.1924,3.187,3.1948,3.2579,3.3136,3.3674,3.3952,3.4311,3.4412,3.4086,3.4086,3.3974,3.342,3.342,3.3607,3.378,3.4106,3.4355,3.4108,3.4341,3.4683,3.4683,3.4983,3.5283,3.5335,3.5345,3.5366,3.5407,3.5418,3.5418,3.5418,3.5418,3.5294,3.4797,3.4298,3.367,3.2921,3.2019,3.1387,3.1,3.0629,3.0508,3.0378,3.0369,3.0369,3.0239,2.9961,2.9856,3.0264,3.0367,3.0617,3.1003,3.0578,2.9872,2.8898,2.9075,2.8683,2.755,2.7129,2.6991,0.0,0.0,0.0,0.0,0.0,0.0,2.3688,2.4886,2.5882,2.5482,2.7111,2.8466,2.7994,2.9091,2.9928,2.9256,3.0807,3.2214,3.2598,3.2611,3.2585,3.2618,3.3034,3.3385,3.3763,3.4221,3.4679,3.5149,3.5322,3.5429,3.5344,3.5108,3.4607,3.3683,3.411,3.3831,3.2723,3.3058,3.3069,3.2544,3.2229,3.2128,3.2128,3.1823,3.1924,3.2128,3.2128,3.2128,3.2015,3.2667,3.2599,3.2175,3.1581,3.1782,3.2426,3.2436,3.2767,3.3426,3.3957,3.4086,3.4086,3.3749,3.3738,3.3636,3.3306,3.3193,3.3203,3.2945,3.3287,3.363,3.3513,3.3855,3.4207,3.4207,3.4269,3.4434,3.4807,3.489,3.4993,3.5355,3.5418,3.5418,3.5418,3.5418,3.5046,3.4173,3.3922,3.3418,3.2294,3.191,3.1653,3.1377,3.1,3.075,3.0378,3.0091,2.9822,2.9569,2.9438,2.961,3.0015,3.0241,3.0617,3.1003,3.0725,3.016,2.9609,2.8837,2.8013,2.755,2.7129,2.6991,0.0,0.0,0.0,2.3891,0.0,0.0,0.0,2.4134,2.4491,2.5368,2.6168,2.6751,2.6726,2.7628,2.8216,2.7628,2.947,3.0628,2.9895,3.1552,3.2807,3.2807,3.2807,3.2843,3.3032,3.3232,3.3475,3.3792,3.3646,3.3711,3.4157,3.3696,3.3382,3.3261,3.3517,3.3132,3.1862,3.2483,3.2259,3.1329,3.1562,3.1672,3.1683,3.1622,3.1721,3.1823,3.1913,3.2015,3.2015,3.2667,3.2611,3.2163,3.1933,3.1973,3.2286,3.2308,3.275,3.3375,3.3634,3.3882,3.3974,3.3523,3.3409,3.3296,3.3079,3.2965,3.2965,3.2727,3.2882,3.3058,3.3058,3.3389,3.372,3.372,3.4072,3.4476,3.4714,3.4931,3.5159,3.5376,3.5418,3.5294,3.517,3.517,3.4797,3.3796,3.3408,3.2775,3.1772,3.1129,3.0732,3.0593,3.0343,3.0091,2.9839,2.97,2.943,2.9307,2.9307,2.9487,2.9881,3.0069,3.0335,3.072,3.0583,3.0161,2.9608,2.8627,2.8059,2.784,2.7412,2.7041,0.0,0.0,0.0,0.0,0.0,2.3103,0.0,0.0,0.0,2.5653,2.5561,2.5247,2.5853,2.6413,2.6622,2.6112,2.7887,2.8794,2.7285,3.0246,3.2515,3.2594,3.2476,3.2371,3.2358,3.2156,3.2217,3.2575,3.1833,3.1816,3.278,3.2204,3.2162,3.271,3.2833,3.2474,3.1551,3.1757,3.151,3.0645,3.1042,3.123,3.134,3.1515,3.1542,3.1618,3.1823,3.1913,3.1924,3.2566,3.2454,3.2015,3.2331,3.2178,3.1927,3.2235,3.2694,3.3213,3.32,3.3566,3.3861,3.3306,3.3079,3.3079,3.2727,3.2727,3.2727,3.2727,3.2727,3.2727,3.2727,3.2985,3.3254,3.3254,3.3824,3.4393,3.4476,3.4776,3.5086,3.5262,3.5293,3.5201,3.4901,3.4797,3.4413,3.3292,3.2638,3.2001,3.1249,3.0473,2.9952,2.9952,2.9561,2.9438,2.9438,2.9307,2.9307,2.9307,2.9307,2.9453,2.977,2.9855,3.0069,3.042,3.0293,2.9883,2.919,2.8494,2.8131,2.8038,2.746,2.6886,0.0,0.0,0.0,0.0,2.4812,0.0,0.0,0.0,2.3321,2.2528,0.0,0.0,0.0,0.0,0.0,0.0,0.0,0.0,2.5756,2.734,2.8634,2.8974,3.0413,3.1304,3.1042,3.1016,3.1452,3.2422,3.1547,3.1541,3.278,3.2828,3.2552,3.2188,3.2385,3.2457,3.2331,3.1479,3.1536,3.2202,3.1136,3.0996,3.1616,3.1473,3.1438,3.1618,3.1618,3.1527,3.1333,3.224,3.2331,3.2015,3.2015,3.1856,3.1658,3.1862,3.2466,3.3105,3.2994,3.3231,3.3512,3.2955,3.2737,3.2727,3.2727,3.2727,3.2727,3.2727,3.2727,3.2727,3.2727,3.2768,3.2799,3.2799,3.2882,3.3068,3.3451,3.3575,3.3855,3.4672,3.4828,3.483,3.4477,3.4423,3.3912,3.2256,3.201,3.1635,3.0629,3.0369,3.0369,3.0369,2.9961,2.9683,2.9683,2.9438,2.9307,2.9307,2.9307,2.9333,2.9376,2.971,3.0069,3.042,3.0174,2.9626,2.8802,2.8518,2.8013,2.7687,2.6695,2.6107,0.0,0.0,0.0,0.0,0.0,0.0,2.3839,0.0,2.2819,0.0,0.0,0.0,0.0,0.0,0.0,0.0,2.4458,0.0,2.4215,2.5586,2.702,2.788,0.0,0.0,2.9285,2.9745,3.0373,3.108,3.0408,3.0524,3.1681,3.149,3.136,3.1461,3.1871,3.1632,3.0765,3.0954,3.0789,3.0298,3.0494,3.0639,3.0563,3.1064,3.134,3.1438,3.1509,3.1618,3.1721,3.224,3.2331,3.2015,3.2229,3.2128,3.1742,3.1445,3.1602,3.218,3.224,3.2606,3.2938,3.2758,3.2727,3.2727,3.2727,3.2727,3.2727,3.2727,3.2727,3.2727,3.2727,3.2727,3.2727,3.2727,3.2923,3.3161,3.3337,3.3468,3.3731,3.4389,3.4146,3.3787,3.3601,3.3796,3.367,3.2403,3.1635,3.1129,3.0499,2.9979,2.9709,2.9709,2.9569,2.9561,2.9561,2.9438,2.9307,2.9307,2.9307,2.9307,2.9307,2.9693,2.9967,3.0121,2.9716,2.9166,2.8197,2.7649,2.6901,2.6077,2.6135,2.5555,2.5959,0.0,0.0,0.0,0.0,0.0,0.0,0.0,0.0,0.0,0.0,0.0,0.0,0.0,0.0,0.0,0.0,2.4129,0.0,2.3804,0.0,0.0,0.0,0.0,0.0,2.8203,2.8704,2.8953,2.879,2.9137,3.0124,3.0079,3.0214,3.0762,3.1072,3.0768,2.9973,3.0169,2.9922,2.9129,2.9818,3.0079,3.0036,3.0588,3.0976,3.1252,3.1381,3.1702,3.1924,3.2454,3.2454,3.224,3.2432,3.2331,3.1924,3.1127,3.1115,3.1551,3.158,3.1997,3.235,3.2582,3.2727,3.2727,3.2727,3.2727,3.2727,3.2727,3.2727,3.2727,3.2727,3.2727,3.2727,3.2727,3.2975,3.3203,3.3203,3.3227,3.336,3.3809,3.3407,3.2986,3.2903,3.3223,3.3175,3.2157,3.1267,3.062,3.023,2.9709,2.9307,2.9307,2.9307,2.9307,2.9307,2.9307,2.9307,2.9307,2.9307,2.9307,2.9307,2.9581,2.9787,2.9898,2.9111,2.8423,2.7557,2.6512,2.5525,2.4578,2.5175,2.4918,0.0,0.0,0.0,2.458,0.0,0.0,0.0,0.0,2.38,0.0,0.0,0.0,0.0,0.0,0.0,0.0,0.0,0.0,0.0,0.0,0.0,0.0,0.0,0.0,0.0,2.6029,2.6231,2.6168,2.6631,2.7315,2.8105,2.9058,2.9785,3.0292,2.9807,3.0006,3.0942,2.9498,2.9278,3.0236,2.9267,2.9371,3.0507,2.9891,3.0046,3.0941,3.1141,3.1405,3.1732,3.2566,3.2891,3.288,3.2533,3.2218,3.1913,3.1424,3.1313,3.1498,3.1211,3.1496,3.2116,3.2582,3.2727,3.2727,3.2727,3.2727,3.2727,3.2727,3.2727,3.2727,3.2727,3.2727,3.2727,3.2727,3.2747,3.2747,3.2747,3.2529,3.2421,3.287,3.2492,3.2186,3.2676,3.2661,3.2157,3.1129,3.062,3.023,2.9822,2.9561,2.9307,2.9307,2.9307,2.9307,2.9307,2.9307,2.9307,2.9307,2.9307,2.9307,2.9307,2.9316,2.9504,2.989,2.817,2.7217,2.7277,2.547,2.4238,2.3427,2.3873,2.4011,0.0,0.0,2.9613,2.6855,0.0,0.0,0.0,0.0,0.0,0.0,0.0,0.0,0.0,0.0,0.0,0.0,0.0,0.0,0.0,0.0,0.0,0.0,0.0,0.0,0.0,2.5181,2.5861,2.5852,2.6347,2.7071,2.7822,2.7974,2.8287,2.8798,2.9278,2.9344,2.9037,2.9179,2.9194,2.9267,2.8905,2.8905,2.936,2.9314,2.9449,2.9699,3.0249,3.0906,3.1483,3.2107,3.2656,3.3081,3.2432,3.2117,3.1913,3.1208,3.0902,3.0821,3.1131,3.1646,3.2116,3.2582,3.2727,3.2727,3.2727,3.2727,3.2727,3.2727,3.2727,3.2727,3.2727,3.2727,3.2727,3.2727,3.2612,3.2487,3.2487,3.2028,3.1686,3.19,3.1494,3.1079,3.1408,3.1355,3.1339,3.1212,3.0473,2.9952,2.9813,2.9569,2.9307,2.9307,2.9307,2.9307,2.9307,2.9307,2.9307,2.9307,2.9307,2.9307,2.9307,2.9307,2.9244,2.9125,2.832,2.7507,2.6402,2.5637,2.4774,2.3823,2.3927,2.3838,3.0199,3.0761,0.0,2.8273,2.8152,0.0,2.5704,0.0,0.0,0.0,0.0,0.0,0.0,0.0,0.0,0.0,0.0,0.0,0.0,1.979,0.0,0.0,0.0,0.0,0.0,2.3857,2.4568,2.474,2.5413,2.6136,2.6875,2.7024,2.7323,2.7977,2.8466,2.856,2.8269,2.8735,2.8921,2.8724,2.8724,2.8724,2.8746,2.8874,2.9018,2.9021,2.9827,3.0456,3.1041,3.1614,3.224,3.2656,3.2026,3.1823,3.1618,3.0899,3.0495,3.0297,3.0971,3.1319,3.1661,3.2282,3.2489,3.252,3.2685,3.2727,3.2727,3.2727,3.2727,3.2727,3.2612,3.2612,3.2498,3.2383,3.2258,3.2133,3.2133,3.1556,3.1171,3.123,3.0677,3.0212,3.04,3.0195,3.0301,3.0966,3.0384,2.9952,2.9813,2.9569,2.9307,2.9307,2.9307,2.9307,2.9307,2.9307,2.9307,2.9307,2.9307,2.9307,2.9307,2.9307,2.9244,2.8992,2.832,2.7382,2.6425,2.5644,2.4916,2.4231,2.4095,2.3959]}]]